[[{"header":{"parameterUnit":"m.s-1","parameterCategory":1,"la1":30.6,"la2":29.2853,"lo1":-89.7004,"lo2":-87.6739,"dy":0.0162,"dx":0.0183,"nx":112,"ny":82,"refTime":"2023-06-28T06:00:00:Z","depth":0,"parameterNumber":2,"parameterNumberName":"U-component_of_WINDS"},"data":[0.0,0.0,0.0,0.0,0.0,0.0,0.0,0.0,0.0,0.0,0.0,0.0,0.0,0.0,0.0,0.0,0.0,0.0,0.0,0.0,0.0,0.0,0.0,0.0,0.0,0.0,0.0,0.0,0.0,0.0,0.0,0.0,0.0,0.0,0.0,0.0,0.0,0.0,0.0,0.0,0.0,0.0,0.0,0.0,0.0,0.0,0.0,0.0,0.0,0.0,0.0,0.0,0.0,0.0,0.0,0.0,0.0,0.0,0.0,0.0,0.0,0.0,0.0,0.0,0.0,0.0,0.0,0.0,0.0,0.0,0.0,0.0,0.0,0.0,0.0,0.0,0.0,0.0,0.0,0.0,0.0,0.0,0.0,0.0,0.0,0.0,0.0,0.0,0.0,0.0,0.0,-4.3431,-4.4748,-4.5594,-4.5594,-4.5594,-4.4132,-4.0727,0.0,0.0,0.0,0.0,0.0,0.0,0.0,0.0,0.0,0.0,0.0,0.0,0.0,0.0,0.0,0.0,0.0,0.0,0.0,0.0,0.0,0.0,0.0,0.0,0.0,0.0,0.0,0.0,0.0,0.0,0.0,0.0,0.0,0.0,0.0,0.0,0.0,0.0,0.0,0.0,0.0,0.0,0.0,0.0,0.0,0.0,0.0,0.0,0.0,0.0,0.0,0.0,0.0,0.0,0.0,0.0,0.0,0.0,0.0,0.0,0.0,0.0,0.0,0.0,0.0,0.0,0.0,0.0,0.0,0.0,0.0,0.0,0.0,0.0,0.0,0.0,0.0,0.0,0.0,0.0,0.0,0.0,0.0,0.0,0.0,0.0,0.0,0.0,0.0,0.0,0.0,0.0,0.0,0.0,0.0,0.0,0.0,0.0,0.0,0.0,0.0,0.0,0.0,0.0,-4.2016,-4.4921,-4.546,-4.5594,-4.5594,-4.5594,-4.4132,-4.0727,0.0,0.0,0.0,0.0,0.0,0.0,0.0,0.0,0.0,0.0,0.0,0.0,0.0,0.0,0.0,0.0,0.0,0.0,0.0,0.0,0.0,0.0,0.0,0.0,0.0,0.0,0.0,0.0,0.0,0.0,0.0,0.0,0.0,0.0,0.0,0.0,0.0,0.0,0.0,0.0,0.0,0.0,0.0,0.0,0.0,0.0,0.0,0.0,0.0,0.0,0.0,0.0,0.0,0.0,0.0,0.0,0.0,0.0,0.0,0.0,0.0,0.0,0.0,0.0,0.0,0.0,0.0,0.0,0.0,0.0,0.0,0.0,0.0,0.0,0.0,0.0,0.0,0.0,0.0,0.0,0.0,0.0,0.0,0.0,0.0,0.0,0.0,0.0,0.0,0.0,0.0,0.0,0.0,0.0,0.0,0.0,0.0,0.0,0.0,0.0,0.0,0.0,0.0,-4.0162,-4.2335,-4.5287,-4.5594,-4.5594,-4.5594,-4.5594,-4.4132,-4.0727,-3.8931,0.0,0.0,0.0,0.0,0.0,0.0,0.0,0.0,0.0,0.0,0.0,0.0,0.0,0.0,0.0,0.0,0.0,0.0,0.0,0.0,0.0,0.0,0.0,0.0,0.0,0.0,0.0,0.0,0.0,0.0,0.0,0.0,0.0,0.0,0.0,0.0,0.0,0.0,0.0,0.0,0.0,0.0,0.0,0.0,0.0,0.0,0.0,0.0,0.0,0.0,0.0,0.0,0.0,0.0,0.0,0.0,0.0,0.0,0.0,0.0,0.0,0.0,0.0,0.0,0.0,0.0,0.0,0.0,0.0,0.0,0.0,0.0,0.0,0.0,0.0,0.0,0.0,0.0,0.0,0.0,0.0,0.0,0.0,0.0,0.0,0.0,0.0,0.0,0.0,0.0,0.0,0.0,0.0,0.0,0.0,0.0,0.0,0.0,0.0,0.0,0.0,0.0,-4.1412,-4.3431,-4.5383,-4.5594,-4.5594,-4.5594,-4.5248,-4.3728,-4.0689,-3.8565,0.0,0.0,0.0,0.0,0.0,0.0,0.0,0.0,0.0,0.0,0.0,0.0,0.0,0.0,0.0,0.0,0.0,0.0,0.0,0.0,0.0,0.0,0.0,0.0,0.0,0.0,0.0,0.0,0.0,0.0,0.0,0.0,0.0,0.0,0.0,0.0,0.0,0.0,0.0,0.0,0.0,0.0,0.0,0.0,0.0,0.0,0.0,0.0,0.0,0.0,0.0,0.0,0.0,0.0,0.0,0.0,0.0,0.0,0.0,0.0,0.0,0.0,0.0,0.0,0.0,0.0,0.0,0.0,0.0,0.0,0.0,0.0,0.0,0.0,0.0,0.0,0.0,0.0,0.0,0.0,0.0,0.0,0.0,0.0,0.0,0.0,0.0,0.0,0.0,0.0,0.0,0.0,0.0,0.0,0.0,0.0,0.0,0.0,0.0,0.0,0.0,0.0,-4.3286,-4.5402,-4.5575,-4.5594,-4.5594,-4.5594,-4.4162,-4.247,-4.0612,-3.7469,0.0,0.0,0.0,0.0,0.0,0.0,0.0,0.0,0.0,0.0,0.0,0.0,0.0,0.0,0.0,0.0,0.0,0.0,0.0,0.0,0.0,0.0,0.0,0.0,0.0,0.0,0.0,0.0,0.0,0.0,0.0,0.0,0.0,0.0,0.0,0.0,0.0,0.0,0.0,0.0,0.0,0.0,0.0,0.0,0.0,0.0,0.0,0.0,0.0,0.0,0.0,0.0,0.0,0.0,0.0,0.0,0.0,0.0,0.0,0.0,0.0,0.0,0.0,0.0,0.0,0.0,0.0,0.0,0.0,0.0,0.0,0.0,0.0,0.0,0.0,0.0,0.0,0.0,0.0,0.0,0.0,0.0,0.0,0.0,0.0,0.0,0.0,0.0,0.0,0.0,0.0,0.0,0.0,0.0,0.0,0.0,0.0,0.0,0.0,0.0,0.0,0.0,-4.145,-4.3835,0.0,-4.5594,-4.5594,-4.5594,-4.5017,-4.3478,-4.0689,0.0,0.0,0.0,0.0,0.0,0.0,0.0,0.0,0.0,0.0,0.0,0.0,0.0,0.0,0.0,0.0,0.0,0.0,0.0,0.0,0.0,0.0,0.0,0.0,0.0,0.0,0.0,0.0,0.0,0.0,0.0,0.0,0.0,0.0,0.0,0.0,0.0,0.0,0.0,0.0,0.0,0.0,0.0,0.0,0.0,0.0,0.0,0.0,0.0,0.0,0.0,0.0,0.0,0.0,0.0,0.0,0.0,0.0,0.0,0.0,0.0,0.0,0.0,0.0,0.0,0.0,0.0,0.0,0.0,0.0,0.0,0.0,0.0,0.0,0.0,0.0,0.0,0.0,0.0,0.0,0.0,0.0,0.0,0.0,0.0,0.0,0.0,0.0,0.0,0.0,0.0,0.0,0.0,0.0,0.0,0.0,0.0,0.0,0.0,0.0,0.0,0.0,-3.8334,-4.1104,-4.3662,0.0,-4.5594,-4.5594,-4.5594,-4.5114,-4.3478,-4.0323,0.0,0.0,0.0,0.0,0.0,0.0,0.0,0.0,0.0,0.0,0.0,0.0,0.0,0.0,0.0,0.0,0.0,0.0,0.0,0.0,0.0,0.0,0.0,0.0,0.0,0.0,0.0,0.0,0.0,0.0,0.0,0.0,0.0,0.0,0.0,0.0,0.0,0.0,0.0,0.0,0.0,0.0,0.0,0.0,0.0,0.0,0.0,0.0,0.0,0.0,0.0,0.0,0.0,0.0,0.0,0.0,0.0,0.0,0.0,0.0,0.0,0.0,0.0,0.0,0.0,0.0,0.0,0.0,0.0,0.0,0.0,0.0,0.0,0.0,0.0,0.0,0.0,0.0,0.0,0.0,0.0,0.0,0.0,0.0,0.0,0.0,0.0,0.0,0.0,0.0,0.0,0.0,0.0,0.0,0.0,0.0,0.0,0.0,0.0,0.0,0.0,0.0,-3.9284,-4.2978,-4.5594,-4.5594,-4.5594,-4.5594,-4.5594,-4.4085,-4.2047,0.0,0.0,0.0,0.0,0.0,0.0,0.0,0.0,0.0,0.0,0.0,0.0,0.0,0.0,0.0,0.0,0.0,0.0,0.0,0.0,0.0,0.0,0.0,0.0,0.0,0.0,0.0,0.0,0.0,0.0,0.0,0.0,0.0,0.0,0.0,0.0,0.0,0.0,0.0,0.0,0.0,0.0,0.0,0.0,0.0,0.0,0.0,0.0,0.0,0.0,0.0,0.0,0.0,0.0,0.0,0.0,0.0,0.0,0.0,0.0,0.0,0.0,0.0,0.0,0.0,0.0,0.0,0.0,0.0,0.0,0.0,0.0,0.0,0.0,0.0,0.0,0.0,0.0,0.0,0.0,0.0,0.0,0.0,0.0,0.0,0.0,0.0,0.0,0.0,0.0,0.0,0.0,0.0,0.0,0.0,0.0,0.0,0.0,0.0,0.0,0.0,0.0,0.0,-3.845,-4.2613,-4.5594,-4.5594,-4.5594,-4.5594,-4.5594,-4.5152,-4.3517,-4.0342,0.0,0.0,0.0,0.0,0.0,0.0,0.0,0.0,0.0,0.0,0.0,0.0,0.0,0.0,0.0,0.0,0.0,0.0,0.0,0.0,0.0,0.0,0.0,0.0,0.0,0.0,0.0,0.0,0.0,0.0,0.0,0.0,0.0,0.0,0.0,0.0,0.0,0.0,0.0,0.0,0.0,0.0,0.0,0.0,0.0,0.0,0.0,0.0,0.0,0.0,0.0,0.0,0.0,0.0,0.0,0.0,0.0,0.0,0.0,0.0,0.0,0.0,0.0,0.0,0.0,0.0,0.0,0.0,0.0,0.0,0.0,0.0,0.0,0.0,0.0,0.0,0.0,0.0,0.0,0.0,0.0,0.0,0.0,0.0,0.0,0.0,0.0,0.0,0.0,0.0,0.0,0.0,0.0,0.0,0.0,0.0,0.0,0.0,0.0,0.0,0.0,0.0,-3.8065,-4.2459,-4.5594,-4.5594,-4.5594,-4.5594,-4.5594,-4.5594,-4.4286,-4.12,0.0,0.0,0.0,0.0,0.0,0.0,0.0,0.0,0.0,0.0,0.0,0.0,0.0,0.0,0.0,0.0,0.0,0.0,0.0,0.0,0.0,0.0,0.0,0.0,0.0,0.0,0.0,0.0,0.0,0.0,0.0,0.0,0.0,0.0,0.0,0.0,0.0,0.0,0.0,0.0,0.0,0.0,0.0,0.0,0.0,0.0,0.0,0.0,0.0,0.0,0.0,0.0,0.0,0.0,0.0,0.0,0.0,0.0,0.0,0.0,0.0,0.0,0.0,0.0,0.0,0.0,0.0,0.0,0.0,0.0,0.0,0.0,0.0,0.0,0.0,0.0,0.0,0.0,0.0,0.0,0.0,0.0,0.0,0.0,0.0,0.0,0.0,0.0,0.0,0.0,0.0,0.0,0.0,0.0,0.0,0.0,0.0,0.0,0.0,0.0,0.0,0.0,-3.8007,-4.2459,-4.5594,-4.5594,-4.5594,-4.5594,-4.5594,-4.5594,-4.4547,-4.2085,0.0,0.0,0.0,0.0,0.0,0.0,0.0,0.0,0.0,0.0,0.0,0.0,0.0,0.0,0.0,0.0,0.0,0.0,0.0,0.0,0.0,0.0,0.0,0.0,0.0,0.0,0.0,0.0,0.0,0.0,0.0,0.0,0.0,0.0,0.0,0.0,0.0,0.0,0.0,0.0,0.0,0.0,0.0,0.0,0.0,0.0,0.0,0.0,0.0,0.0,0.0,0.0,0.0,0.0,0.0,0.0,0.0,0.0,0.0,0.0,-3.9522,0.0,0.0,0.0,0.0,0.0,0.0,0.0,0.0,0.0,0.0,0.0,0.0,0.0,0.0,0.0,0.0,0.0,0.0,0.0,0.0,0.0,0.0,0.0,0.0,0.0,0.0,0.0,0.0,0.0,0.0,0.0,0.0,0.0,0.0,0.0,0.0,0.0,0.0,0.0,0.0,0.0,-3.8007,-4.2459,-4.5594,-4.5594,-4.5594,-4.5594,-4.5594,-4.5594,-4.4806,-4.2931,0.0,0.0,0.0,0.0,0.0,0.0,0.0,0.0,0.0,0.0,0.0,0.0,0.0,0.0,0.0,0.0,0.0,0.0,0.0,0.0,0.0,0.0,0.0,0.0,0.0,0.0,0.0,0.0,0.0,0.0,0.0,0.0,0.0,0.0,0.0,0.0,0.0,0.0,0.0,0.0,0.0,0.0,0.0,0.0,0.0,0.0,0.0,0.0,0.0,0.0,0.0,0.0,0.0,0.0,0.0,0.0,0.0,0.0,0.0,0.0,0.0,-3.9854,0.0,0.0,0.0,0.0,0.0,0.0,0.0,0.0,0.0,0.0,0.0,0.0,0.0,0.0,0.0,0.0,0.0,0.0,0.0,0.0,0.0,0.0,0.0,0.0,0.0,0.0,0.0,0.0,0.0,0.0,0.0,0.0,0.0,0.0,0.0,0.0,0.0,0.0,0.0,0.0,-3.9681,-4.3201,-4.5594,-4.5594,-4.5594,-4.5594,-4.5594,-4.5594,-4.5229,-4.4355,-4.3547,0.0,0.0,0.0,0.0,0.0,0.0,0.0,0.0,0.0,0.0,0.0,0.0,0.0,0.0,0.0,0.0,0.0,0.0,0.0,0.0,0.0,0.0,0.0,0.0,0.0,0.0,0.0,0.0,0.0,0.0,0.0,0.0,0.0,0.0,0.0,0.0,0.0,0.0,0.0,0.0,0.0,0.0,0.0,0.0,0.0,0.0,0.0,0.0,0.0,0.0,0.0,0.0,0.0,0.0,-4.3164,-4.3066,-4.3795,-4.4136,-4.4059,-4.2259,-4.2291,-4.3357,0.0,0.0,0.0,0.0,0.0,0.0,0.0,0.0,0.0,0.0,0.0,0.0,0.0,0.0,0.0,0.0,0.0,0.0,0.0,0.0,0.0,0.0,0.0,0.0,0.0,-4.3547,-4.3143,0.0,0.0,0.0,0.0,0.0,0.0,0.0,0.0,0.0,0.0,0.0,0.0,-4.195,-4.4451,-4.6037,-4.6037,-4.5922,-4.5825,-4.5825,-4.5691,-4.5594,-4.5594,-4.4297,-4.2893,0.0,0.0,0.0,0.0,0.0,0.0,0.0,0.0,0.0,0.0,0.0,0.0,0.0,0.0,0.0,0.0,0.0,0.0,0.0,0.0,0.0,0.0,0.0,0.0,0.0,0.0,0.0,0.0,0.0,0.0,0.0,0.0,-3.9121,-4.0976,0.0,0.0,0.0,0.0,0.0,0.0,0.0,0.0,0.0,0.0,0.0,0.0,0.0,0.0,-4.5409,-4.4566,-4.5263,-4.7484,-4.7607,-4.7654,-4.7621,-4.7757,-4.7731,-4.7559,-4.5954,0.0,-4.5299,-4.3142,0.0,0.0,0.0,0.0,0.0,0.0,0.0,0.0,0.0,0.0,0.0,0.0,0.0,0.0,0.0,0.0,0.0,0.0,0.0,0.0,0.0,0.0,-4.4998,-4.5229,-4.5267,-4.521,0.0,-4.2593,-4.0227,-3.9304,0.0,0.0,0.0,0.0,0.0,0.0,0.0,0.0,-4.3835,-4.6182,-4.7778,-4.7778,-4.7144,-4.674,-4.674,-4.6028,-4.5594,-4.5594,-4.5383,-4.5171,-4.494,-4.2074,0.0,0.0,0.0,0.0,0.0,0.0,0.0,0.0,0.0,0.0,0.0,0.0,0.0,0.0,0.0,0.0,0.0,0.0,0.0,0.0,0.0,0.0,0.0,0.0,0.0,0.0,0.0,0.0,0.0,-3.8965,-4.0879,-4.3066,-4.207,-4.0937,0.0,0.0,0.0,0.0,0.0,0.0,0.0,0.0,0.0,-4.3808,-4.3984,-4.5448,-4.8347,-4.8385,-4.9196,-5.0773,-5.1174,-5.1321,-5.1256,-5.1256,-5.1262,-5.1235,-5.0414,-4.9853,-4.9301,-4.6069,-4.4449,-4.3738,0.0,0.0,0.0,0.0,0.0,-3.95,-4.1101,0.0,0.0,0.0,0.0,0.0,0.0,0.0,0.0,0.0,0.0,0.0,0.0,0.0,0.0,-4.6778,-4.7009,-4.7009,-4.7009,-4.5836,-4.4239,0.0,-4.2104,-4.1335,-3.8892,0.0,0.0,0.0,0.0,0.0,-4.6201,-4.7413,-4.8105,-4.8105,-4.7778,-4.7567,-4.7567,-4.6817,-4.6336,-4.6336,-4.5874,-4.5383,-4.4893,-4.3431,-4.1747,0.0,0.0,0.0,0.0,0.0,0.0,0.0,0.0,0.0,0.0,0.0,0.0,0.0,0.0,0.0,0.0,0.0,0.0,0.0,0.0,0.0,0.0,0.0,0.0,0.0,0.0,0.0,0.0,-4.043,-4.2461,-4.5039,-4.4043,-4.3144,0.0,0.0,0.0,0.0,0.0,0.0,-4.3125,-4.3945,-4.5293,-4.7246,-4.793,-4.9158,-5.1013,-5.1616,-5.2194,-5.2777,-5.3373,-5.3574,-5.3448,-5.3448,-5.3495,-5.3538,-5.3414,-5.3139,-5.2497,-4.8786,-4.6755,-4.5913,-4.5044,-4.3672,-4.226,-4.2689,-4.2978,-4.3321,-4.4374,-4.5491,-4.6429,-4.6401,0.0,-4.5143,-4.4489,0.0,0.0,0.0,0.0,-4.2777,-4.4239,0.0,-4.6547,-4.7798,-4.8105,-4.8105,-4.8105,-4.8279,-4.7817,0.0,-4.5278,-4.4662,-4.2777,0.0,0.0,0.0,0.0,-4.6374,-4.849,-4.8779,-4.8779,-4.8779,-4.8567,-4.8432,-4.8432,-4.7682,-4.7115,-4.6904,-4.6297,-4.5528,-4.4662,-4.4412,-4.3124,-4.0631,0.0,0.0,0.0,0.0,0.0,0.0,0.0,0.0,0.0,0.0,0.0,0.0,0.0,0.0,0.0,0.0,0.0,0.0,0.0,0.0,0.0,0.0,0.0,0.0,0.0,0.0,0.0,0.0,0.0,-4.5918,-4.7578,0.0,0.0,0.0,0.0,-4.2324,-4.3066,-4.5019,-4.834,-4.9336,-5.0957,-5.3476,-5.3594,-5.3672,-5.3808,-5.3847,-5.382,-5.3727,-5.3766,-5.3717,-5.3597,-5.3597,-5.3521,-5.3417,-5.3676,-5.3674,-5.339,-5.1451,-5.0215,-4.9225,-4.5971,-4.5122,-4.5644,-4.4857,-4.5106,-4.6013,-4.7551,-4.8121,-4.8157,-4.8022,-4.7961,-4.7471,-4.5028,-4.4201,0.0,0.0,-4.2912,-4.4374,-4.5306,-4.674,-4.8009,-4.8086,-4.8105,-4.8105,-4.8105,-4.8759,-4.9048,0.0,-4.7913,-4.7105,-4.4605,0.0,-4.7221,-4.5748,-4.7586,-4.949,-5.0462,-5.0577,-5.0577,-5.0577,-4.9817,-4.9336,-4.9336,-4.8548,-4.7721,-4.6942,-4.6846,-4.6432,-4.5575,-4.4739,-4.422,-4.4047,-4.167,0.0,0.0,0.0,0.0,0.0,0.0,0.0,0.0,0.0,0.0,0.0,0.0,0.0,0.0,0.0,0.0,0.0,0.0,0.0,0.0,0.0,0.0,0.0,0.0,0.0,0.0,0.0,0.0,-4.6894,-4.7187,0.0,0.0,-4.7519,-4.748,-4.7422,-4.9238,-5.0879,-5.2129,-5.248,-5.3066,-5.3965,-5.4004,-5.4277,-5.4824,-5.4844,-5.5052,-5.5472,-5.5472,-5.5329,-5.5084,-5.5084,-5.5119,-5.519,-5.5075,-5.49,-5.4637,-5.3818,-5.3096,-5.2381,-5.1156,-5.0864,-5.1117,-5.0806,-5.0475,-5.0254,-5.0801,-5.0542,-4.995,-4.9824,-4.976,-4.9606,-4.8682,-4.8422,-4.8279,-4.7702,-4.7952,-4.8499,-4.8807,-4.9327,-4.976,-4.976,-4.976,-4.976,-4.976,-5.001,-5.0144,-4.9817,-4.976,-4.9471,-4.8576,-4.9163,-4.9567,-4.898,-4.9673,-5.0346,-5.0654,-5.0712,-5.0712,-5.0712,-5.0423,-5.025,-5.025,-4.9433,-4.8817,-4.8529,-4.799,-4.7298,-4.6471,-4.6144,-4.5451,-4.4316,-4.3412,-4.147,0.0,0.0,0.0,0.0,0.0,0.0,0.0,0.0,0.0,0.0,0.0,0.0,0.0,0.0,0.0,0.0,0.0,0.0,0.0,0.0,0.0,0.0,0.0,0.0,0.0,0.0,-4.6406,-4.7871,-4.8281,-4.8906,-5.0078,-5.0449,-5.0859,-5.1445,-5.3047,-5.4121,-5.4414,-5.4433,-5.457,-5.4863,-5.4821,-5.5114,-5.5723,-5.5653,-5.5855,-5.6328,-5.6253,-5.609,-5.5824,-5.5824,-5.591,-5.6035,-5.5921,-5.5766,-5.5597,-5.5516,-5.5238,-5.4824,-5.4238,-5.4004,-5.4004,-5.4004,-5.357,-5.2983,-5.2902,-5.2355,-5.1664,-5.1568,-5.1529,-5.1529,-5.1529,-5.1529,-5.1529,-5.1529,-5.1529,-5.1529,-5.1529,-5.1529,-5.1529,-5.1529,-5.1529,-5.1529,-5.1529,-5.1529,-5.1529,-5.1529,-5.1097,-5.0519,-4.9913,-4.9817,-4.9721,-4.9452,-4.9173,-4.9096,-4.9375,-4.9644,-4.9817,-4.9817,-5.0346,-5.0712,-5.0712,-4.9625,-4.9086,-4.9375,-4.8336,-4.7586,-4.7317,-4.649,-4.549,-4.4316,-4.3181,-4.1508,-3.9277,0.0,0.0,0.0,0.0,0.0,0.0,0.0,0.0,0.0,0.0,0.0,0.0,0.0,0.0,0.0,0.0,0.0,0.0,0.0,0.0,0.0,0.0,0.0,-4.5019,-4.6621,-4.8047,-4.8926,-5.1211,-5.2734,-5.2734,-5.3535,-5.4043,-5.4043,-5.4062,-5.4453,-5.5293,-5.5371,-5.5762,-5.6601,-5.654,-5.6536,-5.6679,-5.6406,-5.6289,-5.6264,-5.6073,-5.5921,-5.578,-5.578,-5.5791,-5.5803,-5.6102,-5.6225,-5.6251,-5.6484,-5.6582,-5.6426,-5.4746,-5.4082,-5.4082,-5.4082,-5.4043,-5.398,-5.3697,-5.341,-5.3203,-5.3203,-5.3203,-5.3203,-5.3203,-5.3203,-5.3203,-5.3203,-5.3203,-5.3203,-5.3203,-5.3203,-5.3203,-5.3203,-5.3203,-5.3203,-5.3203,-5.3203,-5.3203,-5.3203,-5.1895,-5.024,-4.8548,-4.8259,-4.799,-4.7212,-4.6374,0.0,-4.699,-4.7759,-4.8202,-4.8144,-4.9683,-5.0673,-5.0616,-4.9125,-4.8548,-4.9394,-4.7913,-4.7355,-4.8105,-4.5778,-4.4432,-4.4374,-4.1104,-4.02,-4.1788,0.0,0.0,0.0,0.0,0.0,0.0,0.0,0.0,0.0,0.0,0.0,0.0,0.0,0.0,0.0,0.0,0.0,0.0,0.0,0.0,0.0,0.0,-4.8281,-4.7871,-4.9297,-5.0683,-5.1543,-5.2832,-5.3633,-5.3633,-5.4433,-5.4941,-5.4941,-5.5527,-5.5996,-5.623,-5.6836,-5.7305,-5.7539,-5.7983,-5.8231,-5.8267,-5.8096,-5.7968,-5.7881,-5.7799,-5.7708,-5.7588,-5.7588,-5.7638,-5.7697,-5.7061,-5.6885,-5.7028,-5.6522,-5.6371,-5.6421,-5.6033,-5.5898,-5.5879,-5.5785,-5.5216,-5.4399,-5.3591,-5.3263,-5.3203,-5.3203,-5.3203,-5.3203,-5.3203,-5.3203,-5.3203,-5.3203,-5.3203,-5.3203,-5.3203,-5.3203,-5.3203,-5.3203,-5.3203,-5.3203,-5.3203,-5.3203,-5.3203,-5.3203,-5.2837,-5.2356,-5.1875,-5.1798,-5.1722,-5.151,0.0,0.0,-5.1452,-5.1096,-5.0385,-4.9163,-5.0029,-5.0192,-4.8913,-4.9529,-5.0087,0.0,-4.9913,-4.9471,-4.9067,-4.8375,-4.7432,-4.622,-4.347,-4.197,0.0,0.0,0.0,0.0,0.0,0.0,0.0,0.0,0.0,0.0,0.0,0.0,0.0,0.0,0.0,0.0,0.0,0.0,0.0,0.0,0.0,0.0,-4.8672,-5.0781,-5.0996,-5.1875,-5.2676,-5.3183,-5.4004,-5.4531,-5.4531,-5.5332,-5.5996,-5.6367,-5.6855,-5.7305,-5.7676,-5.8164,-5.8417,-5.833,-5.8643,-5.8847,-5.8903,-5.8655,-5.8545,-5.8586,-5.8477,-5.8373,-5.83,-5.83,-5.8349,0.0,-5.7918,-5.7765,-5.7819,-5.7473,-5.7139,0.0,0.0,0.0,0.0,0.0,-5.5977,-5.5312,-5.4583,-5.4332,-5.4313,-5.4282,-5.4241,-5.4241,-5.4241,-5.4241,-5.4241,-5.4241,-5.4241,-5.4241,-5.4241,-5.4241,-5.4241,-5.4241,-5.4241,-5.4241,-5.4241,-5.4241,-5.4241,-5.4241,0.0,0.0,-5.4241,-5.3087,-5.2029,-5.1664,-5.1298,-5.1202,0.0,-5.1491,-5.1029,-5.0048,-5.0702,-5.0798,-4.9769,-4.9644,0.0,0.0,0.0,-4.9221,-4.8394,-4.8355,0.0,0.0,0.0,-4.3028,0.0,0.0,0.0,0.0,-3.913,-3.7969,0.0,0.0,0.0,0.0,0.0,0.0,0.0,0.0,0.0,0.0,0.0,0.0,0.0,0.0,0.0,0.0,-5.0117,-5.2383,-5.3926,-5.4238,-5.4258,-5.416,-5.4922,-5.5488,-5.5586,-5.6289,-5.7109,-5.7988,-5.8047,-5.8379,-5.916,0.0,0.0,0.0,0.0,-5.9051,-5.916,-5.8772,-5.8703,-5.894,-5.8713,-5.8588,-5.8588,-5.8602,-5.8594,-5.8608,-5.8775,-5.8765,-5.8659,-5.8807,-5.8359,-5.7498,-5.6836,-5.6541,-5.6515,-5.6419,-5.6345,0.0,0.0,0.0,0.0,-5.5748,-5.5703,-5.5703,-5.5703,-5.5703,-5.5703,-5.5703,-5.5703,-5.5703,-5.5703,-5.5703,-5.5703,-5.5703,-5.5703,-5.5703,-5.5703,-5.5703,-5.5703,-5.5703,-5.5703,-5.5703,-5.5703,-5.3222,-5.1,-5.0221,-4.9452,0.0,-5.001,-5.0702,-5.1058,-5.0866,0.0,0.0,-5.1635,-4.9712,-4.9144,-5.0616,-4.924,-4.8067,-4.7355,-4.724,-4.6124,-4.3855,-4.3701,-4.4028,-4.472,-4.472,-4.5124,-4.5759,-4.0858,-3.9487,0.0,0.0,0.0,0.0,0.0,0.0,0.0,0.0,0.0,0.0,0.0,0.0,0.0,0.0,0.0,-4.9492,-5.2422,-5.4668,-5.5,-5.5644,-5.584,-5.5137,-5.582,-5.6621,-5.7324,-5.7558,-5.8008,-5.8887,-5.8945,-5.9023,-5.9199,-5.9824,0.0,-6.0115,-6.0555,-6.0814,-6.0842,-6.049,-6.0338,-6.0389,0.0,0.0,-6.0312,-6.0432,-6.0489,-6.0449,-5.9963,-5.9665,-5.9512,-5.8964,-5.8689,-5.8474,-5.7004,-5.627,-5.6045,-5.6183,-5.6071,-5.5826,-5.5759,-5.5748,-5.5738,-5.5705,-5.5703,-5.5703,-5.5703,-5.5703,0.0,-5.5703,-5.5703,-5.5703,-5.5703,-5.5703,-5.5703,-5.5703,-5.5703,-5.5703,-5.5703,-5.5703,-5.5703,-5.5703,-5.5703,-5.5703,-5.5703,-5.5164,-5.4684,-5.4511,-5.4337,-5.428,-5.4453,-5.4049,-5.3222,-5.1818,-5.2452,-5.2125,-5.0067,-5.0683,-5.1029,-5.0731,-5.0385,-5.0135,-4.9971,-4.9279,-4.8682,-4.8182,-4.749,-4.7221,-4.7375,-4.7375,-4.7451,-4.7567,-4.5175,-4.4271,0.0,0.0,0.0,0.0,0.0,0.0,0.0,0.0,0.0,0.0,0.0,-4.5273,0.0,0.0,-5.0449,-5.1308,-5.3613,-5.5449,-5.5898,-5.6328,-5.6445,-5.5996,-5.6719,-5.7422,-5.7851,-5.8281,-5.8906,-5.9746,-5.9805,-5.998,-6.043,-6.082,-6.1014,-6.0942,-6.1251,-6.1379,-6.1309,-6.1124,-6.1055,-6.1055,-6.1055,-6.1055,-6.1055,-6.1112,-6.1158,-6.1153,-6.0872,-6.0681,-6.0492,-5.969,-5.9343,-5.9238,-5.8093,-5.7295,-5.6756,-5.6347,-5.6091,-5.593,-5.5768,-5.5808,-5.593,-5.5758,-5.5739,-5.5779,-5.5726,-5.5703,-5.5703,-5.5703,-5.5703,-5.5703,-5.5703,-5.5703,-5.5703,-5.5703,-5.5703,-5.5703,-5.5703,-5.5703,-5.5703,-5.5703,-5.5703,-5.5703,-5.5703,-5.5703,-5.5703,-5.5703,-5.5703,-5.5703,-5.5703,-5.5338,-5.4761,-5.3895,-5.3837,-5.3337,-5.2068,-5.1933,-5.1568,-5.075,-5.0712,-5.0712,-5.0712,-5.0289,-5.0048,-5.0048,-4.9625,-4.9183,-4.8759,-4.8759,-4.8529,-4.8086,-4.724,-4.6855,0.0,0.0,0.0,0.0,0.0,0.0,0.0,0.0,-4.5254,-4.7148,-4.7539,-4.7812,-4.8672,-5.0664,-5.2383,-5.3086,-5.4531,-5.5801,-5.6504,-5.6758,-5.6855,-5.6855,-5.7461,-5.8027,-5.8359,-5.9023,-5.9765,-6.0586,-6.0644,-6.0957,-6.166,-6.1699,-6.1656,-6.1544,-6.1512,-6.1448,-6.1334,-6.1301,-6.1303,-6.1303,-6.1303,-6.1303,-6.1309,-6.1337,-6.1348,-6.1334,-6.1451,-6.144,-6.1289,-6.0547,-6.021,-6.0078,-5.942,-5.8755,-5.8041,-5.687,-5.643,-5.6372,-5.5892,-5.5943,-5.6146,-5.5844,-5.5807,-5.5874,-5.5729,-5.5703,-5.5703,-5.5703,-5.5703,-5.5703,-5.5703,-5.5703,-5.5703,-5.5703,-5.5703,-5.5703,-5.5703,-5.5703,-5.5703,-5.5703,-5.5703,-5.5703,-5.5703,-5.5703,-5.5703,-5.5703,-5.5703,-5.5703,-5.5703,-5.5703,-5.5703,-5.5703,-5.5126,-5.4664,-5.4511,-5.2895,-5.1625,-5.0971,-5.0789,-5.0712,-5.0712,-5.0712,-5.0712,-5.0712,-5.0712,-5.0346,-4.9644,-4.9644,-4.9298,-4.8606,-4.8606,-4.8413,-4.418,-4.3759,-4.3825,-4.3894,-4.4809,-4.6202,0.0,0.0,-4.9023,-5.1484,-5.1973,-5.2246,-5.3125,-5.4141,-5.4902,-5.498,-5.582,-5.6484,-5.6582,-5.7265,-5.7754,-5.7754,-5.7832,-5.8476,-5.998,-6.0215,-6.0625,-6.1484,-6.1543,-6.1601,-6.1699,-6.1699,-6.1699,-6.1679,-6.1553,-6.1498,-6.1488,-6.1349,-6.1303,-6.1303,-6.1303,-6.1303,-6.1289,-6.1428,-6.1488,-6.1469,-6.1498,-6.1498,-6.1462,-6.1247,-6.1218,-6.1224,-6.0383,-6.0001,-5.9706,-5.7926,-5.7272,-5.7128,-5.6203,-5.6017,-5.6164,-5.5944,-5.5899,-5.5874,-5.5729,-5.5703,-5.5703,-5.5703,-5.5703,-5.5703,-5.5703,-5.5703,-5.5703,-5.5703,-5.5703,-5.5703,-5.5703,-5.5703,-5.5703,-5.5703,-5.5703,-5.5703,-5.5703,-5.5703,-5.5703,-5.5703,-5.5703,-5.5703,-5.5703,-5.5703,-5.5703,-5.5703,-5.5607,-5.528,-5.4549,-5.2895,-5.1865,-5.1769,-5.1106,-5.0712,-5.0712,-5.0712,-5.0712,-5.0712,-5.0712,-5.0654,-5.0558,-5.0558,-5.05,-5.0423,-5.0423,-4.9586,-4.5742,-4.5564,-4.5616,0.0,-4.7922,-4.8315,-5.0586,-5.1113,-5.1562,-5.3125,-5.3867,-5.4316,-5.4687,-5.5469,-5.6055,0.0,-5.6367,-5.6601,-5.6601,-5.7344,-5.8086,-5.8594,-5.9062,-5.9629,-6.0332,-6.0859,-6.1308,-6.168,-6.1699,-6.1699,-6.1699,-6.2187,-6.2461,-6.2461,-6.2886,-6.3084,-6.3009,-6.302,-6.275,-6.2169,-6.2242,-6.203,-6.1522,-6.1584,-6.161,-6.161,-6.161,-6.1577,-6.1504,-6.1517,-6.1515,-6.1468,-6.1172,-6.1065,-6.0846,-5.8972,-5.7901,-5.7339,-5.6919,-5.6567,-5.6269,-5.5984,-5.5981,-5.6037,-5.5779,-5.5703,-5.5703,-5.5703,-5.5703,-5.5703,-5.5703,-5.5703,-5.5703,-5.5703,-5.5703,-5.5703,-5.5703,-5.5703,-5.5703,-5.5703,-5.5703,-5.5703,-5.5703,-5.5703,-5.5703,-5.5703,-5.5703,-5.5703,-5.5703,-5.5703,-5.5703,-5.5703,-5.5703,-5.5376,-5.4568,-5.3837,-5.3203,-5.2692,-5.1856,-5.1395,-5.1395,-5.0952,-5.0712,-5.0712,-5.0712,-5.0712,-5.0712,-5.0712,-5.0712,-5.0712,-5.0712,-5.0308,-4.6208,-4.6536,0.0,-5.0211,-5.0446,-5.0447,-5.2578,-5.3066,-5.3301,-5.418,-5.4863,-5.5371,-5.5605,-5.6172,-5.6601,-5.6601,-5.6601,-5.668,-5.6914,-5.7715,-5.8574,-5.9433,-6.0254,-6.0762,-6.0762,-6.1328,-6.1699,-6.1699,-6.1699,-6.1797,-6.2051,-6.2656,-6.3105,-6.3359,-6.3965,-6.4255,-6.415,-6.4255,-6.3923,-6.3213,-6.3063,-6.2676,-6.2051,-6.1816,-6.1699,-6.1699,-6.1699,-6.1636,-6.1553,-6.1658,-6.1636,-6.1555,-6.1658,-6.1699,-6.1543,-6.016,-5.9065,-5.8168,-5.7667,-5.7196,-5.6731,-5.6214,-5.6144,-5.6197,-5.5852,-5.5759,-5.5749,-5.5705,-5.5703,-5.5703,-5.5703,-5.5703,-5.5703,-5.5703,-5.5703,-5.5703,-5.5703,-5.5703,-5.5703,-5.5703,-5.5703,-5.5703,-5.5703,-5.5703,-5.5703,-5.5703,-5.5703,-5.5703,-5.5703,-5.5703,-5.5703,-5.5703,-5.5703,-5.5453,-5.4876,-5.4626,-5.4222,-5.3606,-5.2741,-5.2154,-5.1904,-5.1337,-5.0933,-5.0712,-5.0712,-5.0712,-5.0712,-5.0712,-5.0712,-5.0712,-5.0712,-5.0712,-4.4497,-4.5481,-4.6664,-4.9369,-5.1232,-5.2665,-5.3729,-5.3965,-5.4219,-5.5078,-5.5273,-5.5566,-5.6406,-5.6582,-5.6601,-5.6601,-5.6601,-5.6894,-5.7734,-5.8613,-5.9453,-6.0273,-6.1133,-6.166,0.0,-6.168,-6.1699,-6.1699,-6.1699,-6.207,-6.293,-6.2988,-6.3398,-6.4238,-6.4297,-6.4297,-6.4297,-6.4297,-6.4277,-6.4238,-6.3398,-6.2988,-6.293,-6.209,-6.1699,-6.1699,-6.1699,-6.1699,-6.1699,-6.1699,-6.1699,-6.1699,-6.1699,-6.1699,-6.1699,-6.164,-6.1054,-6.0057,-5.8304,-5.7755,-5.7694,-5.6719,-5.6386,-5.6335,-5.5991,-5.5888,-5.5866,-5.5738,-5.5703,-5.5703,-5.5703,-5.5703,-5.5703,-5.5703,-5.5703,-5.5703,-5.5703,-5.5703,-5.5703,-5.5703,-5.5703,-5.5703,-5.5703,-5.5703,-5.5703,-5.5703,-5.5703,-5.5703,-5.5703,-5.5703,-5.5703,-5.5703,-5.5703,-5.5684,-5.5665,-5.4953,-5.4491,-5.4453,-5.3645,-5.2779,-5.1923,-5.1885,-5.151,-5.0731,-5.0712,-5.0712,-5.0712,-5.0712,-5.0712,-5.0712,-5.0712,-5.0712,-4.6117,-4.7549,-4.909,-5.126,-5.2576,-5.3635,-5.4628,-5.4863,-5.5117,-5.5976,-5.5234,-5.4531,-5.4824,-5.4394,-5.4199,-5.4785,-5.5351,-5.623,-5.7695,-5.8652,-5.9492,-6.0293,-6.1172,0.0,0.0,0.0,0.0,-6.1699,-6.2246,-6.2695,-6.2988,-6.4101,-6.4863,-6.5156,-6.5723,-6.6035,-6.6035,-6.6035,-6.5723,-6.5156,-6.3691,-6.2695,-6.2129,-6.1836,-6.1699,-6.1699,-6.1699,-6.1699,-6.1699,-6.1699,-6.1699,-6.1699,-6.1699,-6.1699,-6.1699,-6.1699,-6.1504,-6.1094,-5.9899,-5.8787,-5.7831,-5.7408,-5.6879,-5.6352,-5.6156,-5.6097,-5.6058,-5.5874,-5.5824,-5.5807,-5.5717,-5.5703,-5.5703,-5.5703,-5.5703,-5.5703,-5.5703,-5.5703,-5.5703,-5.5703,-5.5703,-5.5703,-5.5703,-5.5703,-5.5703,-5.5703,-5.5703,-5.5703,-5.5703,-5.5703,-5.5703,-5.5703,-5.5703,-5.5703,-5.5703,-5.5453,-5.5299,-5.5299,-5.4511,-5.3933,-5.3645,-5.3068,-5.2356,-5.151,-5.151,-5.1221,-5.0712,-5.0712,-5.0712,-5.0712,-5.0712,-5.0712,-4.716,-4.8872,-5.0525,-5.2957,-5.3951,-5.4569,-5.5498,-5.5721,-5.5722,-5.5568,-5.4467,-5.3339,-5.2691,-5.2147,-5.2187,-5.3359,-5.4277,-5.5664,-5.8027,-5.8848,-5.9609,-6.0723,-6.1367,0.0,0.0,0.0,0.0,-6.1699,-6.2519,-6.3144,-6.3457,-6.4824,-6.5742,-6.6055,-6.6601,-6.6894,-6.6894,-6.6894,-6.6308,-6.5117,-6.4004,-6.2832,-6.1699,-6.1699,-6.1699,-6.1699,-6.1699,-6.1699,-6.1699,-6.1699,-6.1699,-6.1699,-6.1699,-6.1699,-6.1699,-6.1699,-6.1699,-6.1582,-6.0703,-5.9512,-5.83,-5.7896,-5.7184,-5.6452,-5.6313,-5.626,-5.6227,-5.5981,-5.5896,-5.5866,-5.5738,-5.5703,-5.5703,-5.5703,-5.5703,-5.5703,-5.5703,-5.5703,-5.5703,-5.5703,-5.5703,-5.5703,-5.5703,-5.5703,-5.5703,-5.5703,-5.5703,-5.5703,-5.5703,-5.5703,-5.5703,-5.5703,-5.5703,-5.5703,-5.5703,-5.5703,-5.5703,-5.5703,-5.5203,-5.4799,-5.4511,-5.3953,-5.326,-5.2385,-5.2365,-5.2106,-5.1587,-5.1587,-5.1433,-5.1125,-5.1125,-5.1125,-4.7694,-4.9518,-5.0974,-5.4279,-5.5214,-5.5522,-5.6224,-5.6429,-5.5889,-5.3946,-5.2947,-5.1892,0.0,0.0,-5.0664,-5.2305,-5.3418,-5.5254,-5.8652,-5.918,-5.9805,0.0,0.0,0.0,0.0,0.0,0.0,-6.1699,0.0,-6.3437,-6.4258,-6.5176,-6.6055,-6.6875,-6.6894,-6.6894,-6.6894,-6.6894,-6.6035,-6.4297,-6.4297,-6.3398,-6.1699,-6.1699,-6.1699,-6.1699,-6.1699,-6.1699,-6.1699,-6.1699,-6.1699,-6.1699,-6.1699,-6.1699,-6.1699,-6.1699,-6.1699,-6.1582,-6.0742,-5.9902,-5.9062,-5.8242,-5.7344,-5.6581,-5.6452,-5.6414,-5.6345,-5.6019,-5.592,-5.5883,-5.5739,-5.5714,-5.5703,-5.5703,-5.5703,-5.5703,-5.5703,-5.5703,-5.5703,-5.5703,-5.5703,-5.5703,-5.5703,-5.5703,-5.5703,-5.5703,-5.5703,-5.5703,-5.5703,-5.5703,-5.5703,-5.5703,-5.5703,-5.5703,-5.5703,-5.5703,-5.5703,-5.5703,-5.5703,-5.5357,-5.4587,-5.4549,-5.4145,-5.328,-5.328,-5.3241,-5.3203,-5.3203,-5.2769,-5.1962,-5.1962,-5.1962,-5.0443,-5.2022,-5.3044,-5.4562,-5.535,-5.5841,-5.6169,-5.5279,-5.4059,-5.2997,-5.0635,-4.844,0.0,0.0,0.0,-5.0664,-5.3164,0.0,-5.793,-5.8789,0.0,-6.0605,0.0,-6.1699,-6.1699,-6.1699,0.0,0.0,-6.3105,-6.4062,-6.4297,-6.5742,-6.668,-6.6894,-6.6894,-6.6894,-6.6894,-6.6894,-6.6035,-6.4297,-6.4297,-6.3398,-6.1699,-6.1699,-6.1699,-6.1699,-6.1699,-6.1699,-6.1699,-6.1699,-6.1699,-6.1699,-6.1699,-6.1699,-6.1699,-6.1699,-6.1699,-6.168,-6.1445,-6.043,-5.916,-5.8945,-5.7832,-5.6582,-5.656,-5.6559,-5.6514,-5.6319,-5.6198,-5.6078,-5.5891,-5.5779,-5.5703,-5.5703,-5.5703,-5.5703,-5.5703,-5.5703,-5.5703,-5.5703,-5.5703,-5.5703,-5.5703,-5.5703,-5.5703,-5.5703,-5.5703,-5.5703,-5.5703,-5.5703,-5.5703,-5.5703,-5.5703,-5.5703,-5.5703,-5.5703,-5.5703,-5.5703,-5.5703,-5.5607,-5.5395,-5.5395,-5.5011,-5.4184,-5.4164,-5.3857,-5.3203,-5.3203,-5.3087,-5.2876,-5.2876,-5.2876,-5.2011,-5.3303,-5.4024,-5.5085,-5.5734,-5.5833,-5.4736,-5.3779,-5.2458,-5.01,-4.786,0.0,-4.6154,-4.6969,0.0,0.0,0.0,0.0,-5.7597,-5.8652,-5.9492,0.0,-6.1172,0.0,-6.1699,-6.1699,-6.1699,0.0,-6.3301,-6.4297,-6.4297,-6.5957,-6.6894,-6.6894,-6.6894,-6.6894,-6.6894,-6.6523,-6.5644,-6.4297,-6.3906,-6.3027,-6.1699,-6.1699,-6.1699,-6.1699,0.0,-6.1699,-6.1699,-6.1699,-6.1699,-6.1699,-6.1699,-6.1699,-6.1699,-6.1699,-6.1699,-6.1699,-6.1699,-6.0605,-5.9199,-5.9199,-5.8027,-5.6601,-5.6601,-5.6601,-5.6561,-5.6448,-5.6358,-5.6232,-5.5974,-5.5842,-5.5779,-5.5716,-5.5703,-5.5703,-5.5703,-5.5703,-5.5703,-5.5703,-5.5703,-5.5703,-5.5703,-5.5703,-5.5703,-5.5703,-5.5703,-5.5703,-5.5703,-5.5703,-5.5703,-5.5703,-5.5703,-5.5703,-5.5703,-5.5703,-5.5703,-5.5703,-5.5703,-5.5703,-5.5703,-5.5703,-5.5491,-5.503,-5.503,-5.478,-5.4299,-5.4299,-5.4126,-5.378,-5.378,-5.378,-5.2654,-5.371,-5.4259,-5.5463,-5.6075,-5.5652,-5.2928,-5.2228,-5.0924,-4.6643,0.0,-4.4871,-4.5632,-4.5949,-4.7496,-5.1796,0.0,-5.4682,-5.7321,-5.8534,-5.9433,-6.0156,-6.1094,-6.1699,-6.1699,-6.1699,-6.1699,-6.1699,-6.3301,-6.4297,-6.4297,-6.5957,-6.6894,-6.6894,-6.6894,-6.6836,-6.6738,-6.5976,-6.5098,-6.4121,-6.3359,-6.2539,-6.1699,-6.1699,-6.1699,-6.1699,0.0,0.0,-6.1699,-6.1699,-6.1699,-6.1699,-6.1699,-6.1699,-6.1699,-6.1699,-6.1699,-6.168,-6.1562,-6.0508,-5.9199,-5.9199,-5.8027,-5.6601,-5.6601,-5.6601,-5.6581,-5.6456,-5.6416,-5.6335,-5.6019,-5.592,-5.5866,-5.5738,-5.5703,-5.5703,-5.5703,-5.5703,-5.5703,-5.5703,-5.5703,-5.5703,-5.5703,-5.5703,-5.5703,-5.5703,-5.5703,-5.5703,-5.5703,-5.5703,-5.5703,-5.5703,-5.5703,-5.5703,-5.5703,-5.5703,-5.5703,-5.5703,-5.5703,-5.5703,-5.5703,-5.5703,-5.5703,-5.5703,-5.5703,-5.5703,-5.5703,-5.5703,-5.5338,-5.4664,-5.4664,-5.4664,-5.2347,-5.3242,-5.4039,-5.4868,-5.5661,-5.5536,-5.2902,-5.1245,0.0,0.0,-4.3812,-4.3256,-4.4855,-4.5679,-4.7509,-5.1798,-5.3132,-5.4348,-5.636,-5.797,-5.9062,0.0,0.0,0.0,0.0,0.0,0.0,0.0,0.0,0.0,-6.4297,-6.5957,-6.6894,-6.6894,-6.6894,-6.6543,-6.582,-6.5683,-6.4805,-6.3223,-6.3066,-6.2539,-6.1699,-6.1699,-6.1699,-6.1699,0.0,0.0,-6.1699,-6.1699,-6.1699,-6.1699,-6.1699,-6.1699,-6.1699,-6.1699,-6.1699,-6.1601,-6.0879,-6.0,-5.9199,-5.9199,-5.8027,-5.6601,-5.6601,-5.6601,-5.6601,-5.6561,-5.6486,-5.6368,-5.6197,-5.6024,-5.5866,-5.5738,-5.5703,-5.5703,-5.5703,-5.5703,-5.5703,-5.5703,-5.5703,-5.5703,-5.5703,-5.5703,-5.5703,-5.5703,-5.5703,-5.5703,-5.5703,-5.5703,-5.5703,-5.5703,-5.5703,-5.5703,-5.5703,-5.5703,-5.5703,-5.5703,-5.5703,-5.5703,-5.5703,-5.5703,-5.5703,-5.5703,-5.5703,-5.5703,-5.5703,-5.5703,-5.5626,-5.5491,-5.5491,-5.5491,-5.1182,-5.2173,-5.3387,-5.4071,-5.4597,-5.4036,-5.0552,0.0,0.0,0.0,-4.2291,-4.2371,-4.4494,-4.5178,0.0,-5.047,-5.2189,-5.3501,-5.4853,-5.6969,0.0,0.0,0.0,0.0,0.0,0.0,0.0,0.0,0.0,0.0,-6.4277,-6.5957,-6.6894,-6.6894,-6.6465,-6.6015,-6.5605,-6.4707,-6.3828,-6.2988,-6.2539,-6.2109,-6.1699,-6.1699,-6.1699,-6.1699,0.0,0.0,-6.1699,-6.1699,-6.1699,-6.1699,-6.1699,-6.1699,-6.1699,-6.1699,-6.1406,-6.0957,-6.0547,-5.957,-5.8515,-5.8515,-5.7656,-5.6601,-5.6601,-5.6601,-5.6601,-5.6601,-5.656,-5.6462,-5.6335,-5.6177,-5.601,-5.5833,-5.5749,-5.5703,-5.5703,-5.5703,-5.5703,-5.5703,-5.5703,-5.5703,-5.5703,-5.5703,-5.5703,-5.5703,-5.5703,-5.5703,-5.5703,-5.5703,-5.5703,-5.5703,-5.5703,-5.5703,-5.5703,-5.5703,-5.5703,-5.5703,-5.5703,-5.5703,-5.5703,-5.5703,-5.5703,-5.5703,-5.5703,-5.5703,-5.5703,-5.5703,-5.5703,-5.5703,-5.5703,-5.5703,-5.0323,-5.1435,-5.2809,-5.3283,-5.3631,-5.2718,-4.8417,-4.744,0.0,-4.2069,-4.1191,-4.1951,-4.438,-4.4536,-4.5423,0.0,-5.0587,-5.1862,-5.3313,-5.5709,0.0,0.0,0.0,0.0,0.0,0.0,0.0,0.0,0.0,0.0,0.0,-6.5703,-6.6426,-6.6621,-6.5781,-6.5234,-6.5039,-6.3672,-6.291,-6.2715,-6.2031,-6.1699,-6.1699,-6.1699,-6.1699,-6.1699,0.0,0.0,0.0,-6.1699,-6.1699,-6.1699,-6.1699,-6.1699,-6.168,-6.1484,-6.0996,-6.0351,-5.998,-5.9004,-5.7871,-5.7676,-5.7168,-5.6601,-5.6601,-5.6601,-5.6601,-5.6601,-5.6601,-5.6561,-5.6426,-5.6305,-5.6146,-5.5915,-5.5779,-5.5703,-5.5703,-5.5703,-5.5703,-5.5703,-5.5703,-5.5703,-5.5703,-5.5703,-5.5703,-5.5703,-5.5703,-5.5703,-5.5703,-5.5703,-5.5703,-5.5703,-5.5703,-5.5703,-5.5703,-5.5703,-5.5703,-5.5703,-5.5703,-5.5703,-5.5703,-5.5703,-5.5703,-5.5703,-5.5703,-5.5703,-5.5703,-5.5703,-5.5703,-5.5703,-5.5703,-5.5703,-5.0837,-5.1972,-5.2715,-5.2772,-5.3397,-5.2851,-4.8554,0.0,-4.6367,-4.207,-4.1191,-4.1973,-4.4511,-4.3635,-4.3909,-4.8112,-4.8168,-4.8829,-5.2141,0.0,0.0,0.0,0.0,0.0,0.0,0.0,0.0,0.0,0.0,0.0,0.0,-6.4883,-6.4902,-6.5683,-6.4863,-6.4043,-6.3242,-6.3086,-6.2598,-6.1816,-6.1738,-6.1699,-6.1699,-6.1699,-6.1699,-6.1699,0.0,0.0,0.0,-6.1699,-6.1699,-6.1699,-6.1699,-6.1699,-6.1601,-6.0801,-6.0469,-6.0176,-5.8652,-5.8027,-5.7773,-5.6973,-5.668,-5.6601,-5.6601,-5.6601,-5.6601,-5.6601,-5.6601,-5.6561,-5.6426,-5.6305,-5.6116,-5.5808,-5.5705,-5.5703,-5.5703,-5.5703,-5.5703,-5.5703,-5.5703,-5.5703,-5.5703,-5.5703,-5.5703,-5.5703,-5.5703,-5.5703,-5.5703,-5.5703,-5.5703,-5.5703,-5.5703,-5.5703,-5.5703,-5.5703,-5.5703,-5.5703,-5.5703,-5.5703,-5.5703,-5.5703,-5.5703,-5.5703,-5.5703,-5.5703,-5.5703,-5.5703,-5.5703,-5.5703,-5.5703,-5.5703,-4.8418,-5.0098,-5.1914,-5.1914,-5.2578,-5.209,-4.7793,0.0,-4.6387,-4.207,-4.1191,-4.1504,-4.2539,-4.2127,-4.2349,-4.4504,-4.5425,-4.7071,-5.0501,0.0,0.0,0.0,0.0,0.0,0.0,0.0,0.0,0.0,0.0,0.0,0.0,-6.4199,-6.4453,-6.4805,-6.3965,-6.3359,-6.3008,-6.248,-6.2031,-6.1699,-6.1699,-6.1699,-6.1699,-6.1699,-6.1699,-6.1699,0.0,0.0,0.0,-6.1699,-6.1699,-6.1699,-6.1699,-6.1387,-6.0879,-6.0527,-5.9765,-5.8808,-5.8125,-5.7558,-5.7051,-5.6719,-5.6601,-5.6601,-5.6601,-5.6601,-5.6601,-5.6601,-5.6601,-5.6582,-5.6537,-5.6421,-5.6242,-5.5899,-5.5825,-5.5798,-5.5726,-5.5703,-5.5703,-5.5703,-5.5703,-5.5703,-5.5703,-5.5703,-5.5703,-5.5703,-5.5703,-5.5703,-5.5703,-5.5703,-5.5703,-5.5703,-5.5703,-5.5703,-5.5703,-5.5703,-5.5703,-5.5703,-5.5703,-5.5703,-5.5703,-5.5703,-5.5703,-5.5703,-5.5703,-5.5703,-5.5703,-5.5703,-5.5703,-5.5703,-5.5703,-5.5703,-4.7051,-4.8828,-5.0781,-5.1289,-5.168,-5.0976,0.0,0.0,-4.5762,-4.1973,-4.1191,-4.1191,-4.1191,-4.1191,-4.1366,-4.1896,-4.3238,-4.5233,-4.8128,-5.0504,0.0,0.0,0.0,0.0,0.0,0.0,0.0,0.0,0.0,0.0,0.0,-6.3203,-6.3652,-6.3906,-6.3066,-6.2617,-6.2617,-6.2012,-6.1699,-6.1699,-6.1699,-6.1699,-6.1699,-6.1699,-6.1699,0.0,0.0,0.0,0.0,-6.1699,-6.1699,-6.168,-6.1426,-6.0937,-6.0332,-5.9844,-5.8906,-5.7851,-5.7598,-5.7109,-5.6601,-5.6601,-5.6601,-5.6601,-5.6601,-5.6601,-5.6601,-5.6601,-5.6601,-5.6582,-5.6559,-5.6462,-5.6328,-5.5976,-5.5896,-5.5857,-5.5728,-5.5703,-5.5703,-5.5703,-5.5703,-5.5703,-5.5703,-5.5703,-5.5703,-5.5703,-5.5703,-5.5703,-5.5703,-5.5703,-5.5703,-5.5703,-5.5703,-5.5703,-5.5703,-5.5703,-5.5703,-5.5703,-5.5703,-5.5703,-5.5703,-5.5703,-5.5703,-5.5703,-5.5703,-5.5703,-5.5703,-5.5703,-5.5703,-5.5703,-5.5703,-5.5703,-4.7715,-4.8906,-4.9316,-5.0996,-5.0801,-4.9531,-4.6894,-4.5644,-4.4297,-4.1738,-4.1191,-4.1191,-4.1191,-4.1191,-4.1191,-4.1211,-4.1894,-4.3047,-4.4805,0.0,0.0,0.0,0.0,0.0,0.0,0.0,0.0,0.0,0.0,0.0,0.0,0.0,-6.2129,-6.2988,-6.2168,-6.1719,-6.1719,-6.1699,-6.1699,-6.1699,-6.1699,-6.1699,-6.1699,-6.1699,0.0,0.0,0.0,0.0,0.0,-6.1699,-6.1699,-6.1601,-6.0742,-6.041,-6.0195,-5.8535,-5.791,-5.7773,-5.6914,-5.6601,-5.6601,-5.6601,-5.6601,-5.6601,-5.6601,-5.6601,-5.6601,-5.6601,-5.6601,-5.6561,-5.6448,-5.6391,-5.6328,-5.5976,-5.5896,-5.5857,-5.5728,-5.5703,-5.5703,-5.5703,-5.5703,-5.5703,-5.5703,-5.5703,-5.5703,-5.5703,-5.5703,-5.5703,-5.5703,-5.5703,-5.5703,-5.5703,-5.5703,-5.5703,-5.5703,-5.5703,-5.5703,-5.5703,-5.5703,-5.5703,-5.5703,-5.5703,-5.5703,-5.5703,-5.5703,-5.5703,-5.5703,-5.5703,-5.5703,-5.5703,-5.5703,-5.5703,-4.3418,-4.4902,-4.6367,-4.6894,-4.7285,-4.7012,-4.498,-4.4766,-4.4277,-4.1738,-4.1191,-4.1191,-4.1191,-4.1191,-4.1387,-4.1933,-4.1777,-4.2793,0.0,0.0,0.0,0.0,0.0,0.0,0.0,0.0,0.0,0.0,0.0,0.0,0.0,0.0,-6.1836,-6.2109,-6.1836,-6.1699,-6.1699,-6.1699,-6.1699,-6.1699,-6.1699,-6.1699,-6.1699,-6.1699,0.0,0.0,0.0,0.0,0.0,-6.1699,-6.1348,-6.0781,-6.0508,-5.9707,-5.8633,-5.8105,-5.7519,-5.6973,-5.6699,-5.6601,-5.6601,-5.6601,-5.6601,-5.6601,-5.6601,-5.6601,-5.6601,-5.6601,-5.6601,-5.6582,-5.6558,-5.6537,-5.6488,-5.6297,-5.6172,-5.6051,-5.5885,-5.576,-5.5703,-5.5703,-5.5703,-5.5703,-5.5703,-5.5703,-5.5703,-5.5703,-5.5703,-5.5703,-5.5703,-5.5703,-5.5703,-5.5703,-5.5703,-5.5703,-5.5703,-5.5703,-5.5703,-5.5703,-5.5703,-5.5703,-5.5703,-5.5703,-5.5703,-5.5703,-5.5703,-5.5703,-5.5703,-5.5703,-5.5703,-5.5703,-5.5703,-5.5703,-4.1074,-4.2363,-4.3711,-4.4355,-4.4922,0.0,-4.3535,-4.3633,-4.3398,-4.1172,-4.0703,-4.0605,-4.0273,-4.0215,-4.0488,-4.1328,-4.1308,0.0,0.0,0.0,0.0,0.0,0.0,0.0,0.0,0.0,0.0,0.0,0.0,0.0,0.0,0.0,-6.1699,-6.1699,-6.1699,-6.1699,-6.1699,-6.1699,-6.1699,-6.1699,-6.1699,-6.1699,-6.1699,0.0,0.0,0.0,0.0,0.0,0.0,-6.1348,-6.0898,-6.0332,-5.9707,-5.8828,-5.7851,-5.7539,-5.707,-5.6601,-5.6601,-5.6601,-5.6601,-5.6601,-5.6601,-5.6601,-5.6601,-5.6601,-5.6601,-5.6601,-5.6601,-5.6601,-5.6601,-5.6601,-5.6561,-5.6426,-5.6331,-5.6217,-5.5939,-5.5902,-5.5872,-5.5798,-5.5779,-5.5779,-5.5779,-5.5738,-5.5703,-5.5703,-5.5703,-5.5703,-5.5703,-5.5703,-5.5703,-5.5703,-5.5703,-5.5703,-5.5703,-5.5703,-5.5703,-5.5703,-5.5703,-5.5703,-5.5703,-5.5703,-5.5703,-5.5703,-5.5703,-5.5703,-5.5703,-5.5703,-5.5703,-5.5703,-5.5703,-5.5703,0.0,-4.0879,-4.1308,-4.2851,-4.3242,-4.3047,-4.2305,-4.2129,0.0,-4.0137,-3.9805,-3.957,-3.8828,-3.8633,-3.8926,-3.9922,-4.0703,0.0,0.0,0.0,0.0,0.0,0.0,0.0,0.0,0.0,0.0,0.0,0.0,0.0,0.0,0.0,0.0,-6.1699,-6.1699,-6.1699,-6.1699,-6.1699,-6.1699,-6.1699,-6.1699,-6.1699,-6.1699,0.0,0.0,0.0,0.0,0.0,0.0,-6.0664,-6.0273,-6.0078,-5.8515,-5.7851,-5.7715,-5.6894,-5.6601,-5.6601,-5.6601,-5.6601,-5.6601,-5.6601,-5.6601,-5.6601,-5.6601,-5.6601,-5.6601,-5.6601,-5.6601,-5.6601,-5.6601,-5.6601,-5.6561,-5.643,-5.6414,-5.6308,-5.6005,-5.6078,-5.6133,-5.5959,-5.592,-5.592,-5.592,-5.5826,-5.5747,-5.5747,-5.5707,-5.5716,-5.5716,-5.5724,-5.5703,-5.5703,-5.5705,-5.5716,-5.5716,-5.5714,-5.5703,-5.5703,-5.5703,-5.5703,-5.5703,-5.5703,-5.5703,-5.5703,-5.5703,-5.5703,-5.5703,-5.5703,-5.5703,-5.5703,-5.5703,-5.5703,-3.7051,0.0,-3.8301,-3.8711,-3.8809,-3.8926,0.0,-3.9492,-3.9375,-3.8984,-3.8906,-3.9043,-3.9512,-3.9043,-3.9316,-4.1465,0.0,0.0,0.0,0.0,0.0,0.0,0.0,0.0,0.0,0.0,0.0,0.0,0.0,0.0,0.0,0.0,0.0,-6.1699,-6.1699,-6.1699,-6.1699,-6.1699,-6.1699,-6.1699,-6.1699,-6.1699,-6.1699,0.0,0.0,0.0,0.0,0.0,-6.0644,-5.9824,-5.9082,-5.8457,-5.8047,-5.748,-5.6875,-5.668,-5.6601,-5.6601,-5.6601,-5.6601,-5.6601,-5.6601,-5.6601,-5.6601,-5.6601,-5.6601,-5.6601,-5.6601,-5.6601,-5.6601,-5.6601,-5.6601,-5.6582,-5.656,-5.6463,-5.638,-5.6297,-5.6242,-5.6181,-5.6146,-5.6141,-5.6141,-5.6141,-5.611,-5.6078,-5.6078,-5.5955,-5.584,-5.584,-5.576,-5.5703,-5.5703,-5.5789,-5.584,-5.584,-5.5769,-5.5703,-5.5703,-5.5703,-5.5703,-5.5703,-5.5703,-5.5703,-5.5703,-5.5703,-5.5703,-5.5703,-5.5703,-5.5703,-5.5703,-5.5703,-5.5703,-3.5996,-3.6348,-3.6699,-3.6699,-3.6992,-3.7422,-3.7891,-3.8301,-3.8496,-3.8086,-3.8008,-3.8144,-3.8613,-3.832,-3.8848,0.0,0.0,0.0,0.0,0.0,0.0,0.0,0.0,0.0,0.0,0.0,0.0,0.0,0.0,0.0,0.0,0.0,0.0,0.0,-6.1699,-6.1699,-6.1699,-6.1699,-6.1699,-6.1699,-6.1699,-6.1699,-6.1699,0.0,0.0,0.0,0.0,0.0,-5.9785,-5.8945,-5.832,-5.7851,-5.7461,-5.7012,-5.6601,-5.6601,-5.6601,-5.6601,-5.6601,-5.6601,-5.6601,-5.6601,-5.6601,-5.6601,-5.6601,-5.6601,-5.6601,-5.6601,-5.6601,-5.6601,-5.6601,-5.6601,-5.6601,-5.6601,-5.6539,-5.6463,-5.6416,-5.6386,-5.6371,-5.6309,-5.6297,-5.6297,-5.6297,-5.6232,-5.6191,-5.6191,-5.6103,-5.6038,-5.6038,-5.5971,-5.5938,-5.5938,-5.6001,-5.6038,-5.6038,-5.5963,-5.5938,-5.5938,-5.5938,-5.5938,-5.5938,-5.5938,-5.5887,-5.5789,-5.5728,-5.5703,-5.5703,-5.5703,-5.5703,-5.5703,-5.5703,-5.5703,-3.6152,-3.6191,-3.6172,-3.6035,-3.666,-3.7266,-3.7129,-3.7676,-3.7988,-3.7246,-3.7109,-3.7266,-3.7793,-3.7793,0.0,0.0,0.0,0.0,0.0,0.0,0.0,0.0,0.0,0.0,0.0,0.0,0.0,0.0,0.0,0.0,0.0,0.0,0.0,0.0,-6.1699,-6.1699,-6.1699,-6.1699,-6.1699,-6.1699,-6.1699,-6.1699,-6.1699,-6.1562,0.0,0.0,0.0,0.0,-5.8926,-5.8066,-5.7695,-5.7637,-5.6894,-5.6601,-5.6601,-5.6601,-5.6601,-5.6601,-5.6601,-5.6601,-5.6601,-5.6601,-5.6601,-5.6601,-5.6601,-5.6601,-5.6601,-5.6601,-5.6601,-5.6601,-5.6601,-5.6601,-5.6601,-5.6601,-5.6601,-5.6561,-5.6456,-5.6515,-5.6561,-5.6454,-5.6426,-5.6426,-5.6426,-5.6331,-5.6251,-5.6251,-5.6237,-5.6222,-5.6222,-5.6207,-5.6191,-5.6191,-5.6212,-5.6222,-5.6222,-5.6242,-5.6251,-5.6251,-5.6217,-5.6191,-5.6191,-5.6191,-5.6109,-5.5951,-5.5825,-5.5779,-5.5779,-5.5748,-5.5728,-5.5728,-5.5705,-5.5703,-3.6894,-3.7109,-3.6914,-3.6172,-3.666,-3.7109,-3.6367,-3.6309,-3.6367,-3.623,-3.6191,-3.7109,-4.0059,-4.0,-4.1055,0.0,0.0,0.0,0.0,0.0,0.0,0.0,0.0,0.0,0.0,0.0,0.0,0.0,0.0,0.0,0.0,0.0,0.0,0.0,0.0,-6.1699,-6.1699,-6.1699,-6.1699,-6.1699,-6.1699,-6.1699,-6.168,-6.0937,-6.0527,0.0,0.0,0.0,-5.8027,-5.7168,-5.6797,-5.6797,-5.664,-5.6601,-5.6601,-5.6601,-5.6601,-5.6601,-5.6601,-5.6601,-5.6601,-5.6601,-5.6601,-5.6601,-5.6601,-5.6601,-5.6601,-5.6601,-5.6601,-5.6601,-5.6601,-5.6601,-5.6601,-5.6601,-5.6601,-5.6582,-5.6562,-5.6582,-5.6582,-5.6562,-5.6561,-5.6561,-5.6561,-5.6559,-5.6538,-5.6538,-5.643,-5.6371,-5.6371,-5.6279,-5.6191,-5.6191,-5.6305,-5.6371,-5.6371,-5.6463,-5.6538,-5.6538,-5.6324,-5.6191,-5.6191,-5.6191,-5.6181,-5.6158,-5.6135,-5.6122,-5.6122,-5.5944,-5.5866,-5.5866,-5.5759,-5.5703,-3.6484,-3.6934,-3.7422,-3.7969,-3.8047,-3.7891,-3.75,-3.7402,-3.7402,-3.7402,-3.7402,-3.832,-4.1308,0.0,-4.3808,-4.9433,0.0,0.0,0.0,0.0,0.0,0.0,0.0,0.0,0.0,0.0,0.0,0.0,0.0,0.0,0.0,0.0,0.0,0.0,0.0,0.0,-6.0351,-6.0351,-6.0801,-6.1699,-6.1211,-6.0996,-6.0976,-6.0137,-5.9492,0.0,0.0,-5.7637,-5.7168,-5.6777,-5.6601,-5.6601,-5.6601,-5.6601,-5.6601,-5.6601,-5.6601,-5.6601,-5.6601,-5.6601,-5.6601,-5.6601,-5.6601,-5.6601,-5.6601,-5.6601,-5.6601,-5.6601,-5.6601,-5.6601,-5.6601,-5.6601,-5.6601,-5.6601,-5.6601,-5.6601,-5.6601,-5.6601,-5.6601,-5.6601,-5.6601,-5.6601,-5.6601,-5.6601,-5.6601,-5.6601,-5.6558,-5.6511,-5.6511,-5.6456,-5.6419,-5.6419,-5.6462,-5.6511,-5.6511,-5.6561,-5.6601,-5.6601,-5.6486,-5.6419,-5.6419,-5.6358,-5.6309,-5.6309,-5.6252,-5.6191,-5.6191,-5.6103,-5.6058,-5.6058,-5.5993,-5.591,-3.625,-3.6797,-3.7676,-3.9219,-3.9394,-3.9316,-3.9707,-3.9785,-3.9785,-3.9785,-3.9785,-4.0586,-4.3144,-4.498,0.0,0.0,0.0,0.0,0.0,0.0,0.0,0.0,0.0,0.0,0.0,0.0,0.0,0.0,0.0,0.0,0.0,0.0,0.0,0.0,0.0,0.0,-5.9199,-5.9199,-5.9844,-6.1113,-6.0449,-6.0117,-6.0098,-5.9277,-5.8535,-5.789,-5.7676,-5.7226,-5.6601,-5.6601,-5.6601,-5.6601,-5.6601,-5.6601,-5.6601,-5.6601,-5.6601,-5.6601,-5.6601,-5.6601,-5.6601,-5.6601,-5.6601,-5.6601,-5.6601,-5.6601,-5.6601,-5.6601,-5.6601,-5.6601,-5.6601,-5.6601,-5.6601,-5.6601,-5.6601,-5.6601,-5.6601,-5.6601,-5.6601,-5.6601,-5.6601,-5.6601,-5.6601,-5.6601,-5.6601,-5.6601,-5.6601,-5.6601,-5.6601,-5.6601,-5.6601,-5.6601,-5.6601,-5.6601,-5.6601,-5.6601,-5.6601,-5.6601,-5.6601,-5.6601,-5.6601,-5.649,-5.6452,-5.6452,-5.6358,-5.6281,-5.6281,-5.6256,-5.6257,-5.6257,-5.6207,-5.6128,-3.6992,-3.7246,-3.7519,-3.8457,-3.9863,-4.1426,-4.2988,-4.332,-4.332,-4.332,-4.332,-4.4121,-4.6738,-5.0527,0.0,0.0,0.0,0.0,0.0,0.0,0.0,0.0,0.0,0.0,0.0,0.0,0.0,0.0,0.0,0.0,0.0,0.0,0.0,0.0,0.0,0.0,-5.9199,-5.9199,-5.9258,-5.9375,-5.9316,-5.9297,-5.9258,-5.8398,-5.7969,-5.7851,-5.7031,-5.666,-5.6601,-5.6601,-5.6601,-5.6601,-5.6601,-5.6601,-5.6601,-5.6601,-5.6601,-5.6601,-5.6601,-5.6601,-5.6601,-5.6601,-5.6601,-5.6601,-5.6601,-5.6601,-5.6601,-5.6601,-5.6601,-5.6601,-5.6601,-5.6601,-5.6601,-5.6601,-5.6601,-5.6601,-5.6601,-5.6601,-5.6601,-5.6601,-5.6601,-5.6601,-5.6601,-5.6601,-5.6601,-5.6601,-5.6601,-5.6601,-5.6601,-5.6601,-5.6601,-5.6601,-5.6601,-5.6601,-5.6601,-5.6601,-5.6601,-5.6601,-5.6601,-5.6601,-5.6601,-5.6582,-5.6582,-5.6582,-5.6581,-5.6561,-5.6561,-5.6452,-5.6383,-5.638,-5.627,-5.6186,-3.6406,-3.7676,-3.9375,-4.1289,-4.2676,-4.3457,-4.2988,-4.4141,-4.5312,-4.5312,-4.5312,-4.6269,-4.9394,0.0,0.0,0.0,0.0,0.0,0.0,0.0,0.0,0.0,0.0,0.0,0.0,0.0,0.0,0.0,0.0,0.0,0.0,0.0,0.0,0.0,0.0,0.0,0.0,-5.7578,-5.7578,-5.7598,-5.8125,-5.8398,-5.8359,-5.748,-5.709,-5.707,-5.6738,-5.6601,-5.6601,-5.6601,-5.6601,-5.6601,-5.6601,-5.6601,-5.6601,-5.6601,-5.6601,-5.6601,-5.6601,-5.6601,-5.6601,-5.6601,-5.6601,-5.6601,-5.6601,-5.6601,-5.6601,-5.6601,-5.6601,-5.6601,-5.6601,-5.6601,-5.6601,-5.6601,-5.6601,-5.6601,-5.6601,-5.6601,-5.6601,-5.6601,-5.6601,-5.6601,-5.6601,-5.6601,-5.6601,-5.6601,-5.6601,-5.6601,-5.6601,-5.6601,-5.6601,-5.6601,-5.6601,-5.6601,-5.6601,-5.6601,-5.6601,-5.6601,-5.6601,-5.6601,-5.6601,-5.6601,-5.6601,-5.6601,-5.6601,-5.6601,-5.6601,-5.6559,-5.6516,-5.6515,-5.6463,-5.6394,-3.6406,-3.832,-4.0723,-4.248,-4.4375,-4.5508,-4.4316,-4.5215,-4.6465,-4.7012,-4.7754,-4.8945,-5.1016,0.0,0.0,0.0,0.0,0.0,0.0,0.0,0.0,0.0,0.0,0.0,0.0,0.0,0.0,0.0,0.0,0.0,0.0,0.0,0.0,0.0,0.0,0.0,0.0,-5.6601,-5.6601,-5.6601,-5.7207,-5.748,-5.7461,-5.6875,-5.6601,-5.6601,-5.6601,-5.6601,-5.6601,-5.6601,-5.6601,-5.6601,-5.6601,-5.6601,-5.6601,-5.6601,-5.6601,-5.6601,-5.6601,-5.6601,-5.6601,-5.6601,-5.6601,-5.6601,-5.6601,-5.6601,-5.6601,-5.6601,-5.6601,-5.6601,-5.6601,-5.6601,-5.6601,-5.6601,-5.6601,-5.6601,-5.6601,-5.6601,-5.6601,-5.6601,-5.6601,-5.6601,-5.6601,-5.6601,-5.6601,-5.6601,-5.6601,-5.6601,-5.6601,-5.6601,-5.6601,-5.6601,-5.6601,-5.6601,-5.6601,-5.6601,-5.6601,-5.6601,-5.6601,-5.6601,-5.6601,-5.6601,-5.6601,-5.6601,-5.6601,-5.6601,-5.6601,-5.6601,-5.6601,-5.6601,-5.6601,-5.6559,-3.7324,-3.9258,-4.1269,-4.1269,-4.4453,-4.7617,-4.7617,-4.6933,-4.6816,-4.8535,-5.0918,-5.2422,-5.1562,-5.3535,0.0,0.0,0.0,0.0,0.0,0.0,0.0,0.0,0.0,0.0,0.0,0.0,0.0,0.0,0.0,0.0,0.0,0.0,0.0,0.0,0.0,0.0,0.0,-5.6601,-5.6601,-5.6601,-5.6601,-5.6601,-5.6601,-5.6601,-5.6601,-5.6601,-5.6601,-5.6601,-5.6601,-5.6601,-5.6601,-5.6601,-5.6601,-5.6601,-5.6601,-5.6601,-5.6601,-5.6601,-5.6601,-5.6601,-5.6601,-5.6601,-5.6601,-5.6601,-5.6601,-5.6601,-5.6601,-5.6601,-5.6601,-5.6601,-5.6601,-5.6601,-5.6601,-5.6601,-5.6601,-5.6601,-5.6601,-5.6601,-5.6601,-5.6601,-5.6601,-5.6601,-5.6601,-5.6601,-5.6601,-5.6601,-5.6601,-5.6601,-5.6601,-5.6601,-5.6601,-5.6601,-5.6601,-5.6601,-5.6601,-5.6601,-5.6601,-5.6601,-5.6601,-5.6601,-5.6601,-5.6601,-5.6601,-5.6601,-5.6601,-5.6601,-5.6601,-5.6601,-5.6601,-5.6601,-5.6601,-5.6601,-3.9121,-4.2344,-4.5703,-4.5703,-4.7129,-4.8516,-4.8516,-4.8301,-4.8105,-4.8008,-5.0019,-5.1894,-5.2246,0.0,0.0,0.0,0.0,0.0,0.0,0.0,0.0,0.0,0.0,0.0,0.0,0.0,0.0,0.0,0.0,0.0,0.0,0.0,0.0,0.0,0.0,0.0,0.0,0.0,-5.6601,-5.6601,-5.6601,-5.6601,-5.6601,-5.6601,-5.6601,-5.6601,-5.6601,-5.6601,-5.6601,-5.6601,-5.6601,-5.6601,-5.6601,-5.6601,-5.6601,-5.6601,-5.6601,-5.6601,-5.6601,-5.6601,-5.6601,-5.6601,-5.6601,-5.6601,-5.6601,-5.6601,-5.6601,-5.6601,-5.6601,-5.6601,-5.6601,-5.6601,-5.6601,-5.6601,-5.6601,-5.6601,-5.6601,-5.6601,-5.6601,-5.6601,-5.6601,-5.6601,-5.6601,-5.6601,-5.6601,-5.6601,-5.6601,-5.6601,-5.6601,-5.6601,-5.6601,-5.6601,-5.6601,-5.6601,-5.6601,-5.6601,-5.6601,-5.6601,-5.6601,-5.6601,-5.6601,-5.6601,-5.6601,-5.6601,-5.6601,-5.6601,-5.6601,-5.6601,-5.6601,-5.6601,-5.6601,-5.6601,-4.0801,-4.4433,-4.8125,-4.8125,-4.9004,-4.9726,-4.9043,-4.8906,-4.875,-4.8223,-5.0137,-5.2187,-5.3066,0.0,0.0,0.0,0.0,0.0,0.0,0.0,0.0,0.0,0.0,0.0,0.0,0.0,0.0,0.0,0.0,0.0,0.0,0.0,0.0,0.0,0.0,0.0,0.0,0.0,0.0,-5.6601,-5.6601,-5.6601,-5.6601,-5.6601,-5.6601,-5.6601,-5.6601,-5.6601,-5.6601,-5.6601,-5.6601,-5.6601,-5.6601,-5.6601,-5.6601,-5.6601,-5.6601,-5.6601,-5.6601,-5.6601,-5.6601,-5.6601,-5.6601,-5.6601,-5.6601,-5.6601,-5.6601,-5.6601,-5.6601,-5.6601,-5.6601,-5.6601,-5.6601,-5.6601,-5.6601,-5.6601,-5.6601,-5.6601,-5.6601,-5.6601,-5.6601,-5.6601,-5.6601,-5.6601,-5.6601,-5.6601,-5.6601,-5.6601,-5.6601,-5.6601,-5.6601,-5.6601,-5.6601,-5.6601,-5.6601,-5.6601,-5.6601,-5.6601,-5.6601,-5.6601,-5.6601,-5.6601,-5.6601,-5.6601,-5.6601,-5.6601,-5.6601,-5.6601,-5.6601,-5.6601,-5.6601,-5.6601,-4.2285,-4.5644,-4.8945,-4.9082,-5.0273,-5.0996,-4.9473,-4.9121,-4.9062,-4.8828,0.0,-5.2851,0.0,0.0,0.0,0.0,0.0,0.0,0.0,0.0,0.0,0.0,0.0,0.0,0.0,0.0,0.0,0.0,0.0,0.0,0.0,0.0,0.0,0.0,0.0,0.0,0.0,0.0,0.0,0.0,-5.6601,-5.6601,-5.6601,-5.6601,-5.6601,-5.6601,-5.6601,-5.6601,-5.6601,-5.6601,-5.6601,-5.6601,-5.6601,-5.6601,-5.6601,-5.6601,-5.6601,-5.6601,-5.6601,-5.6601,-5.6601,-5.6601,-5.6601,-5.6601,-5.6601,-5.6601,-5.6601,-5.6601,-5.6601,-5.6601,-5.6601,-5.6601,-5.6601,-5.6601,-5.6601,-5.6601,-5.6601,-5.6601,-5.6601,-5.6601,-5.6601,-5.6601,-5.6601,-5.6601,-5.6601,-5.6601,-5.6601,-5.6601,-5.6601,-5.6601,-5.6601,-5.6601,-5.6601,-5.6601,-5.6601,-5.6601,-5.6601,-5.6601,-5.6601,-5.6601,-5.6601,-5.6601,-5.6601,-5.6601,-5.6601,-5.6601,-5.6601,-5.6601,-5.6601,-5.6601,-5.6601,-5.6601,-4.3027,-4.6094,-4.9219,-5.0527,-5.1133,-5.1308,-5.0937,-5.0859,-5.0293,-4.8281,-4.9902,0.0,0.0,0.0,0.0,0.0,0.0,0.0,0.0,0.0,0.0,0.0,0.0,0.0,0.0,0.0,0.0,0.0,0.0,0.0,0.0,0.0,0.0,0.0,0.0,0.0,-5.6601,-5.6601,-5.6601,0.0,-5.6601,-5.6601,-5.6601,-5.6601,-5.6601,-5.6601,-5.6601,-5.6601,-5.6601,-5.6601,-5.6601,-5.6601,-5.6601,-5.6601,-5.6601,-5.6601,-5.6601,-5.6601,-5.6601,-5.6601,-5.6601,-5.6601,-5.6601,-5.6601,-5.6601,-5.6601,-5.6601,-5.6601,-5.6601,-5.6601,-5.6601,-5.6601,-5.6601,-5.6601,-5.6601,-5.6601,-5.6601,-5.6601,-5.6601,-5.6601,-5.6601,-5.6601,-5.6601,-5.6601,-5.6601,-5.6601,-5.6601,-5.6601,-5.6601,-5.6601,-5.6601,-5.6601,-5.6601,-5.6601,-5.6601,-5.6601,-5.6601,-5.6601,-5.6601,-5.6601,-5.6601,-5.6601,-5.6601,-5.6601,-5.6601,-5.6601,-5.6601,-5.6601,-5.6601,-5.6601,-5.6601,-5.6601,-4.3633,-4.6269,-4.8789,-5.0879,-5.1406,-5.1406,-5.1406,-5.1406,-5.1016,-4.9687,0.0,0.0,0.0,0.0,0.0,0.0,0.0,0.0,0.0,0.0,0.0,0.0,0.0,0.0,0.0,0.0,0.0,0.0,0.0,0.0,0.0,0.0,0.0,0.0,0.0,0.0,-5.6601,-5.6601,-5.6601,-5.6601,-5.6601,-5.6601,-5.6601,-5.6601,-5.6601,-5.6601,-5.6601,-5.6601,-5.6601,-5.6601,-5.6601,-5.6601,-5.6601,-5.6601,-5.6601,-5.6601,-5.6601,-5.6601,-5.6601,-5.6601,-5.6601,-5.6601,-5.6601,-5.6601,-5.6601,-5.6601,-5.6601,-5.6601,-5.6601,-5.6601,-5.6601,-5.6601,-5.6601,-5.6601,-5.6601,-5.6601,-5.6601,-5.6601,-5.6601,-5.6601,-5.6601,-5.6601,-5.6601,-5.6601,-5.6601,-5.6601,-5.6601,-5.6601,-5.6601,-5.6601,-5.6601,-5.6601,-5.6601,-5.6601,-5.6601,-5.6601,-5.6601,-5.6601,-5.6601,-5.6601,-5.6601,-5.6601,-5.6601,-5.6601,-5.6601,-5.6601,-5.6601,-5.6601,-5.6601,-5.6601,-5.6601,-5.6601,-4.3262,-4.582,-4.8203,-5.0762,-5.1406,-5.1406,-5.1406,-5.1406,-5.1406,0.0,0.0,0.0,0.0,0.0,0.0,0.0,0.0,0.0,0.0,0.0,0.0,0.0,0.0,0.0,0.0,0.0,0.0,0.0,0.0,0.0,0.0,0.0,0.0,0.0,0.0,-5.6601,-5.6601,-5.6601,-5.6601,-5.6601,-5.6601,-5.6601,-5.6601,-5.6601,-5.6601,-5.6601,-5.6601,-5.6601,-5.6601,-5.6601,-5.6601,-5.6601,-5.6601,-5.6601,-5.6601,-5.6601,-5.6601,-5.6601,-5.6601,-5.6601,-5.6601,-5.6601,-5.6601,-5.6601,-5.6601,-5.6601,-5.6601,-5.6601,-5.6601,-5.6601,-5.6601,-5.6601,-5.6601,-5.6601,-5.6601,-5.6601,-5.6601,-5.6601,-5.6601,-5.6601,-5.6601,-5.6601,-5.6601,-5.6601,-5.6601,-5.6601,-5.6601,-5.6601,-5.6601,-5.6601,-5.6601,-5.6601,-5.6601,-5.6601,-5.6601,-5.6601,-5.6601,-5.6601,-5.6601,-5.6601,-5.6601,-5.6601,-5.6601,-5.6601,-5.6601,-5.6601,-5.6601,-5.6601,-5.6601,-5.6601,-5.6601,-5.6601,-4.0059,-4.4023,-4.8203,-5.0762,-5.1406,-5.1406,0.0,0.0,-5.1406,0.0,0.0,0.0,0.0,0.0,0.0,0.0,0.0,0.0,0.0,0.0,0.0,0.0,0.0,0.0,0.0,0.0,0.0,0.0,0.0,0.0,0.0,0.0,-5.6601,-5.6601,-5.6601,0.0,-5.6601,-5.6601,-5.6601,-5.6601,-5.6601,-5.6601,-5.6601,-5.6601,-5.6601,-5.6601,-5.6601,-5.6601,-5.6601,-5.6601,-5.6601,-5.6601,-5.6601,-5.6601,-5.6601,-5.6601,-5.6601,-5.6601,-5.6601,-5.6601,-5.6601,-5.6601,-5.6601,-5.6601,-5.6601,-5.6601,-5.6601,-5.6601,-5.6601,-5.6601,-5.6601,-5.6601,-5.6601,-5.6601,-5.6601,-5.6601,-5.6601,-5.6601,-5.6601,-5.6601,-5.6601,-5.6601,-5.6601,-5.6601,-5.6601,-5.6601,-5.6601,-5.6601,-5.6601,-5.6601,-5.6601,-5.6601,-5.6601,-5.6601,-5.6601,-5.6601,-5.6601,-5.6601,-5.6601,-5.6601,-5.6601,-5.6601,-5.6601,-5.6601,-5.6601,-5.6601,-5.6601,-5.6601,-5.6601,-5.6601,-5.6601,-5.6601,-3.9883,-4.4043,-4.7988,-4.9609,-5.0703,-5.1406,-5.1406,0.0,0.0,0.0,0.0,0.0,0.0,0.0,0.0,0.0,0.0,0.0,0.0,0.0,0.0,0.0,0.0,0.0,0.0,0.0,0.0,0.0,0.0,0.0,0.0,-5.6601,-5.6601,-5.6601,-5.6601,0.0,-5.6486,-5.6486,-5.6486,-5.6486,-5.6486,-5.6535,-5.6601,-5.6601,-5.6601,-5.6601,-5.6601,-5.6601,-5.6601,-5.6601,-5.6601,-5.6601,-5.6601,-5.6601,-5.6601,-5.6601,-5.6601,-5.6601,-5.6601,-5.6601,-5.6601,-5.6601,-5.6601,-5.6601,-5.6601,-5.6601,-5.6601,-5.6601,-5.6601,-5.6601,-5.6601,-5.6601,-5.6601,-5.6601,-5.6601,-5.6601,-5.6601,-5.6601,-5.6601,-5.6601,-5.6601,-5.6601,-5.6601,-5.6601,-5.6601,-5.6601,-5.6601,-5.6601,-5.6601,-5.6601,-5.6601,-5.6601,-5.6601,-5.6601,-5.6601,-5.6601,-5.6601,-5.6601,-5.6601,-5.6601,-5.6601,-5.6601,-5.6601,-5.6601,-5.6601,-5.6601,-5.6601,-5.6601,-5.6601,-5.6601,-5.6601,-5.6601,-3.9316,-4.2558,-4.5449,-4.7422,-4.9023,-5.0273,0.0,0.0,0.0,0.0,0.0,0.0,0.0,0.0,0.0,0.0,0.0,0.0,0.0,0.0,0.0,0.0,0.0,0.0,0.0,0.0,0.0,0.0,0.0,0.0,-5.6601,-5.6601,-5.6601,-5.6601,-5.6561,-5.649,-5.6391,-5.6371,-5.6358,-5.6342,-5.638,-5.6454,-5.6559,-5.6582,-5.6601,-5.6601,-5.6601,-5.6601,-5.6601,-5.6601,-5.6601,-5.6601,-5.6601,-5.6601,-5.6601,-5.6601,-5.6601,-5.6601,-5.6601,-5.6601,-5.6601,-5.6601,-5.6601,-5.6601,-5.6601,-5.6601,-5.6601,-5.6601,-5.6601,-5.6601,-5.6601,-5.6601,-5.6601,-5.6601,-5.6601,-5.6601,-5.6601,-5.6601,-5.6601,-5.6601,-5.6601,-5.6601,-5.6601,-5.6601,-5.6601,-5.6601,-5.6601,-5.6601,-5.6601,-5.6601,-5.6601,-5.6601,-5.6601,-5.6601,-5.6601,-5.6601,-5.6601,-5.6601,-5.6601,-5.6601,-5.6601,-5.6601,-5.6601,-5.6601,-5.6601,-5.6601,-5.6601,-5.6601,-5.6601,-5.6601,-5.6601,-5.6601,-3.6777,-3.7676,-3.9023,-4.3965,-4.5898,-4.7207,0.0,0.0,0.0,0.0,0.0,0.0,0.0,0.0,0.0,0.0,0.0,0.0,0.0,0.0,0.0,0.0,0.0,0.0,0.0,0.0,0.0,0.0,0.0,0.0,-5.6601,-5.6601,-5.6601,-5.6601,-5.6483,-5.6414,-5.6408,-5.6264,-5.6202,-5.6207,-5.6335,-5.6391,-5.6416,-5.6538,-5.6601,-5.6601,-5.6601,-5.6601,-5.6601,-5.6601,-5.6601,-5.6601,-5.6601,-5.6601,-5.6601,-5.6601,-5.6601,-5.6601,-5.6601,-5.6601,-5.6601,-5.6601,-5.6601,-5.6601,-5.6601,-5.6601,-5.6601,-5.6601,-5.6601,-5.6601,-5.6601,-5.6601,-5.6601,-5.6601,-5.6601,-5.6601,-5.6601,-5.6601,-5.6601,-5.6601,-5.6601,-5.6601,-5.6601,-5.6601,-5.6601,-5.6601,-5.6601,-5.6601,-5.6601,-5.6601,-5.6601,-5.6601,-5.6601,-5.6601,-5.6601,-5.6601,-5.6601,-5.6601,-5.6601,-5.6601,-5.6601,-5.6601,-5.6601,-5.6601,-5.6601,-5.6601,-5.6601,-5.6601,-5.6601,-5.6601,-5.6601,-5.6601,-3.5215,-3.6445,-3.7871,-4.0293,-4.2363,-4.4199,0.0,0.0,0.0,0.0,0.0,0.0,0.0,0.0,0.0,0.0,0.0,0.0,0.0,0.0,0.0,0.0,0.0,0.0,0.0,0.0,0.0,0.0,0.0,0.0,-5.6601,-5.6514,-5.6462,-5.6462,-5.6335,-5.6203,-5.6083,-5.5959,-5.5919,-5.601,-5.6058,-5.6184,-5.6391,-5.6454,-5.6514,-5.6601,-5.6601,-5.6601,-5.6601,-5.6601,-5.6601,-5.6601,-5.6601,-5.6601,-5.6601,-5.6601,-5.6601,-5.6601,-5.6601,-5.6601,-5.6601,-5.6601,-5.6601,-5.6601,-5.6601,-5.6601,-5.6601,-5.6601,-5.6601,-5.6601,-5.6601,-5.6601,-5.6601,-5.6601,-5.6601,-5.6601,-5.6601,-5.6601,-5.6601,-5.6601,-5.6601,-5.6601,-5.6601,-5.6601,-5.6601,-5.6601,-5.6601,-5.6601,-5.6601,-5.6601,-5.6601,-5.6601,-5.6601,-5.6601,-5.6601,-5.6601,-5.6601,-5.6601,-5.6601,-5.6601,-5.6601,-5.6601,-5.6601,-5.6601,-5.6601,-5.6601,-5.6601,-5.6601,-5.6601,-5.6601,-5.6601,-5.6601,-3.3171,-3.4168,-3.5399,0.0,0.0,-4.0636,0.0,0.0,0.0,0.0,0.0,0.0,0.0,0.0,0.0,0.0,0.0,0.0,0.0,0.0,0.0,0.0,0.0,0.0,0.0,0.0,0.0,0.0,0.0,0.0,-5.5659,-5.5811,-5.6005,-5.6236,-5.615,-5.601,-5.5824,-5.5739,-5.5739,-5.5824,-5.5883,-5.6019,-5.6236,-5.6345,-5.6452,-5.6537,-5.6581,-5.6601,-5.6601,-5.6601,-5.6601,-5.6601,-5.6601,-5.6601,-5.6601,-5.6601,-5.6601,-5.6601,-5.6601,-5.6601,-5.6601,-5.6601,-5.6601,-5.6601,-5.6601,-5.6601,-5.6601,-5.6601,-5.6601,-5.6601,-5.6601,-5.6601,-5.6601,-5.6601,-5.6601,-5.6601,-5.6601,-5.6601,-5.6601,-5.6601,-5.6601,-5.6601,-5.6601,-5.6601,-5.6601,-5.6601,-5.6601,-5.6601,-5.6601,-5.6601,-5.6601,-5.6601,-5.6601,-5.6601,-5.6601,-5.6601,-5.6601,-5.6601,-5.6601,-5.6601,-5.6601,-5.6601,-5.6601,-5.6601,-5.6601,-5.6601,-5.6601,-5.6601,-5.6601,-5.6601,-5.6601,-5.6601,0.0,0.0,0.0,0.0,0.0,0.0,0.0,0.0,0.0,0.0,0.0,0.0,0.0,0.0,0.0,0.0,0.0,0.0,0.0,0.0,0.0,0.0,0.0,0.0,0.0,0.0,0.0,0.0,0.0,-5.3779,-5.3779,-5.4472,-5.5145,-5.5799,-5.5849,-5.5805,-5.5675,-5.5684,-5.5703,-5.5695,-5.5824,-5.5896,-5.5912,-5.6241,-5.6408,-5.6414,-5.6538,-5.6601,-5.6601,-5.6601,-5.6601,-5.6601,-5.6601,-5.6601,-5.6601,-5.6601,-5.6601,-5.6601,-5.6601,-5.6601,-5.6601,-5.6601,-5.6601,-5.6601,-5.6601,-5.6601,-5.6601,-5.6601,-5.6601,-5.6601,-5.6601,-5.6601,-5.6601,-5.6601,-5.6601,-5.6601,-5.6601,-5.6601,-5.6601,-5.6601,-5.6601,-5.6601,-5.6601,-5.6601,-5.6601,-5.6601,-5.6601,-5.6601,-5.6601,-5.6601,-5.6601,-5.6601,-5.6601,-5.6601,-5.6601,-5.6601,-5.6601,-5.6601,-5.6601,-5.6601,-5.6601,-5.6601,-5.6601,-5.6601,-5.6601,-5.6601,-5.6601,-5.6601,-5.6601,-5.6601,-5.6601,-5.6601,-3.0603,0.0,0.0,0.0,0.0,0.0,0.0,0.0,0.0,0.0,0.0,0.0,0.0,0.0,0.0,0.0,0.0,0.0,0.0,0.0,0.0,0.0,0.0,0.0,0.0,0.0,0.0,0.0,0.0,-5.3669,-5.3669,-5.3751,-5.3852,-5.3938,-5.4564,-5.4881,-5.4818,-5.5415,-5.5703,-5.5703,-5.5748,-5.5817,-5.5912,-5.6144,-5.6309,-5.6414,-5.6538,-5.6601,-5.6601,-5.6601,-5.6601,-5.6601,-5.6601,-5.6601,-5.6601,-5.6601,-5.6601,-5.6601,-5.6601,-5.6601,-5.6601,-5.6601,-5.6601,-5.6601,-5.6601,-5.6601,-5.6601,-5.6601,-5.6601,-5.6601,-5.6601,-5.6601,-5.6601,-5.6601,-5.6601,-5.6601,-5.6601,-5.6601,-5.6601,-5.6601,-5.6601,-5.6601,-5.6601,-5.6601,-5.6601,-5.6601,-5.6601,-5.6601,-5.6601,-5.6601,-5.6601,-5.6601,-5.6601,-5.6601,-5.6601,-5.6601,-5.6601,-5.6601,-5.6601,-5.6601,-5.6601,-5.6601,-5.6601,-5.6601,-5.6601,-5.6601,-5.6601,-5.6601,-5.6601,-5.6601,-5.6601,-5.6601,-3.0524,-3.0524,-3.0524,0.0,0.0,0.0,0.0,-3.6281,0.0,0.0,0.0,0.0,0.0,0.0,0.0,0.0,0.0,0.0,0.0,0.0,0.0,0.0,0.0,0.0,0.0,0.0,0.0,0.0,-5.2214,-5.2602,-5.2872,-5.2809,-5.2904,-5.3183,-5.3683,-5.3953,-5.3953,-5.4414,-5.4838,-5.5203,-5.5203,-5.5421,-5.5825,-5.6008,-5.6161,-5.6324,-5.6456,-5.6559,-5.6601,-5.6601,-5.6601,-5.6601,-5.6601,-5.6601,-5.6601,-5.6601,-5.6601,-5.6601,-5.6601,-5.6601,-5.6601,-5.6601,-5.6601,-5.6601,-5.6601,-5.6601,-5.6601,-5.6601,-5.6601,-5.6601,-5.6601,-5.6601,-5.6601,-5.6601,-5.6601,-5.6601,-5.6601,-5.6601,-5.6601,-5.6601,-5.6601,-5.6601,-5.6601,-5.6601,-5.6601,-5.6601,-5.6601,-5.6601,-5.6601,-5.6601,-5.6601,-5.6601,-5.6601,-5.6601,-5.6601,-5.6601,-5.6601,-5.6601,-5.6601,-5.6601,-5.6601,-5.6601,-5.6601,-5.6601,-5.6601,-5.6601,-5.6601,-5.6601,-5.6601,-5.6601,-5.6601,-5.6601,-3.0423,-3.0404,-3.0404,0.0,0.0,0.0,-3.287,-3.4789,0.0,0.0,0.0,0.0,0.0,0.0,0.0,0.0,0.0,0.0,0.0,0.0,0.0,0.0,0.0,0.0,0.0,0.0,0.0,-5.1056,-5.0952,-5.114,-5.1731,-5.1769,-5.2115,-5.2895,-5.301,-5.3068,-5.3068,-5.3145,-5.3587,-5.4357,-5.4357,-5.4722,-5.5425,-5.5668,-5.5867,-5.6044,-5.6281,-5.6452,-5.656,-5.656,-5.6562,-5.6601,-5.6601,-5.6601,-5.6601,-5.6601,-5.6601,-5.6601,-5.6601,-5.6601,-5.6601,-5.6601,-5.6601,-5.6601,-5.6601,-5.6601,-5.6601,-5.6601,-5.6601,-5.6601,-5.6601,-5.6601,-5.6601,-5.6601,-5.6601,-5.6601,-5.6601,-5.6601,-5.6601,-5.6601,-5.6601,-5.6601,-5.6601,-5.6601,-5.6601,-5.6601,-5.6601,-5.6601,-5.6601,-5.6601,-5.6601,-5.6601,-5.6601,-5.6601,-5.6601,-5.6601,-5.6601,-5.6601,-5.6601,-5.6601,-5.6601,-5.6601,-5.6601,-5.6601,-5.6601,-5.6601,-5.6601,-5.6601,-5.6601,-5.6601,-5.6601,-5.6601,0.0,0.0,0.0,0.0,0.0,0.0,-3.3458,-3.2831,0.0,0.0,0.0,0.0,0.0,0.0,0.0,0.0,0.0,0.0,0.0,0.0,0.0,0.0,0.0,0.0,0.0,0.0,-5.0739,-5.0793,-5.0748,-5.0798,-5.0923,-5.0933,-5.101,-5.1183,-5.1818,-5.2154,-5.2154,-5.2856,-5.3299,-5.3453,-5.3453,-5.3549,-5.3713,-5.4555,-5.4967,-5.5038,-5.5883,-5.6246,-5.6288,-5.6288,-5.6414,-5.6601,-5.6601,-5.6601,-5.6601,-5.6601,-5.6601,-5.6601,-5.6601,-5.6601,-5.6601,-5.6601,-5.6601,-5.6601,-5.6601,-5.6601,-5.6601,-5.6601,-5.6601,-5.6601,-5.6601,-5.6601,-5.6601,-5.6601,-5.6601,-5.6601,-5.6601,-5.6601,-5.6601,-5.6601,-5.6601,-5.6601,-5.6601,-5.6601,-5.6601,-5.6601,-5.6601,-5.6601,-5.6601,-5.6601,-5.6601,-5.6601,-5.6601,-5.6601,-5.6601,-5.6601,-5.6601,-5.6601,-5.6601,-5.6601,-5.6601,-5.6601,-5.6601,-5.6601,-5.6601,-5.6601,-5.6601,-5.6601,-5.6601,-5.6601,-5.6601,-5.6601,0.0,0.0,0.0,-3.0404,0.0,0.0,0.0,-3.2011,-3.2322,0.0,0.0,0.0,0.0,0.0,0.0,0.0,0.0,0.0,0.0,0.0,0.0,0.0,0.0,0.0,0.0,0.0,-5.0712,-5.0712,-5.0712,-5.0712,-5.0712,-5.0712,-5.0712,-5.0712,-5.1087,-5.1298,-5.1298,-5.1722,-5.2145,-5.2538,-5.2538,-5.2779,-5.3222,-5.3706,-5.3995,-5.4107,-5.5034,-5.5487,-5.5599,-5.6089,-5.6335,-5.6416,-5.6463,-5.6538,-5.6601,-5.6601,-5.6601,-5.6601,-5.6601,-5.6601,-5.6601,-5.6601,-5.6601,-5.6601,-5.6601,-5.6601,-5.6601,-5.6601,-5.6601,-5.6601,-5.6601,-5.6601,-5.6601,-5.6601,-5.6601,-5.6601,-5.6601,-5.6601,-5.6601,-5.6601,-5.6601,-5.6601,-5.6601,-5.6601,-5.6601,-5.6601,-5.6601,-5.6601,-5.6601,-5.6601,-5.6601,-5.6601,-5.6601,-5.6601,-5.6601,-5.6601,-5.6601,-5.6601,-5.6601,-5.6601,-5.6601,-5.6601,-5.6601,-5.6601,-5.6601,-5.6601,-5.6601,-5.6601,-5.6601,-5.6601,-5.6601,-5.6601,0.0,0.0,0.0,0.0,0.0,-3.081,0.0,0.0,0.0,-3.4154,0.0,0.0,0.0,0.0,0.0,0.0,0.0,0.0,0.0,0.0,0.0,0.0,0.0,0.0,0.0,0.0,-5.0712,-5.0712,-5.0712,-5.0712,-5.0712,-5.0712,-5.0712,-5.0712,-5.0712,-5.0712,-5.0712,-5.0712,-5.1029,-5.1673,-5.1673,-5.2049,-5.2722,-5.2876,-5.3012,-5.3166,-5.4036,-5.4575,-5.4898,-5.5707,-5.6072,-5.615,-5.6352,-5.6486,-5.6561,-5.6582,-5.6601,-5.6601,-5.6601,-5.6601,-5.6601,-5.6601,-5.6601,-5.6601,-5.6601,-5.6601,-5.6601,-5.6601,-5.6601,-5.6601,-5.6601,-5.6601,-5.6601,-5.6601,-5.6601,-5.6601,-5.6601,-5.6601,-5.6601,-5.6601,-5.6601,-5.6601,-5.6601,-5.6601,-5.6601,-5.6601,-5.6601,-5.6601,-5.6601,-5.6601,-5.6601,-5.6601,-5.6601,-5.6601,-5.6601,-5.6601,-5.6601,-5.6601,-5.6601,-5.6601,-5.6601,-5.6601,-5.6601,-5.6601,-5.6601,-5.6601,-5.6601,-5.6601,-5.6601,-5.6601,-5.6601,-5.6601,0.0,0.0,0.0,0.0,-3.0981,0.0,0.0,0.0,-3.0621,-3.0927,0.0,0.0,0.0,0.0,0.0,0.0,0.0,0.0,0.0,0.0,0.0,0.0,0.0,0.0,0.0,0.0,0.0,-5.0712,-5.0712,-5.0712,-5.0712,-5.0712,-5.0712,-5.0712,-5.0712,-5.0712,-5.0712,-5.0712,-5.075,-5.0846,-5.0846,-5.0885,-5.102,-5.1722,-5.2058,-5.2127,-5.2993,-5.3821,-5.4554,-5.468,-5.5206,-5.5969,-5.6406,-5.6514,-5.6448,-5.656,-5.6601,-5.6601,-5.6601,-5.6601,-5.6601,-5.6601,-5.6601,-5.6601,-5.6601,-5.6601,-5.6601,-5.6601,-5.6601,-5.6601,-5.6601,-5.6601,-5.6601,-5.6601,-5.6601,-5.6601,-5.6601,-5.6601,-5.6601,-5.6601,-5.6601,-5.6601,-5.6601,-5.6601,-5.6601,-5.6601,-5.6601,-5.6601,-5.6601,-5.6601,-5.6601,-5.6601,-5.6601,-5.6601,-5.6601,-5.6601,-5.6601,-5.6601,-5.6601,-5.6601,-5.6601,-5.6601,-5.6601,-5.6601,-5.6601,-5.6601,-5.6601,-5.6601,-5.6601,-5.6601,-5.6601,-5.6601,0.0,0.0,0.0,0.0,0.0,0.0,0.0,0.0,-3.0404,0.0,0.0,0.0,0.0,0.0,0.0,0.0,0.0,0.0,0.0,0.0,0.0,0.0,0.0,0.0,0.0,0.0,0.0,0.0,0.0,-4.9183,-4.9183,-5.0144,-5.0712,-5.0712,-5.0712,-5.0712,-5.0712,-5.0712,-5.0712,-5.0712,-5.0712,-5.0712,-5.0712,-5.1048,-5.1202,-5.1241,-5.2087,-5.2953,-5.379,-5.438,-5.5083,-5.5816,-5.6213,-5.6331,-5.6297,-5.6342,-5.6374,-5.6374,-5.6374,-5.6374,-5.638,-5.6458,-5.6484,-5.6484,-5.6484,-5.6537,-5.6561,-5.6419,-5.6424,-5.6479,-5.6386,-5.6374,-5.6374,-5.6374,-5.6374,-5.6374,-5.6374,-5.6374,-5.6386,-5.6462,-5.6484,-5.6511,-5.6582,-5.6601,-5.6601,-5.6601,-5.6601,-5.6601,-5.6601,-5.6601,-5.6601,-5.6601,-5.6601,-5.6601,-5.6601,-5.6601,-5.6601,-5.6601,-5.6601,-5.6601,-5.6601,-5.6601,-5.6601,-5.6601,-5.6601,-5.6601,-5.6601,-5.6601,-5.6601,-5.6601,-5.6601,-5.6601,-3.5187,0.0,0.0,0.0,0.0,0.0,0.0,0.0,0.0,0.0,0.0,0.0,0.0,0.0,0.0,-3.0077,0.0,0.0,0.0,0.0,0.0,0.0,0.0,0.0,0.0,0.0,0.0,0.0,0.0,0.0,-4.8067,-4.9298,-5.0212,-5.0693,-5.0712,-5.0712,-5.0712,-5.0712,-5.0712,-5.0712,-5.0712,-5.0712,-5.0712,-5.0712,-5.0712,-5.0731,-5.1318,-5.2068,-5.2924,-5.3895,-5.4708,-5.5418,-5.587,-5.6057,-5.6071,-5.6164,-5.6191,-5.6191,-5.6191,-5.6191,-5.6227,-5.6313,-5.6358,-5.6358,-5.6358,-5.6419,-5.6454,-5.6246,-5.6279,-5.632,-5.6237,-5.6191,-5.6191,-5.6191,-5.6191,-5.6191,-5.6191,-5.6191,-5.6222,-5.6324,-5.6358,-5.6377,-5.6463,-5.6559,-5.6601,-5.6601,-5.6601,-5.6601,-5.6601,-5.6601,-5.6601,-5.6601,-5.6601,-5.6601,-5.6601,-5.6601,-5.6601,-5.6601,-5.6601,-5.6601,-5.6601,-5.6601,-5.6601,-5.6601,-5.6601,-5.6601,-5.6601,-5.6601,-5.6601,-5.6601,-5.6601,-5.6601,0.0,0.0,0.0,-3.7661,0.0,0.0,0.0,0.0,-3.1429,0.0,0.0,0.0,0.0,0.0,-3.0115,-2.928,-3.0583,0.0,0.0,0.0,0.0,0.0,0.0,0.0,0.0,0.0,0.0,0.0,0.0,0.0,-4.7971,-4.8144,-4.8952,-5.0654,-5.0712,-5.0712,-5.0712,-5.0712,-5.0712,-5.0712,-5.0712,-5.0712,-5.0712,-5.0712,-5.0712,-5.0712,-5.0731,-5.1202,-5.2,-5.2886,-5.3771,-5.4607,-5.5416,-5.5716,-5.5758,-5.6078,-5.6191,-5.6191,-5.6191,-5.6191,-5.6191,-5.6216,-5.6222,-5.6222,-5.6222,-5.6202,-5.6202,-5.6197,-5.6197,-5.6216,-5.6191,-5.6191,-5.6191,-5.6191,-5.6191,-5.6191,-5.6191,-5.6191,-5.6197,-5.6216,-5.6222,-5.6202,-5.6207,-5.6426,-5.6601,-5.6601,-5.6601,-5.6601,-5.6601,-5.6601,-5.6601,-5.6601,-5.6601,-5.6601,-5.6601,-5.6601,-5.6601,-5.6601,-5.6601,-5.6601,-5.6601,-5.6601,-5.6601,-5.6601,-5.6601,-5.6601,-5.6601,-5.6601,-5.6601,-5.6601,-5.6601,-5.6601,0.0,0.0,-4.1662,-4.1431,0.0,0.0,0.0,0.0,0.0,0.0,0.0,0.0,0.0,-3.0404,-3.0308,-3.0,-3.0462,-3.0635,0.0,0.0,0.0,0.0,0.0,0.0,0.0,0.0,0.0,0.0,0.0,0.0,0.0,-4.7509,-4.8894,-5.0635,-5.0712,-5.0712,-5.0712,-5.0712,-5.0712,-5.0712,-5.0712,-5.0712,-5.0712,-5.0712,-5.0712,-5.0712,-5.0712,-5.1164,-5.1962,-5.2837,-5.3703,-5.4587,-5.5395,-5.5703,-5.5716,-5.5836,-5.5872,-5.5872,-5.5872,-5.5872,-5.5879,-5.5966,-5.6003,-5.6003,-5.6003,-5.609,-5.6152,-5.5919,-5.5924,-5.5974,-5.5896,-5.5872,-5.5872,-5.5872,-5.5872,-5.5872,-5.5872,-5.5872,-5.5896,-5.5981,-5.6003,-5.6045,-5.6175,-5.6284,-5.6331,-5.6331,-5.6331,-5.6331,-5.6331,-5.6331,-5.6331,-5.6331,-5.6331,-5.6374,-5.6458,-5.6559,-5.6601,-5.6601,-5.6601,-5.6601,-5.6601,-5.6601,-5.6601,-5.6601,-5.6601,-5.6601,-5.6601,-5.6601,-5.6601,-5.6601,-5.6601,-5.6601,-4.5432,-4.522,0.0,0.0,-4.2508,0.0,-3.8169,0.0,0.0,0.0,0.0,0.0,0.0,0.0,-3.0865,-3.0865,-3.0596,-3.0404,0.0,-3.0404,0.0,0.0,0.0,0.0,0.0,0.0,0.0,0.0,0.0,0.0,0.0,0.0,-4.8279,-5.0635,-5.0712,-5.0712,-5.0712,-5.0712,-5.0712,-5.0712,-5.0712,-5.0712,-5.0712,-5.0712,-5.0712,-5.0712,-5.0712,-5.0991,-5.1568,-5.2722,-5.353,-5.4145,-5.5261,-5.5703,-5.5703,-5.5703,-5.5703,-5.5703,-5.5703,-5.5703,-5.5716,-5.5808,-5.5834,-5.5834,-5.5834,-5.5927,-5.5924,-5.5402,-5.5538,-5.5749,-5.5371,-5.5491,-5.5703,-5.5703,-5.5703,-5.5703,-5.5703,-5.5703,-5.5717,-5.5807,-5.5834,-5.5868,-5.5993,-5.6015,-5.6057,-5.6175,-5.6191,-5.6191,-5.6191,-5.6191,-5.6191,-5.6191,-5.6191,-5.6227,-5.632,-5.6454,-5.6536,-5.6536,-5.6562,-5.6601,-5.6601,-5.6601,-5.6601,-5.6601,-5.6601,-5.6601,-5.6601,-5.6601,-5.6601,-5.6601,-5.6601,-5.6601]},{"header":{"parameterUnit":"m.s-1","parameterCategory":1,"la1":30.6,"la2":29.2853,"lo1":-89.7004,"lo2":-87.6739,"dy":0.0162,"dx":0.0183,"nx":112,"ny":82,"refTime":"2023-06-28T06:00:00:Z","depth":0,"parameterNumber":3,"parameterNumberName":"V-component_of_WINDS"},"data":[0.0,0.0,0.0,0.0,0.0,0.0,0.0,0.0,0.0,0.0,0.0,0.0,0.0,0.0,0.0,0.0,0.0,0.0,0.0,0.0,0.0,0.0,0.0,0.0,0.0,0.0,0.0,0.0,0.0,0.0,0.0,0.0,0.0,0.0,0.0,0.0,0.0,0.0,0.0,0.0,0.0,0.0,0.0,0.0,0.0,0.0,0.0,0.0,0.0,0.0,0.0,0.0,0.0,0.0,0.0,0.0,0.0,0.0,0.0,0.0,0.0,0.0,0.0,0.0,0.0,0.0,0.0,0.0,0.0,0.0,0.0,0.0,0.0,0.0,0.0,0.0,0.0,0.0,0.0,0.0,0.0,0.0,0.0,0.0,0.0,0.0,0.0,0.0,0.0,0.0,0.0,-0.7658,-0.784,-0.7988,-0.7988,-0.7988,-0.7732,-0.7136,0.0,0.0,0.0,0.0,0.0,0.0,0.0,0.0,0.0,0.0,0.0,0.0,0.0,0.0,0.0,0.0,0.0,0.0,0.0,0.0,0.0,0.0,0.0,0.0,0.0,0.0,0.0,0.0,0.0,0.0,0.0,0.0,0.0,0.0,0.0,0.0,0.0,0.0,0.0,0.0,0.0,0.0,0.0,0.0,0.0,0.0,0.0,0.0,0.0,0.0,0.0,0.0,0.0,0.0,0.0,0.0,0.0,0.0,0.0,0.0,0.0,0.0,0.0,0.0,0.0,0.0,0.0,0.0,0.0,0.0,0.0,0.0,0.0,0.0,0.0,0.0,0.0,0.0,0.0,0.0,0.0,0.0,0.0,0.0,0.0,0.0,0.0,0.0,0.0,0.0,0.0,0.0,0.0,0.0,0.0,0.0,0.0,0.0,0.0,0.0,0.0,0.0,0.0,0.0,-0.7361,-0.787,-0.7965,-0.7988,-0.7988,-0.7988,-0.7732,-0.7136,0.0,0.0,0.0,0.0,0.0,0.0,0.0,0.0,0.0,0.0,0.0,0.0,0.0,0.0,0.0,0.0,0.0,0.0,0.0,0.0,0.0,0.0,0.0,0.0,0.0,0.0,0.0,0.0,0.0,0.0,0.0,0.0,0.0,0.0,0.0,0.0,0.0,0.0,0.0,0.0,0.0,0.0,0.0,0.0,0.0,0.0,0.0,0.0,0.0,0.0,0.0,0.0,0.0,0.0,0.0,0.0,0.0,0.0,0.0,0.0,0.0,0.0,0.0,0.0,0.0,0.0,0.0,0.0,0.0,0.0,0.0,0.0,0.0,0.0,0.0,0.0,0.0,0.0,0.0,0.0,0.0,0.0,0.0,0.0,0.0,0.0,0.0,0.0,0.0,0.0,0.0,0.0,0.0,0.0,0.0,0.0,0.0,0.0,0.0,0.0,0.0,0.0,0.0,-0.7082,-0.7465,-0.7934,-0.7988,-0.7988,-0.7988,-0.7988,-0.7732,-0.7136,-0.6865,0.0,0.0,0.0,0.0,0.0,0.0,0.0,0.0,0.0,0.0,0.0,0.0,0.0,0.0,0.0,0.0,0.0,0.0,0.0,0.0,0.0,0.0,0.0,0.0,0.0,0.0,0.0,0.0,0.0,0.0,0.0,0.0,0.0,0.0,0.0,0.0,0.0,0.0,0.0,0.0,0.0,0.0,0.0,0.0,0.0,0.0,0.0,0.0,0.0,0.0,0.0,0.0,0.0,0.0,0.0,0.0,0.0,0.0,0.0,0.0,0.0,0.0,0.0,0.0,0.0,0.0,0.0,0.0,0.0,0.0,0.0,0.0,0.0,0.0,0.0,0.0,0.0,0.0,0.0,0.0,0.0,0.0,0.0,0.0,0.0,0.0,0.0,0.0,0.0,0.0,0.0,0.0,0.0,0.0,0.0,0.0,0.0,0.0,0.0,0.0,0.0,0.0,-0.7302,-0.7658,-0.7951,-0.7988,-0.7988,-0.7988,-0.7928,-0.7661,-0.7129,-0.68,0.0,0.0,0.0,0.0,0.0,0.0,0.0,0.0,0.0,0.0,0.0,0.0,0.0,0.0,0.0,0.0,0.0,0.0,0.0,0.0,0.0,0.0,0.0,0.0,0.0,0.0,0.0,0.0,0.0,0.0,0.0,0.0,0.0,0.0,0.0,0.0,0.0,0.0,0.0,0.0,0.0,0.0,0.0,0.0,0.0,0.0,0.0,0.0,0.0,0.0,0.0,0.0,0.0,0.0,0.0,0.0,0.0,0.0,0.0,0.0,0.0,0.0,0.0,0.0,0.0,0.0,0.0,0.0,0.0,0.0,0.0,0.0,0.0,0.0,0.0,0.0,0.0,0.0,0.0,0.0,0.0,0.0,0.0,0.0,0.0,0.0,0.0,0.0,0.0,0.0,0.0,0.0,0.0,0.0,0.0,0.0,0.0,0.0,0.0,0.0,0.0,0.0,-0.7584,-0.7955,-0.7985,-0.7988,-0.7988,-0.7988,-0.7787,-0.7489,-0.7115,-0.6607,0.0,0.0,0.0,0.0,0.0,0.0,0.0,0.0,0.0,0.0,0.0,0.0,0.0,0.0,0.0,0.0,0.0,0.0,0.0,0.0,0.0,0.0,0.0,0.0,0.0,0.0,0.0,0.0,0.0,0.0,0.0,0.0,0.0,0.0,0.0,0.0,0.0,0.0,0.0,0.0,0.0,0.0,0.0,0.0,0.0,0.0,0.0,0.0,0.0,0.0,0.0,0.0,0.0,0.0,0.0,0.0,0.0,0.0,0.0,0.0,0.0,0.0,0.0,0.0,0.0,0.0,0.0,0.0,0.0,0.0,0.0,0.0,0.0,0.0,0.0,0.0,0.0,0.0,0.0,0.0,0.0,0.0,0.0,0.0,0.0,0.0,0.0,0.0,0.0,0.0,0.0,0.0,0.0,0.0,0.0,0.0,0.0,0.0,0.0,0.0,0.0,0.0,-0.7309,-0.7729,0.0,-0.7988,-0.7988,-0.7988,-0.7887,-0.7617,-0.7129,0.0,0.0,0.0,0.0,0.0,0.0,0.0,0.0,0.0,0.0,0.0,0.0,0.0,0.0,0.0,0.0,0.0,0.0,0.0,0.0,0.0,0.0,0.0,0.0,0.0,0.0,0.0,0.0,0.0,0.0,0.0,0.0,0.0,0.0,0.0,0.0,0.0,0.0,0.0,0.0,0.0,0.0,0.0,0.0,0.0,0.0,0.0,0.0,0.0,0.0,0.0,0.0,0.0,0.0,0.0,0.0,0.0,0.0,0.0,0.0,0.0,0.0,0.0,0.0,0.0,0.0,0.0,0.0,0.0,0.0,0.0,0.0,0.0,0.0,0.0,0.0,0.0,0.0,0.0,0.0,0.0,0.0,0.0,0.0,0.0,0.0,0.0,0.0,0.0,0.0,0.0,0.0,0.0,0.0,0.0,0.0,0.0,0.0,0.0,0.0,0.0,0.0,-0.6759,-0.7248,-0.7699,0.0,-0.7988,-0.7988,-0.7988,-0.7904,-0.7617,-0.7065,0.0,0.0,0.0,0.0,0.0,0.0,0.0,0.0,0.0,0.0,0.0,0.0,0.0,0.0,0.0,0.0,0.0,0.0,0.0,0.0,0.0,0.0,0.0,0.0,0.0,0.0,0.0,0.0,0.0,0.0,0.0,0.0,0.0,0.0,0.0,0.0,0.0,0.0,0.0,0.0,0.0,0.0,0.0,0.0,0.0,0.0,0.0,0.0,0.0,0.0,0.0,0.0,0.0,0.0,0.0,0.0,0.0,0.0,0.0,0.0,0.0,0.0,0.0,0.0,0.0,0.0,0.0,0.0,0.0,0.0,0.0,0.0,0.0,0.0,0.0,0.0,0.0,0.0,0.0,0.0,0.0,0.0,0.0,0.0,0.0,0.0,0.0,0.0,0.0,0.0,0.0,0.0,0.0,0.0,0.0,0.0,0.0,0.0,0.0,0.0,0.0,0.0,-0.6883,-0.753,-0.7988,-0.7988,-0.7988,-0.7988,-0.7988,-0.7773,-0.7414,0.0,0.0,0.0,0.0,0.0,0.0,0.0,0.0,0.0,0.0,0.0,0.0,0.0,0.0,0.0,0.0,0.0,0.0,0.0,0.0,0.0,0.0,0.0,0.0,0.0,0.0,0.0,0.0,0.0,0.0,0.0,0.0,0.0,0.0,0.0,0.0,0.0,0.0,0.0,0.0,0.0,0.0,0.0,0.0,0.0,0.0,0.0,0.0,0.0,0.0,0.0,0.0,0.0,0.0,0.0,0.0,0.0,0.0,0.0,0.0,0.0,0.0,0.0,0.0,0.0,0.0,0.0,0.0,0.0,0.0,0.0,0.0,0.0,0.0,0.0,0.0,0.0,0.0,0.0,0.0,0.0,0.0,0.0,0.0,0.0,0.0,0.0,0.0,0.0,0.0,0.0,0.0,0.0,0.0,0.0,0.0,0.0,0.0,0.0,0.0,0.0,0.0,0.0,-0.678,-0.7466,-0.7988,-0.7988,-0.7988,-0.7988,-0.7988,-0.7911,-0.7624,-0.7068,0.0,0.0,0.0,0.0,0.0,0.0,0.0,0.0,0.0,0.0,0.0,0.0,0.0,0.0,0.0,0.0,0.0,0.0,0.0,0.0,0.0,0.0,0.0,0.0,0.0,0.0,0.0,0.0,0.0,0.0,0.0,0.0,0.0,0.0,0.0,0.0,0.0,0.0,0.0,0.0,0.0,0.0,0.0,0.0,0.0,0.0,0.0,0.0,0.0,0.0,0.0,0.0,0.0,0.0,0.0,0.0,0.0,0.0,0.0,0.0,0.0,0.0,0.0,0.0,0.0,0.0,0.0,0.0,0.0,0.0,0.0,0.0,0.0,0.0,0.0,0.0,0.0,0.0,0.0,0.0,0.0,0.0,0.0,0.0,0.0,0.0,0.0,0.0,0.0,0.0,0.0,0.0,0.0,0.0,0.0,0.0,0.0,0.0,0.0,0.0,0.0,0.0,-0.6712,-0.7439,-0.7988,-0.7988,-0.7988,-0.7988,-0.7988,-0.7988,-0.7759,-0.7265,0.0,0.0,0.0,0.0,0.0,0.0,0.0,0.0,0.0,0.0,0.0,0.0,0.0,0.0,0.0,0.0,0.0,0.0,0.0,0.0,0.0,0.0,0.0,0.0,0.0,0.0,0.0,0.0,0.0,0.0,0.0,0.0,0.0,0.0,0.0,0.0,0.0,0.0,0.0,0.0,0.0,0.0,0.0,0.0,0.0,0.0,0.0,0.0,0.0,0.0,0.0,0.0,0.0,0.0,0.0,0.0,0.0,0.0,0.0,0.0,0.0,0.0,0.0,0.0,0.0,0.0,0.0,0.0,0.0,0.0,0.0,0.0,0.0,0.0,0.0,0.0,0.0,0.0,0.0,0.0,0.0,0.0,0.0,0.0,0.0,0.0,0.0,0.0,0.0,0.0,0.0,0.0,0.0,0.0,0.0,0.0,0.0,0.0,0.0,0.0,0.0,0.0,-0.6702,-0.7439,-0.7988,-0.7988,-0.7988,-0.7988,-0.7988,-0.7988,-0.7855,-0.7421,0.0,0.0,0.0,0.0,0.0,0.0,0.0,0.0,0.0,0.0,0.0,0.0,0.0,0.0,0.0,0.0,0.0,0.0,0.0,0.0,0.0,0.0,0.0,0.0,0.0,0.0,0.0,0.0,0.0,0.0,0.0,0.0,0.0,0.0,0.0,0.0,0.0,0.0,0.0,0.0,0.0,0.0,0.0,0.0,0.0,0.0,0.0,0.0,0.0,0.0,0.0,0.0,0.0,0.0,0.0,0.0,0.0,0.0,0.0,0.0,-0.5203,0.0,0.0,0.0,0.0,0.0,0.0,0.0,0.0,0.0,0.0,0.0,0.0,0.0,0.0,0.0,0.0,0.0,0.0,0.0,0.0,0.0,0.0,0.0,0.0,0.0,0.0,0.0,0.0,0.0,0.0,0.0,0.0,0.0,0.0,0.0,0.0,0.0,0.0,0.0,0.0,0.0,-0.6702,-0.7439,-0.7988,-0.7988,-0.7988,-0.7988,-0.7988,-0.7988,-0.785,-0.757,0.0,0.0,0.0,0.0,0.0,0.0,0.0,0.0,0.0,0.0,0.0,0.0,0.0,0.0,0.0,0.0,0.0,0.0,0.0,0.0,0.0,0.0,0.0,0.0,0.0,0.0,0.0,0.0,0.0,0.0,0.0,0.0,0.0,0.0,0.0,0.0,0.0,0.0,0.0,0.0,0.0,0.0,0.0,0.0,0.0,0.0,0.0,0.0,0.0,0.0,0.0,0.0,0.0,0.0,0.0,0.0,0.0,0.0,0.0,0.0,0.0,-0.507,0.0,0.0,0.0,0.0,0.0,0.0,0.0,0.0,0.0,0.0,0.0,0.0,0.0,0.0,0.0,0.0,0.0,0.0,0.0,0.0,0.0,0.0,0.0,0.0,0.0,0.0,0.0,0.0,0.0,0.0,0.0,0.0,0.0,0.0,0.0,0.0,0.0,0.0,0.0,0.0,-0.6997,-0.7617,-0.7988,-0.7988,-0.7988,-0.7988,-0.7988,-0.7988,-0.7924,-0.7821,-0.7678,0.0,0.0,0.0,0.0,0.0,0.0,0.0,0.0,0.0,0.0,0.0,0.0,0.0,0.0,0.0,0.0,0.0,0.0,0.0,0.0,0.0,0.0,0.0,0.0,0.0,0.0,0.0,0.0,0.0,0.0,0.0,0.0,0.0,0.0,0.0,0.0,0.0,0.0,0.0,0.0,0.0,0.0,0.0,0.0,0.0,0.0,0.0,0.0,0.0,0.0,0.0,0.0,0.0,0.0,-0.487,-0.567,-0.5669,-0.5615,-0.5605,-0.6221,-0.6273,-0.5997,0.0,0.0,0.0,0.0,0.0,0.0,0.0,0.0,0.0,0.0,0.0,0.0,0.0,0.0,0.0,0.0,0.0,0.0,0.0,0.0,0.0,0.0,0.0,0.0,0.0,-0.7678,-0.7607,0.0,0.0,0.0,0.0,0.0,0.0,0.0,0.0,0.0,0.0,0.0,0.0,-0.7397,-0.7838,-0.8066,-0.8066,-0.8046,-0.8029,-0.8029,-0.8005,-0.7988,-0.7988,-0.7811,-0.7563,0.0,0.0,0.0,0.0,0.0,0.0,0.0,0.0,0.0,0.0,0.0,0.0,0.0,0.0,0.0,0.0,0.0,0.0,0.0,0.0,0.0,0.0,0.0,0.0,0.0,0.0,0.0,0.0,0.0,0.0,0.0,0.0,0.0,0.0,0.0,0.0,0.0,0.0,0.0,0.0,0.0,0.0,0.0,0.0,0.0,0.0,0.0,0.0,-0.0248,-0.1459,-0.2125,-0.2281,-0.3486,-0.4117,-0.4271,-0.4283,-0.4964,-0.6103,-0.4678,0.0,-0.5913,-0.7026,0.0,0.0,0.0,0.0,0.0,0.0,0.0,0.0,0.0,0.0,0.0,0.0,0.0,0.0,0.0,0.0,0.0,0.0,0.0,0.0,0.0,0.0,-0.7884,-0.7924,-0.7931,-0.7921,0.0,-0.7462,-0.7048,-0.6886,0.0,0.0,0.0,0.0,0.0,0.0,0.0,0.0,-0.7729,-0.8143,-0.8425,-0.8425,-0.8313,-0.8241,-0.8241,-0.8116,-0.7988,-0.7988,-0.7951,-0.7914,-0.7874,-0.7371,0.0,0.0,0.0,0.0,0.0,0.0,0.0,0.0,0.0,0.0,0.0,0.0,0.0,0.0,0.0,0.0,0.0,0.0,0.0,0.0,0.0,0.0,0.0,0.0,0.0,0.0,0.0,0.0,0.0,0.0,0.0,0.0,0.0,0.0,0.0,0.0,0.0,0.0,0.0,0.0,0.0,0.0,0.0,0.0,0.0,-0.0347,-0.1108,-0.1795,-0.2471,-0.3272,-0.3971,-0.4772,-0.5613,-0.5613,-0.5558,-0.5442,-0.6413,-0.568,-0.388,-0.4893,-0.531,-0.5177,0.0,0.0,0.0,0.0,0.0,-0.4413,-0.4683,0.0,0.0,0.0,0.0,0.0,0.0,0.0,0.0,0.0,0.0,0.0,0.0,0.0,0.0,-0.8248,-0.8289,-0.8289,-0.8289,-0.8082,-0.7801,0.0,-0.7424,-0.7288,-0.6858,0.0,0.0,0.0,0.0,0.0,-0.8147,-0.836,-0.8482,-0.8482,-0.8425,-0.8387,-0.8387,-0.8255,-0.817,-0.817,-0.8089,-0.7951,-0.7916,-0.7658,-0.7314,0.0,0.0,0.0,0.0,0.0,0.0,0.0,0.0,0.0,0.0,0.0,0.0,0.0,0.0,0.0,0.0,0.0,0.0,0.0,0.0,0.0,0.0,0.0,0.0,0.0,0.0,0.0,0.0,0.0,0.0,0.0,0.0,0.0,0.0,0.0,0.0,0.0,0.0,0.0,0.0,0.0,0.0,0.0,0.0,-0.0483,-0.1503,-0.1577,-0.2336,-0.3748,-0.3908,-0.4805,-0.6385,-0.6385,-0.5977,-0.5391,-0.6973,-0.582,-0.2924,-0.3947,-0.4091,-0.3613,-0.3446,-0.3197,-0.2955,-0.2985,-0.3052,-0.3172,-0.3736,-0.4781,-0.6009,-0.6366,0.0,-0.796,-0.7845,0.0,0.0,0.0,0.0,-0.7543,-0.7801,0.0,-0.8208,-0.8428,-0.8482,-0.8482,-0.8482,-0.8513,-0.8431,0.0,-0.7984,-0.7875,-0.7543,0.0,0.0,0.0,0.0,-0.8177,-0.855,-0.8601,-0.8601,-0.8601,-0.8564,-0.854,-0.854,-0.8408,-0.8361,-0.8323,-0.8163,-0.8028,-0.7875,-0.7831,-0.7604,-0.7119,0.0,0.0,0.0,0.0,0.0,0.0,0.0,0.0,0.0,0.0,0.0,0.0,0.0,0.0,0.0,0.0,0.0,0.0,0.0,0.0,0.0,0.0,0.0,0.0,0.0,0.0,0.0,0.0,0.0,0.0,0.0,0.0,0.0,0.0,0.0,0.0,0.0,0.0,0.0,0.0,0.0,0.0,0.0,-0.0059,-0.0117,-0.0117,-0.0939,-0.2581,-0.2583,-0.3462,-0.4984,-0.4984,-0.5743,-0.6796,-0.4048,-0.3518,-0.4671,-0.5976,-0.561,-0.409,-0.3618,-0.3452,-0.3542,-0.3333,-0.3401,-0.3823,-0.5523,-0.6175,-0.65,-0.7928,-0.8403,-0.837,-0.794,-0.7794,0.0,0.0,-0.7567,-0.7824,-0.7938,-0.8241,-0.8465,-0.8479,-0.8482,-0.8482,-0.8482,-0.8598,-0.8648,0.0,-0.8448,-0.8306,-0.7865,0.0,-0.8326,-0.8015,-0.8391,-0.8726,-0.8841,-0.8861,-0.8861,-0.8861,-0.8784,-0.8699,-0.8699,-0.856,-0.8414,-0.833,-0.8313,-0.8187,-0.7985,-0.7889,-0.7797,-0.7767,-0.7301,0.0,0.0,0.0,0.0,0.0,0.0,0.0,0.0,0.0,0.0,0.0,0.0,0.0,0.0,0.0,0.0,0.0,0.0,0.0,0.0,0.0,0.0,0.0,0.0,0.0,0.0,0.0,0.0,0.0,0.0,0.0,0.0,0.0,0.0,0.0,0.0,0.0,0.0,0.0,0.0,0.0,0.0,0.0,0.0,0.0,-0.0841,-0.2483,-0.2483,-0.393,-0.652,-0.652,-0.6219,-0.574,-0.6762,-0.5105,-0.1848,-0.4472,-0.3946,-0.1486,-0.1284,-0.1221,-0.1283,-0.1219,-0.1818,-0.2799,-0.3441,-0.4922,-0.6798,-0.8282,-0.8774,-0.8747,-0.8584,-0.8484,-0.8513,-0.8411,-0.8455,-0.8497,-0.8551,-0.8642,-0.8774,-0.8774,-0.8774,-0.8774,-0.8774,-0.8818,-0.8842,-0.8784,-0.8774,-0.8723,-0.8511,-0.8669,-0.874,-0.8581,-0.8703,-0.8821,-0.8875,-0.8885,-0.8885,-0.8885,-0.8834,-0.8804,-0.8804,-0.8716,-0.8608,-0.8557,-0.8462,-0.834,-0.8194,-0.8136,-0.8014,-0.7814,-0.7655,-0.7312,0.0,0.0,0.0,0.0,0.0,0.0,0.0,0.0,0.0,0.0,0.0,0.0,0.0,0.0,0.0,0.0,0.0,0.0,0.0,0.0,0.0,0.0,0.0,0.0,0.0,0.0,0.0,0.0,0.0,0.0,0.0,0.0,0.0,0.0,0.0,0.0,0.0,0.0,0.0,0.0,-0.0538,-0.0601,0.0,-0.1093,-0.2195,-0.3322,-0.3872,-0.5586,-0.8218,-0.8218,-0.7609,-0.6632,-0.7673,-0.5677,-0.1759,-0.2788,-0.1989,0.0,0.0,0.0,0.0,0.0,-0.0643,-0.1619,-0.2657,-0.5041,-0.7779,-0.8745,-0.9086,-0.9086,-0.9086,-0.9086,-0.9086,-0.9086,-0.9086,-0.9086,-0.9086,-0.9086,-0.9086,-0.9086,-0.9086,-0.9086,-0.9086,-0.9086,-0.9086,-0.9086,-0.8952,-0.8851,-0.8801,-0.8784,-0.8767,-0.872,-0.8615,-0.8602,-0.8706,-0.8754,-0.8784,-0.8784,-0.8821,-0.8885,-0.8885,-0.875,-0.8655,-0.8706,-0.8523,-0.8391,-0.8343,-0.8197,-0.8021,-0.7814,-0.7614,-0.7319,-0.6926,0.0,0.0,0.0,0.0,0.0,0.0,0.0,0.0,0.0,0.0,0.0,0.0,0.0,0.0,0.0,0.0,0.0,0.0,0.0,0.0,0.0,0.0,0.0,0.0,0.0,0.0,0.0,0.0,0.0,0.0,0.0,0.0,0.0,0.0,0.0,0.0,0.0,0.0,0.0,-0.1604,-0.1727,-0.0124,-0.3326,-0.4925,-0.4984,-0.6637,-0.8233,-0.9836,-0.9836,-0.9775,-0.9589,-0.6392,-0.4981,-0.4674,-0.1479,-0.0123,-0.0062,0.0,0.0,0.0,-0.0059,-0.0118,-0.0648,-0.3755,-0.6854,-0.9381,-0.9381,-0.9381,-0.9381,-0.9381,-0.9381,-0.9381,-0.9381,-0.9381,-0.9381,-0.9381,-0.9381,-0.9381,-0.9381,-0.9381,-0.9381,-0.9381,-0.9381,-0.9381,-0.9381,-0.915,-0.8859,-0.856,-0.8509,-0.8462,-0.8378,-0.8177,0.0,-0.8286,-0.8421,-0.8499,-0.8489,-0.876,-0.8878,-0.8868,-0.8662,-0.856,-0.871,-0.8448,-0.835,-0.8482,-0.8072,-0.7834,-0.7824,-0.7248,-0.7088,-0.7415,0.0,0.0,0.0,0.0,0.0,0.0,0.0,0.0,0.0,0.0,0.0,0.0,0.0,0.0,0.0,0.0,0.0,0.0,0.0,0.0,0.0,0.0,0.0,0.0,0.0,0.0,0.0,0.0,0.0,0.0,0.0,0.0,0.0,0.0,0.0,0.0,0.0,0.0,0.0,-0.1708,-0.2415,-0.1971,-0.4126,-0.5837,-0.6979,-0.7481,-0.856,-1.0154,-1.0154,-0.9516,-0.8366,-0.8528,-0.7237,-0.4989,-0.3952,-0.2893,-0.1662,-0.0489,0.0,-0.0122,-0.1339,-0.3256,-0.5418,-0.7413,-0.8674,-0.9381,-0.9381,-0.9381,-0.9381,-0.9381,-0.9381,-0.9381,-0.9381,-0.9381,-0.9381,-0.9381,-0.9381,-0.9381,-0.9381,-0.9381,-0.9381,-0.9381,-0.9381,-0.9381,-0.9381,-0.9317,-0.9232,-0.9147,-0.9133,-0.912,-0.9083,0.0,0.0,-0.9072,-0.9067,-0.8941,-0.8669,-0.8821,-0.8794,-0.8625,-0.8733,-0.8832,0.0,-0.8801,-0.8723,-0.8652,-0.853,-0.8364,-0.815,-0.7665,-0.74,0.0,0.0,0.0,0.0,0.0,0.0,0.0,0.0,0.0,0.0,0.0,0.0,0.0,0.0,0.0,0.0,0.0,0.0,0.0,0.0,0.0,0.0,0.0,0.0,0.0,0.0,0.0,0.0,0.0,0.0,0.0,0.0,0.0,0.0,0.0,0.0,0.0,0.0,-0.0319,-0.1082,-0.2817,-0.3406,-0.2701,-0.5842,-0.7188,-0.6675,-0.8153,-0.9376,-1.028,-1.028,-0.9764,0.0,-0.8204,-0.7285,-0.6141,-0.4586,-0.3808,0.0,0.0,0.0,0.0,0.0,-0.3608,-0.5509,-0.7793,-0.8545,-0.8663,-0.9327,-0.9564,-0.9564,-0.9564,-0.9564,-0.9564,-0.9564,-0.9564,-0.9564,-0.9564,-0.9564,-0.9564,-0.9564,-0.9564,-0.9564,-0.9564,-0.9564,-0.9564,-0.9564,0.0,0.0,-0.9564,-0.9361,-0.9174,-0.911,-0.9045,-0.9028,0.0,-0.9079,-0.8998,-0.8825,-0.894,-0.8957,-0.8832,-0.8754,0.0,0.0,0.0,-0.8679,-0.8533,-0.8526,0.0,0.0,0.0,-0.7587,0.0,0.0,0.0,0.0,-0.7296,-0.7338,0.0,0.0,0.0,0.0,0.0,0.0,0.0,0.0,0.0,0.0,0.0,0.0,0.0,0.0,0.0,0.0,0.0,0.0,0.0,0.0,0.0,0.0,0.0,0.0,0.0,0.0,0.0,0.0,0.0,0.0,0.0,0.0,0.0,0.0,0.0,-0.4453,-0.3036,-0.7868,-0.8773,-0.574,-0.884,-1.0331,-1.0331,-1.0136,-1.0068,-0.9873,-0.6567,-0.6112,-0.7527,-0.4306,-0.3697,-0.4525,-0.1488,-0.0493,-0.0986,-0.2278,-0.3015,0.0,0.0,0.0,0.0,-0.9329,-0.9822,-0.9822,-0.9822,-0.9822,-0.9822,-0.9822,-0.9822,-0.9822,-0.9822,-0.9822,-0.9822,-0.9822,-0.9822,-0.9822,-0.9822,-0.9822,-0.9822,-0.9822,-0.9822,-0.9822,-0.9822,-0.9384,-0.8935,-0.8855,-0.872,0.0,-0.8818,-0.894,-0.8946,-0.8912,0.0,0.0,-0.9163,-0.8821,-0.8665,-0.8868,-0.8682,-0.8476,-0.835,-0.833,-0.8133,-0.7733,-0.7706,-0.7763,-0.7885,-0.7885,-0.7957,-0.8069,-0.8035,-0.772,0.0,0.0,0.0,0.0,0.0,0.0,0.0,0.0,0.0,0.0,0.0,0.0,0.0,0.0,0.0,0.0,0.0,0.0,0.0,0.0,0.0,0.0,0.0,0.0,0.0,0.0,0.0,0.0,0.0,0.0,0.0,0.0,0.0,-0.0525,-0.3637,-0.5187,-0.4855,-0.8703,-1.03,-0.9632,0.0,0.0,-1.0567,-0.9099,-0.8434,-0.8294,-0.6104,-0.6139,-0.7637,-0.5483,-0.404,-0.3065,-0.2302,-0.3626,-0.5829,-0.4792,-0.6141,-0.8468,-0.9143,-0.9329,-0.939,-0.9697,-0.9822,-0.9822,-0.9822,-0.9822,0.0,-0.9822,-0.9822,-0.9822,-0.9822,-0.9822,-0.9822,-0.9822,-0.9822,-0.9822,-0.9822,-0.9822,-0.9822,-0.9822,-0.9822,-0.9822,-0.9822,-0.9727,-0.9642,-0.9612,-0.9581,-0.9571,-0.9602,-0.953,-0.9384,-0.9137,-0.9249,-0.9191,-0.8828,-0.8937,-0.8998,-0.8888,-0.8828,-0.8784,-0.8811,-0.8689,-0.8584,-0.8496,-0.8374,-0.8326,-0.8353,-0.8353,-0.8367,-0.8387,-0.8118,-0.7956,0.0,0.0,0.0,0.0,0.0,0.0,0.0,0.0,0.0,0.0,0.0,0.0,0.0,0.0,0.0,0.0,0.0,0.0,0.0,0.0,0.0,0.0,0.0,0.0,0.0,0.0,0.0,0.0,0.0,0.0,0.0,0.0,-0.0399,-0.133,-0.3076,-0.4494,-0.5364,-0.7167,-0.8038,-0.8038,-0.8038,-0.8038,-0.8038,-0.7098,-0.6698,-0.6562,-0.4724,-0.4909,-0.6491,-0.5485,-0.5192,-0.5052,-0.3235,-0.3504,-0.4965,-0.493,-0.5957,-0.7612,-0.9207,-0.8714,-0.7612,-0.9268,-0.9265,-0.8772,-0.9576,-0.9822,-0.9822,-0.9822,-0.9822,-0.9822,-0.9822,-0.9822,-0.9822,-0.9822,-0.9822,-0.9822,-0.9822,-0.9822,-0.9822,-0.9822,-0.9822,-0.9822,-0.9822,-0.9822,-0.9822,-0.9822,-0.9822,-0.9822,-0.9822,-0.9758,-0.9656,-0.9503,-0.9493,-0.9405,-0.9181,-0.9157,-0.9093,-0.8892,-0.8885,-0.8885,-0.8885,-0.8811,-0.8825,-0.8825,-0.875,-0.8672,-0.8598,-0.8598,-0.8557,-0.8479,-0.833,-0.8262,0.0,0.0,0.0,0.0,0.0,0.0,0.0,0.0,0.0,0.0,0.0,0.0,0.0,0.0,0.0,0.0,0.0,0.0,0.0,0.0,0.0,0.0,0.0,0.0,0.0,0.0,0.0,0.0,0.0,0.0,0.0,0.0,-0.0673,-0.2149,-0.2484,-0.3422,-0.4827,-0.5228,-0.5431,-0.5431,-0.5431,-0.5431,-0.5364,-0.5029,-0.4896,-0.4827,-0.3355,-0.3556,-0.4891,-0.5098,-0.5798,-0.6513,-0.3634,-0.2501,-0.2724,-0.4289,-0.4875,-0.5304,-0.8291,-0.7365,-0.5406,-0.8346,-0.8465,-0.7728,-0.9326,-0.9822,-0.9822,-0.9822,-0.9822,-0.9822,-0.9822,-0.9822,-0.9822,-0.9822,-0.9822,-0.9822,-0.9822,-0.9822,-0.9822,-0.9822,-0.9822,-0.9822,-0.9822,-0.9822,-0.9822,-0.9822,-0.9822,-0.9822,-0.9822,-0.9822,-0.9822,-0.9822,-0.972,-0.9639,-0.9612,-0.9327,-0.9103,-0.8988,-0.8898,-0.8885,-0.8885,-0.8885,-0.8885,-0.8885,-0.8885,-0.8821,-0.8754,-0.8754,-0.8693,-0.857,-0.857,-0.8537,0.0,-0.0955,-0.1913,-0.1677,-0.1761,-0.1613,0.0,0.0,0.0,0.0,0.0,0.0,0.0,0.0,0.0,0.0,0.0,0.0,0.0,0.0,0.0,0.0,0.0,0.0,0.0,0.0,0.0,0.0,0.0,0.0,0.0,0.0,-0.0067,-0.0269,-0.1881,-0.2819,-0.3021,-0.4626,-0.5431,-0.5431,-0.5431,-0.5431,-0.5362,-0.3757,-0.3021,-0.302,-0.2819,-0.2819,-0.3154,-0.4686,-0.4549,-0.3209,-0.2834,-0.262,-0.2672,-0.4305,-0.4885,-0.5187,-0.7025,-0.6444,-0.5223,-0.7055,-0.7545,-0.7728,-0.9326,-0.9822,-0.9822,-0.9822,-0.9822,-0.9822,-0.9822,-0.9822,-0.9822,-0.9822,-0.9822,-0.9822,-0.9822,-0.9822,-0.9822,-0.9822,-0.9822,-0.9822,-0.9822,-0.9822,-0.9822,-0.9822,-0.9822,-0.9822,-0.9822,-0.9822,-0.9822,-0.9822,-0.9805,-0.9747,-0.9618,-0.9327,-0.9204,-0.9187,-0.9011,-0.8885,-0.8885,-0.8885,-0.8885,-0.8885,-0.8885,-0.8875,-0.8858,-0.8858,-0.8848,-0.8834,-0.8834,-0.8743,0.0,-0.0447,-0.0896,0.0,-0.0836,-0.0738,-0.0166,0.0,0.0,0.0,0.0,0.0,0.0,0.0,0.0,0.0,0.0,0.0,0.0,0.0,0.0,0.0,0.0,0.0,0.0,0.0,0.0,0.0,0.0,0.0,0.0,0.0,0.0,0.0,-0.0755,-0.1652,-0.2682,-0.2407,-0.2808,-0.3802,-0.2786,-0.2234,-0.2216,-0.1478,-0.1143,-0.1143,-0.1143,-0.1747,-0.2685,-0.235,-0.2417,-0.2617,-0.1535,-0.1066,-0.1261,-0.2897,-0.4112,-0.5017,-0.5731,-0.4887,-0.3935,-0.6564,-0.675,-0.6446,-0.9022,-0.9822,-0.9822,-0.9822,-0.9822,-0.9822,-0.9822,-0.9822,-0.9822,-0.9822,-0.9822,-0.9822,-0.9822,-0.9822,-0.9822,-0.9822,-0.9822,-0.9822,-0.9822,-0.9822,-0.9822,-0.9822,-0.9822,-0.9822,-0.9822,-0.9822,-0.9822,-0.9822,-0.9822,-0.9764,-0.9622,-0.9493,-0.9381,-0.935,-0.9144,-0.9062,-0.9062,-0.8984,-0.8885,-0.8885,-0.8885,-0.8885,-0.8885,-0.8885,-0.8885,-0.8885,-0.8885,-0.8814,-0.0504,-0.0812,0.0,-0.0603,-0.055,-0.0495,-0.0115,0.0,0.0,0.0,0.0,0.0,0.0,0.0,0.0,0.0,0.0,0.0,0.0,0.0,0.0,0.0,0.0,0.0,0.0,0.0,0.0,0.0,0.0,0.0,0.0,0.0,0.0,0.0,0.0,-0.0631,-0.196,-0.0631,-0.0628,-0.1931,-0.0619,0.0,0.0,0.0,0.0,0.0,0.0,-0.074,-0.1881,-0.0538,-0.074,-0.1813,-0.0538,0.0,-0.0134,-0.1378,-0.2579,-0.3621,-0.4096,-0.3185,-0.2291,-0.5104,-0.5221,-0.4855,-0.816,-0.9143,-0.9204,-0.9697,-0.9822,-0.9822,-0.9822,-0.9822,-0.9822,-0.9822,-0.9822,-0.9822,-0.9822,-0.9822,-0.9822,-0.9822,-0.9822,-0.9822,-0.9822,-0.9822,-0.9822,-0.9822,-0.9822,-0.9822,-0.9822,-0.9822,-0.9822,-0.9822,-0.9822,-0.9778,-0.9676,-0.9632,-0.9561,-0.9452,-0.93,-0.9255,-0.921,-0.9052,-0.8981,-0.8885,-0.8885,-0.8885,-0.8885,-0.8885,-0.8885,-0.8885,-0.8885,-0.8885,-0.1748,-0.2782,-0.3519,-0.2102,-0.1957,-0.1782,-0.0352,0.0,0.0,0.0,0.0,0.0,0.0,0.0,0.0,0.0,0.0,0.0,0.0,0.0,0.0,0.0,0.0,0.0,0.0,0.0,0.0,0.0,0.0,0.0,0.0,0.0,0.0,0.0,0.0,0.0,-0.007,0.0,0.0,-0.007,0.0,0.0,0.0,0.0,0.0,0.0,0.0,0.0,-0.0067,0.0,0.0,-0.0067,0.0,0.0,0.0,-0.0067,-0.0133,-0.0393,-0.2036,-0.1449,-0.0378,-0.2105,-0.2585,-0.3199,-0.6503,-0.7482,-0.7789,-0.939,-0.9822,-0.9822,-0.9822,-0.9822,-0.9822,-0.9822,-0.9822,-0.9822,-0.9822,-0.9822,-0.9822,-0.9822,-0.9822,-0.9822,-0.9822,-0.9822,-0.9822,-0.9822,-0.9822,-0.9822,-0.9822,-0.9822,-0.9822,-0.9822,-0.9822,-0.9819,-0.9815,-0.969,-0.9608,-0.9602,-0.9459,-0.9306,-0.9214,-0.9207,-0.9083,-0.8888,-0.8885,-0.8885,-0.8885,-0.8885,-0.8885,-0.8885,-0.8885,-0.8885,-0.1812,-0.2544,-0.2626,-0.1007,-0.1492,-0.199,-0.0358,0.0,0.0,0.0,0.0,0.0,0.0,0.0,0.0,0.0,0.0,0.0,0.0,0.0,0.0,0.0,0.0,0.0,0.0,0.0,0.0,0.0,0.0,0.0,0.0,0.0,0.0,0.0,0.0,0.0,0.0,0.0,0.0,0.0,0.0,0.0,0.0,0.0,0.0,0.0,0.0,0.0,0.0,0.0,0.0,0.0,0.0,0.0,0.0,0.0,0.0,-0.0067,-0.0653,-0.0449,-0.0252,-0.1942,-0.2483,-0.2892,-0.5098,-0.571,-0.6077,-0.7728,-0.8218,-0.8465,-0.9511,-0.9822,-0.9822,-0.9822,-0.9822,-0.9822,-0.9822,-0.9822,-0.9822,-0.9822,-0.9822,-0.9822,-0.9822,-0.9822,-0.9822,-0.9822,-0.9822,-0.9822,-0.9822,-0.9822,-0.9822,-0.9822,-0.9822,-0.9822,-0.9822,-0.9778,-0.9751,-0.9751,-0.9612,-0.951,-0.9459,-0.9357,-0.9232,-0.9083,-0.9083,-0.9032,-0.8885,-0.8885,-0.8885,-0.8885,-0.8885,-0.8885,-0.2111,-0.2294,-0.204,-0.1098,-0.1236,-0.1489,-0.1029,-0.0425,-0.0304,-0.1394,-0.0772,-0.0175,-0.0632,-0.0341,0.0,0.0,0.0,0.0,0.0,0.0,0.0,0.0,0.0,0.0,0.0,0.0,0.0,0.0,0.0,0.0,0.0,0.0,0.0,0.0,0.0,0.0,0.0,0.0,0.0,0.0,0.0,0.0,0.0,0.0,0.0,0.0,0.0,0.0,0.0,0.0,0.0,0.0,0.0,0.0,0.0,0.0,0.0,0.0,0.0,0.0,-0.0191,-0.1263,-0.1622,-0.191,-0.3568,-0.4057,-0.4487,-0.675,-0.7421,-0.7789,-0.939,-0.9822,-0.9822,-0.9822,-0.9822,-0.9822,-0.9822,-0.9822,-0.9822,-0.9822,-0.9822,-0.9822,-0.9822,-0.9822,-0.9822,-0.9822,-0.9822,-0.9822,-0.9822,-0.9822,-0.9822,-0.9822,-0.9822,-0.9822,-0.9822,-0.9822,-0.9822,-0.9822,-0.9734,-0.9663,-0.9612,-0.9513,-0.9391,-0.9296,-0.9292,-0.9188,-0.9096,-0.9096,-0.9069,-0.9015,-0.9015,-0.9015,-0.276,-0.227,-0.2058,-0.2489,-0.1506,-0.0787,-0.227,-0.1354,-0.1037,-0.3831,-0.208,-0.0453,0.0,0.0,0.0,0.0,0.0,0.0,0.0,0.0,0.0,0.0,0.0,0.0,0.0,0.0,0.0,0.0,0.0,0.0,0.0,0.0,0.0,0.0,0.0,0.0,0.0,0.0,0.0,0.0,0.0,0.0,0.0,0.0,0.0,0.0,0.0,0.0,0.0,0.0,0.0,0.0,0.0,0.0,0.0,0.0,0.0,0.0,0.0,0.0,0.0,0.0,0.0,-0.0309,-0.191,-0.2401,-0.3015,-0.6259,-0.7238,-0.7667,-0.9265,-0.9761,-0.9822,-0.9822,-0.9822,-0.9822,-0.9822,-0.9822,-0.9822,-0.9822,-0.9822,-0.9822,-0.9822,-0.9822,-0.9822,-0.9822,-0.9822,-0.9822,-0.9822,-0.9822,-0.9822,-0.9822,-0.9822,-0.9822,-0.9822,-0.9822,-0.9822,-0.9822,-0.9822,-0.9761,-0.9625,-0.9618,-0.9547,-0.9395,-0.9395,-0.9388,-0.9381,-0.9381,-0.9364,-0.9221,-0.9221,-0.9221,-0.3527,-0.4151,-0.4116,-0.4234,-0.4903,-0.5315,-0.4482,-0.3805,-0.3306,-0.3067,-0.2211,-0.1268,0.0,0.0,0.0,0.0,0.0,0.0,0.0,0.0,0.0,0.0,0.0,0.0,0.0,0.0,0.0,0.0,0.0,0.0,0.0,0.0,0.0,0.0,0.0,0.0,0.0,0.0,0.0,0.0,0.0,0.0,0.0,0.0,0.0,0.0,0.0,0.0,0.0,0.0,0.0,0.0,0.0,0.0,0.0,0.0,0.0,0.0,0.0,0.0,0.0,0.0,0.0,-0.0062,-0.0494,-0.0617,-0.1048,-0.3136,-0.4608,-0.5894,-0.7606,-0.8897,-0.9822,-0.9822,-0.9822,-0.9822,-0.9822,-0.9822,-0.9822,-0.9822,-0.9822,-0.9822,-0.9822,-0.9822,-0.9822,-0.9822,-0.9822,-0.9822,-0.9822,-0.9822,-0.9822,-0.9822,-0.9822,-0.9822,-0.9822,-0.9822,-0.9822,-0.9822,-0.9822,-0.9805,-0.9768,-0.9768,-0.97,-0.9554,-0.9551,-0.9496,-0.9381,-0.9381,-0.9361,-0.9323,-0.9323,-0.9323,-0.4036,-0.3786,-0.3245,-0.5425,-0.5612,-0.5192,-0.4969,-0.4232,-0.3553,-0.3394,-0.2194,0.0,-0.1864,-0.1486,0.0,0.0,0.0,0.0,-0.0126,0.0,0.0,0.0,0.0,0.0,0.0,0.0,0.0,0.0,0.0,0.0,0.0,0.0,0.0,0.0,0.0,0.0,0.0,0.0,0.0,0.0,0.0,0.0,0.0,0.0,0.0,0.0,0.0,0.0,0.0,0.0,0.0,0.0,0.0,0.0,0.0,0.0,0.0,0.0,0.0,0.0,0.0,0.0,0.0,0.0,0.0,0.0,-0.037,-0.2033,-0.3139,-0.4426,-0.6811,-0.8097,-0.8897,-0.9636,-0.9822,-0.9822,-0.9822,-0.9822,-0.9822,-0.9822,-0.9822,-0.9822,-0.9822,-0.9822,-0.9822,-0.9822,-0.9822,-0.9822,-0.9822,-0.9822,-0.9822,-0.9822,-0.9822,-0.9822,-0.9822,-0.9822,-0.9822,-0.9822,-0.9822,-0.9822,-0.9822,-0.9822,-0.9785,-0.9703,-0.9703,-0.9659,-0.9574,-0.9574,-0.9544,-0.9483,-0.9483,-0.9483,-0.4086,-0.2521,-0.1421,-0.5952,-0.4906,-0.316,-0.4572,-0.3767,-0.3059,-0.4029,0.0,-0.1028,-0.3441,-0.3112,-0.2437,-0.2488,0.0,-0.2208,-0.0563,-0.0319,-0.0259,0.0,0.0,0.0,0.0,0.0,0.0,0.0,0.0,0.0,0.0,0.0,0.0,0.0,0.0,0.0,0.0,0.0,0.0,0.0,0.0,0.0,0.0,0.0,0.0,0.0,0.0,0.0,0.0,0.0,0.0,0.0,0.0,0.0,0.0,0.0,0.0,0.0,0.0,0.0,0.0,0.0,0.0,0.0,0.0,0.0,-0.0309,-0.1787,-0.234,-0.3199,-0.6259,-0.7238,-0.7789,-0.939,-0.9822,-0.9822,-0.9822,-0.9822,-0.9822,-0.9822,-0.9822,-0.9822,-0.9822,-0.9822,-0.9822,-0.9822,-0.9822,-0.9822,-0.9822,-0.9822,-0.9822,-0.9822,-0.9822,-0.9822,-0.9822,-0.9822,-0.9822,-0.9822,-0.9822,-0.9822,-0.9822,-0.9822,-0.9822,-0.9822,-0.9822,-0.9822,-0.9822,-0.9822,-0.9758,-0.9639,-0.9639,-0.9639,-0.2801,-0.2499,-0.2596,-0.48,-0.4931,-0.4554,-0.4861,-0.454,0.0,0.0,-0.22,-0.1463,-0.0881,-0.1495,-0.2178,-0.2431,-0.3424,-0.3681,-0.2276,-0.2088,-0.1547,0.0,0.0,0.0,0.0,0.0,0.0,0.0,0.0,0.0,0.0,0.0,0.0,0.0,0.0,0.0,0.0,0.0,0.0,0.0,0.0,0.0,0.0,0.0,0.0,0.0,0.0,0.0,0.0,0.0,0.0,0.0,0.0,0.0,0.0,0.0,0.0,0.0,0.0,0.0,0.0,0.0,0.0,0.0,0.0,0.0,-0.0062,-0.037,-0.1417,-0.2954,-0.4855,-0.6383,-0.7789,-0.939,-0.9822,-0.9822,-0.9822,-0.9822,-0.9822,-0.9822,-0.9822,-0.9822,-0.9822,-0.9822,-0.9822,-0.9822,-0.9822,-0.9822,-0.9822,-0.9822,-0.9822,-0.9822,-0.9822,-0.9822,-0.9822,-0.9822,-0.9822,-0.9822,-0.9822,-0.9822,-0.9822,-0.9822,-0.9822,-0.9822,-0.9822,-0.9822,-0.9822,-0.9822,-0.9808,-0.9785,-0.9785,-0.9785,-0.2235,-0.1879,-0.1806,-0.4255,-0.4297,-0.366,-0.3646,0.0,0.0,0.0,-0.1061,-0.1017,-0.1262,-0.1824,0.0,-0.3419,-0.3478,-0.3155,-0.2335,-0.1616,0.0,0.0,0.0,0.0,0.0,0.0,0.0,0.0,0.0,0.0,0.0,0.0,0.0,0.0,0.0,0.0,0.0,0.0,0.0,0.0,0.0,0.0,0.0,0.0,0.0,0.0,0.0,0.0,0.0,0.0,0.0,0.0,0.0,0.0,0.0,0.0,0.0,0.0,0.0,0.0,0.0,0.0,0.0,0.0,0.0,0.0,0.0,0.0,-0.0555,-0.1602,-0.3199,-0.4853,-0.6505,-0.8158,-0.9204,-0.9822,-0.9822,-0.9822,-0.9822,-0.9822,-0.9822,-0.9822,-0.9822,-0.9822,-0.9822,-0.9822,-0.9822,-0.9822,-0.9822,-0.9822,-0.9822,-0.9822,-0.9822,-0.9822,-0.9822,-0.9822,-0.9822,-0.9822,-0.9822,-0.9822,-0.9822,-0.9822,-0.9822,-0.9822,-0.9822,-0.9822,-0.9822,-0.9822,-0.9822,-0.9822,-0.9822,-0.9822,-0.1702,-0.101,-0.0634,-0.3201,-0.2928,-0.1956,-0.1955,-0.1968,0.0,-0.0275,0.0,-0.0412,-0.1744,-0.2188,-0.2778,0.0,-0.3427,-0.2718,-0.2211,-0.1216,0.0,0.0,0.0,0.0,0.0,0.0,0.0,0.0,0.0,0.0,0.0,0.0,0.0,0.0,0.0,0.0,0.0,0.0,0.0,0.0,0.0,0.0,0.0,0.0,0.0,0.0,0.0,0.0,0.0,0.0,0.0,0.0,0.0,0.0,0.0,0.0,0.0,0.0,0.0,0.0,0.0,0.0,0.0,0.0,0.0,0.0,0.0,0.0,0.0,-0.037,-0.2094,-0.369,-0.5406,-0.7423,-0.8897,-0.9822,-0.9822,-0.9822,-0.9822,-0.9822,-0.9822,-0.9822,-0.9822,-0.9822,-0.9822,-0.9822,-0.9822,-0.9822,-0.9822,-0.9822,-0.9822,-0.9822,-0.9822,-0.9822,-0.9822,-0.9822,-0.9822,-0.9822,-0.9822,-0.9822,-0.9822,-0.9822,-0.9822,-0.9822,-0.9822,-0.9822,-0.9822,-0.9822,-0.9822,-0.9822,-0.9822,-0.9822,-0.0555,-0.0113,-0.0058,-0.0403,-0.0349,-0.0231,-0.0212,0.0,-0.0202,-0.0046,0.0,-0.0046,-0.0194,-0.1238,-0.2205,-0.2627,-0.3579,-0.3897,-0.2619,0.0,0.0,0.0,0.0,0.0,0.0,0.0,0.0,0.0,0.0,0.0,0.0,0.0,0.0,0.0,0.0,0.0,0.0,0.0,0.0,0.0,0.0,0.0,0.0,0.0,0.0,0.0,0.0,0.0,0.0,0.0,0.0,0.0,0.0,0.0,0.0,0.0,0.0,0.0,0.0,0.0,0.0,0.0,0.0,0.0,0.0,0.0,0.0,0.0,0.0,-0.037,-0.2094,-0.369,-0.5712,-0.8839,-0.9697,-0.9822,-0.9822,-0.9822,-0.9822,-0.9822,-0.9822,-0.9822,-0.9822,-0.9822,-0.9822,-0.9822,-0.9822,-0.9822,-0.9822,-0.9822,-0.9822,-0.9822,-0.9822,-0.9822,-0.9822,-0.9822,-0.9822,-0.9822,-0.9822,-0.9822,-0.9822,-0.9822,-0.9822,-0.9822,-0.9822,-0.9822,-0.9822,-0.9822,-0.9822,-0.9822,-0.9822,-0.9822,-0.0158,0.0,0.0,0.0,0.0,0.0,0.0,0.0,0.0,0.0,0.0,0.0,0.0,-0.0414,-0.1109,-0.204,-0.1983,-0.1901,-0.215,0.0,0.0,0.0,0.0,0.0,0.0,0.0,0.0,0.0,0.0,0.0,0.0,0.0,0.0,0.0,0.0,0.0,0.0,0.0,0.0,0.0,0.0,0.0,0.0,0.0,0.0,0.0,0.0,0.0,0.0,0.0,0.0,0.0,0.0,0.0,0.0,0.0,0.0,0.0,0.0,0.0,0.0,0.0,0.0,0.0,0.0,0.0,0.0,0.0,0.0,-0.0123,-0.0802,-0.2217,-0.4303,-0.7545,-0.8343,-0.865,-0.9576,-0.9822,-0.9822,-0.9822,-0.9822,-0.9822,-0.9822,-0.9822,-0.9822,-0.9822,-0.9822,-0.9822,-0.9822,-0.9822,-0.9822,-0.9822,-0.9822,-0.9822,-0.9822,-0.9822,-0.9822,-0.9822,-0.9822,-0.9822,-0.9822,-0.9822,-0.9822,-0.9822,-0.9822,-0.9822,-0.9822,-0.9822,-0.9822,-0.9822,-0.9822,-0.9822,0.0,0.0,0.0,0.0,0.0,0.0,0.0,0.0,0.0,0.0,0.0,0.0,0.0,0.0,-0.0316,-0.1234,-0.0613,-0.0345,-0.126,-0.0606,0.0,0.0,0.0,0.0,0.0,0.0,0.0,0.0,0.0,0.0,0.0,0.0,0.0,0.0,0.0,0.0,0.0,0.0,0.0,0.0,0.0,0.0,0.0,0.0,0.0,0.0,0.0,0.0,0.0,0.0,0.0,0.0,0.0,0.0,0.0,0.0,0.0,0.0,0.0,0.0,0.0,0.0,0.0,0.0,0.0,0.0,0.0,0.0,0.0,-0.0123,-0.0617,-0.1602,-0.3322,-0.6625,-0.7421,-0.785,-0.9451,-0.9822,-0.9822,-0.9822,-0.9822,-0.9822,-0.9822,-0.9822,-0.9822,-0.9822,-0.9822,-0.9822,-0.9822,-0.9822,-0.9822,-0.9822,-0.9822,-0.9822,-0.9822,-0.9822,-0.9822,-0.9822,-0.9822,-0.9822,-0.9822,-0.9822,-0.9822,-0.9822,-0.9822,-0.9822,-0.9822,-0.9822,-0.9822,-0.9822,-0.9822,-0.9822,0.0,0.0,0.0,0.0,0.0,0.0,0.0,0.0,0.0,0.0,0.0,0.0,0.0,0.0,0.0,0.0,0.0,0.0,0.0,0.0,0.0,0.0,0.0,0.0,0.0,0.0,0.0,0.0,0.0,0.0,0.0,0.0,0.0,0.0,0.0,0.0,0.0,0.0,0.0,0.0,0.0,0.0,0.0,0.0,0.0,0.0,0.0,0.0,0.0,0.0,0.0,0.0,0.0,0.0,0.0,0.0,0.0,0.0,0.0,0.0,0.0,0.0,0.0,0.0,0.0,0.0,0.0,0.0,0.0,-0.037,-0.2033,-0.2462,-0.3322,-0.6625,-0.7421,-0.785,-0.9451,-0.9822,-0.9822,-0.9822,-0.9822,-0.9822,-0.9822,-0.9822,-0.9822,-0.9822,-0.9822,-0.9822,-0.9822,-0.9822,-0.9822,-0.9822,-0.9822,-0.9822,-0.9822,-0.9822,-0.9822,-0.9822,-0.9822,-0.9822,-0.9822,-0.9822,-0.9822,-0.9822,-0.9822,-0.9822,-0.9822,-0.9822,-0.9822,-0.9822,-0.9822,-0.9822,0.0,0.0,0.0,0.0,0.0,0.0,0.0,0.0,0.0,0.0,0.0,0.0,0.0,0.0,0.0,0.0,0.0,0.0,0.0,0.0,0.0,0.0,0.0,0.0,0.0,0.0,0.0,0.0,0.0,0.0,0.0,0.0,0.0,0.0,0.0,0.0,0.0,0.0,0.0,0.0,0.0,0.0,0.0,0.0,0.0,0.0,0.0,0.0,0.0,0.0,0.0,0.0,0.0,0.0,0.0,0.0,0.0,0.0,0.0,0.0,0.0,0.0,0.0,0.0,0.0,0.0,0.0,0.0,0.0,-0.0123,-0.0679,-0.0802,-0.1356,-0.3505,-0.4914,-0.6139,-0.7792,-0.9019,-0.9822,-0.9822,-0.9822,-0.9822,-0.9822,-0.9822,-0.9822,-0.9822,-0.9822,-0.9822,-0.9822,-0.9822,-0.9822,-0.9822,-0.9822,-0.9822,-0.9822,-0.9822,-0.9822,-0.9822,-0.9822,-0.9822,-0.9822,-0.9822,-0.9822,-0.9822,-0.9822,-0.9822,-0.9822,-0.9822,-0.9822,-0.9822,-0.9822,-0.9822,0.0,0.0,0.0,0.0,0.0,0.0,0.0,0.0,0.0,0.0,0.0,0.0,0.0,0.0,0.0,0.0,0.0,0.0,0.0,0.0,0.0,0.0,0.0,0.0,0.0,0.0,0.0,0.0,0.0,0.0,0.0,0.0,0.0,0.0,0.0,0.0,0.0,0.0,0.0,0.0,0.0,0.0,0.0,0.0,0.0,0.0,0.0,0.0,0.0,0.0,0.0,0.0,0.0,0.0,0.0,0.0,0.0,0.0,0.0,0.0,0.0,0.0,0.0,0.0,0.0,0.0,0.0,0.0,0.0,0.0,0.0,0.0,-0.0432,-0.2094,-0.326,-0.461,-0.693,-0.767,-0.8163,-0.8775,-0.8897,-0.8897,-0.8897,-0.939,-0.9822,-0.9822,-0.9822,-0.9822,-0.9822,-0.9822,-0.9822,-0.9822,-0.9822,-0.9822,-0.9822,-0.9822,-0.9822,-0.9822,-0.9822,-0.9822,-0.9822,-0.9822,-0.9822,-0.9822,-0.9822,-0.9822,-0.9822,-0.9822,-0.9822,-0.9822,-0.9822,-0.9822,0.0,0.0,0.0,0.0,0.0,0.0,0.0,0.0,0.0,0.0,0.0,0.0,0.0,0.0,0.0,0.0,0.0,0.0,0.0,0.0,0.0,0.0,0.0,0.0,0.0,0.0,0.0,0.0,0.0,0.0,0.0,0.0,0.0,0.0,0.0,0.0,0.0,0.0,0.0,0.0,0.0,0.0,0.0,0.0,0.0,0.0,0.0,0.0,0.0,0.0,0.0,0.0,0.0,0.0,0.0,0.0,0.0,0.0,0.0,0.0,0.0,0.0,0.0,0.0,0.0,0.0,0.0,0.0,0.0,0.0,0.0,0.0,-0.037,-0.1971,-0.2401,-0.3321,-0.6381,-0.5894,-0.5343,-0.6933,-0.7238,-0.7238,-0.7238,-0.8468,-0.9454,-0.9454,-0.9572,-0.9636,-0.9636,-0.97,-0.9822,-0.9822,-0.9697,-0.9636,-0.9636,-0.9761,-0.9822,-0.9822,-0.9822,-0.9822,-0.9822,-0.9822,-0.9822,-0.9822,-0.9822,-0.9822,-0.9822,-0.9822,-0.9822,-0.9822,-0.9822,-0.9822,0.0,0.0,0.0,0.0,0.0,0.0,0.0,0.0,0.0,0.0,0.0,0.0,0.0,0.0,0.0,0.0,0.0,0.0,0.0,0.0,0.0,0.0,0.0,0.0,0.0,0.0,0.0,0.0,0.0,0.0,0.0,0.0,0.0,0.0,0.0,0.0,0.0,0.0,0.0,0.0,0.0,0.0,0.0,0.0,0.0,0.0,0.0,0.0,0.0,0.0,0.0,0.0,0.0,0.0,0.0,0.0,0.0,0.0,0.0,0.0,0.0,0.0,0.0,0.0,0.0,0.0,0.0,0.0,0.0,0.0,0.0,0.0,-0.0123,-0.0494,-0.154,-0.2708,-0.3505,-0.4303,-0.5039,-0.5406,-0.5468,-0.5468,-0.5468,-0.5774,-0.608,-0.608,-0.7118,-0.7972,-0.7972,-0.9019,-0.9822,-0.9822,-0.8711,-0.7972,-0.7972,-0.9083,-0.9822,-0.9822,-0.9822,-0.9822,-0.9822,-0.9822,-0.9822,-0.9822,-0.9822,-0.9822,-0.9822,-0.9822,-0.9822,-0.9822,-0.9822,-0.9822,0.0,0.0,0.0,0.0,0.0,0.0,0.0,0.0,0.0,0.0,0.0,0.0,0.0,0.0,0.0,0.0,0.0,0.0,0.0,0.0,0.0,0.0,0.0,0.0,0.0,0.0,0.0,0.0,0.0,0.0,0.0,0.0,0.0,0.0,0.0,0.0,0.0,0.0,0.0,0.0,0.0,0.0,0.0,0.0,0.0,0.0,0.0,0.0,0.0,0.0,0.0,0.0,0.0,0.0,0.0,0.0,0.0,0.0,0.0,0.0,0.0,0.0,0.0,0.0,0.0,0.0,0.0,0.0,0.0,0.0,0.0,0.0,0.0,0.0,-0.0678,-0.154,-0.234,-0.2585,-0.2893,-0.3629,-0.3813,-0.3813,-0.3813,-0.4426,-0.4916,-0.4916,-0.5649,-0.6261,-0.6261,-0.6996,-0.7551,-0.7551,-0.6752,-0.6261,-0.6261,-0.7057,-0.7551,-0.7551,-0.7551,-0.7551,-0.7551,-0.7551,-0.7917,-0.8711,-0.9451,-0.9822,-0.9822,-0.9822,-0.9822,-0.9822,-0.9822,-0.9822,0.0,0.0,0.0,0.0,0.0,0.0,0.0,0.0,0.0,0.0,0.0,0.0,0.0,0.0,0.0,0.0,0.0,0.0,0.0,0.0,0.0,0.0,0.0,0.0,0.0,0.0,0.0,0.0,0.0,0.0,0.0,0.0,0.0,0.0,0.0,0.0,0.0,0.0,0.0,0.0,0.0,0.0,0.0,0.0,0.0,0.0,0.0,0.0,0.0,0.0,0.0,0.0,0.0,0.0,0.0,0.0,0.0,0.0,0.0,0.0,0.0,0.0,0.0,0.0,0.0,0.0,0.0,0.0,0.0,0.0,0.0,0.0,0.0,0.0,0.0,-0.037,-0.1787,-0.0986,-0.0432,-0.1848,-0.2094,-0.2094,-0.2094,-0.326,-0.418,-0.418,-0.4364,-0.4548,-0.4548,-0.4732,-0.4916,-0.4916,-0.4671,-0.4548,-0.4548,-0.4303,-0.418,-0.418,-0.461,-0.4916,-0.4916,-0.4916,-0.5588,-0.6994,-0.8343,-0.9022,-0.9022,-0.9329,-0.9451,-0.9451,-0.9697,-0.9822,0.0,0.0,0.0,0.0,0.0,0.0,0.0,0.0,0.0,0.0,0.0,0.0,0.0,0.0,0.0,0.0,0.0,0.0,0.0,0.0,0.0,0.0,0.0,0.0,0.0,0.0,0.0,0.0,0.0,0.0,0.0,0.0,0.0,0.0,0.0,0.0,0.0,0.0,0.0,0.0,0.0,0.0,0.0,0.0,0.0,0.0,0.0,0.0,0.0,0.0,0.0,0.0,0.0,0.0,0.0,0.0,0.0,0.0,0.0,0.0,0.0,0.0,0.0,0.0,0.0,0.0,0.0,0.0,0.0,0.0,0.0,0.0,0.0,0.0,0.0,-0.0062,-0.0308,-0.0185,-0.0062,-0.0308,-0.037,-0.037,-0.037,-0.0617,-0.074,-0.074,-0.1971,-0.2893,-0.2893,-0.4059,-0.4916,-0.4916,-0.369,-0.2893,-0.2893,-0.154,-0.074,-0.074,-0.3383,-0.4916,-0.4916,-0.4916,-0.5039,-0.5284,-0.5529,-0.5651,-0.5651,-0.7055,-0.7789,-0.7789,-0.9143,-0.9822,0.0,0.0,0.0,0.0,0.0,0.0,0.0,0.0,0.0,0.0,0.0,0.0,0.0,0.0,0.0,0.0,0.0,0.0,0.0,0.0,0.0,0.0,0.0,0.0,0.0,0.0,0.0,0.0,0.0,0.0,0.0,0.0,0.0,0.0,0.0,0.0,0.0,0.0,0.0,0.0,0.0,0.0,0.0,0.0,0.0,0.0,0.0,0.0,0.0,0.0,0.0,0.0,0.0,0.0,0.0,0.0,0.0,0.0,0.0,0.0,0.0,0.0,0.0,0.0,0.0,0.0,0.0,0.0,0.0,0.0,0.0,0.0,0.0,0.0,0.0,0.0,0.0,0.0,0.0,0.0,0.0,0.0,0.0,0.0,0.0,0.0,-0.0679,-0.1171,-0.1171,-0.1787,-0.2278,-0.2278,-0.1602,-0.1171,-0.1171,-0.0432,0.0,0.0,-0.1417,-0.2278,-0.2278,-0.3139,-0.3629,-0.3629,-0.4427,-0.4916,-0.4916,-0.5649,-0.6077,-0.6077,-0.6813,-0.7609,0.0,0.0,0.0,0.0,0.0,0.0,0.0,0.0,0.0,0.0,0.0,0.0,0.0,0.0,0.0,0.0,0.0,0.0,0.0,0.0,0.0,0.0,0.0,0.0,0.0,0.0,0.0,0.0,0.0,0.0,0.0,0.0,0.0,0.0,0.0,0.0,0.0,0.0,0.0,0.0,0.0,0.0,0.0,0.0,0.0,0.0,0.0,0.0,0.0,0.0,0.0,0.0,0.0,0.0,0.0,0.0,0.0,0.0,0.0,0.0,0.0,0.0,0.0,0.0,0.0,0.0,0.0,0.0,0.0,0.0,0.0,0.0,0.0,0.0,0.0,0.0,0.0,0.0,0.0,0.0,0.0,0.0,0.0,0.0,0.0,0.0,0.0,0.0,0.0,0.0,0.0,0.0,0.0,0.0,0.0,0.0,0.0,0.0,0.0,0.0,0.0,-0.1233,-0.191,-0.191,-0.3139,-0.3751,-0.3751,-0.4119,-0.4366,-0.4366,-0.4732,-0.559,0.0,0.0,0.0,0.0,0.0,0.0,0.0,0.0,0.0,0.0,0.0,0.0,0.0,0.0,0.0,0.0,0.0,0.0,0.0,0.0,0.0,0.0,0.0,0.0,0.0,0.0,0.0,0.0,0.0,0.0,0.0,0.0,0.0,0.0,0.0,0.0,0.0,0.0,0.0,0.0,0.0,0.0,0.0,0.0,0.0,0.0,0.0,0.0,0.0,0.0,0.0,0.0,0.0,0.0,0.0,0.0,0.0,0.0,0.0,0.0,0.0,0.0,0.0,0.0,0.0,0.0,0.0,0.0,0.0,0.0,0.0,0.0,0.0,0.0,0.0,0.0,0.0,0.0,0.0,0.0,0.0,0.0,0.0,0.0,0.0,0.0,0.0,0.0,0.0,0.0,0.0,0.0,0.0,0.0,0.0,0.0,0.0,0.0,0.0,0.0,0.0,-0.0123,-0.0185,-0.0185,-0.0309,-0.037,-0.037,-0.191,-0.2647,-0.2708,-0.4182,-0.4977,0.0,0.0,0.0,0.0,0.0,0.0,0.0,0.0,0.0,0.0,0.0,0.0,0.0,0.0,0.0,0.0,0.0,0.0,0.0,0.0,0.0,0.0,0.0,0.0,0.0,0.0,0.0,0.0,0.0,0.0,0.0,0.0,0.0,0.0,0.0,0.0,0.0,0.0,0.0,0.0,0.0,0.0,0.0,0.0,0.0,0.0,0.0,0.0,0.0,0.0,0.0,0.0,0.0,0.0,0.0,0.0,0.0,0.0,0.0,0.0,0.0,0.0,0.0,0.0,0.0,0.0,0.0,0.0,0.0,0.0,0.0,0.0,0.0,0.0,0.0,0.0,0.0,0.0,0.0,0.0,0.0,0.0,0.0,0.0,0.0,0.0,0.0,0.0,0.0,0.0,0.0,0.0,0.0,0.0,0.0,0.0,0.0,0.0,0.0,0.0,0.0,0.0,0.0,0.0,0.0,0.0,0.0,-0.0617,-0.0925,-0.0986,-0.154,-0.2401,0.0,0.0,0.0,0.0,0.0,0.0,0.0,0.0,0.0,0.0,0.0,0.0,0.0,0.0,0.0,0.0,0.0,0.0,0.0,0.0,0.0,0.0,0.0,0.0,0.0,0.0,0.0,0.0,0.0,0.0,0.0,0.0,0.0,0.0,0.0,0.0,0.0,0.0,0.0,0.0,0.0,0.0,0.0,0.0,0.0,0.0,0.0,0.0,0.0,0.0,0.0,0.0,0.0,0.0,0.0,0.0,0.0,0.0,0.0,0.0,0.0,0.0,0.0,0.0,0.0,0.0,0.0,0.0,0.0,0.0,0.0,0.0,0.0,0.0,0.0,0.0,0.0,0.0,0.0,0.0,0.0,0.0,0.0,0.0,0.0,0.0,0.0,0.0,0.0,0.0,0.0,0.0,0.0,0.0,0.0,0.0,0.0,0.0,0.0,0.0,0.0,0.0,0.0,0.0,0.0,0.0,0.0,0.0,0.0,0.0,0.0,-0.0617,0.0,0.0,0.0,0.0,0.0,0.0,0.0,0.0,0.0,0.0,0.0,0.0,0.0,0.0,0.0,0.0,0.0,0.0,0.0,0.0,0.0,0.0,0.0,0.0,0.0,0.0,0.0,0.0,0.0,0.0,0.0,0.0,0.0,0.0,0.0,0.0,0.0,0.0,0.0,0.0,0.0,0.0,0.0,0.0,0.0,0.0,0.0,0.0,0.0,0.0,0.0,0.0,0.0,0.0,0.0,0.0,0.0,0.0,0.0,0.0,0.0,0.0,0.0,0.0,0.0,0.0,0.0,0.0,0.0,0.0,0.0,0.0,0.0,0.0,0.0,0.0,0.0,0.0,0.0,0.0,0.0,0.0,0.0,0.0,0.0,0.0,0.0,0.0,0.0,0.0,0.0,0.0,0.0,0.0,0.0,0.0,0.0,0.0,0.0,0.0,0.0,0.0,0.0,0.0,0.0,0.0,0.0,0.0,0.0,0.0,0.0,0.0,0.0,0.0,0.0,0.0,0.0,0.0,0.0,0.0,0.0,0.0,0.0,0.0,0.0,0.0,0.0,0.0,0.0,0.0,0.0,0.0,0.0,0.0,0.0,0.0,0.0,0.0,0.0,0.0,0.0,0.0,0.0,0.0,0.0,0.0,0.0,0.0,0.0,0.0,0.0,0.0,0.0,0.0,0.0,0.0,0.0,0.0,0.0,0.0,0.0,0.0,0.0,0.0,0.0,0.0,0.0,0.0,0.0,0.0,0.0,0.0,0.0,0.0,0.0,0.0,0.0,0.0,0.0,0.0,0.0,0.0,0.0,0.0,0.0,0.0,0.0,0.0,0.0,0.0,0.0,0.0,0.0,0.0,0.0,0.0,0.0,0.0,0.0,0.0,0.0,0.0,0.0,0.0,0.0,0.0,0.0,0.0,0.0,0.0,0.0,0.0,0.0,0.0,0.0,0.0,0.0,0.0,0.0,0.0,0.0,0.0,0.0,0.0,0.0,0.0,0.0,0.0,0.0,0.0,0.0,0.0,0.0,0.0,0.0,0.0,0.0,0.0,0.0,0.0,0.0,0.0,0.0,0.0,0.0,0.0,0.0,0.0,0.0,0.0,0.0,0.0,0.0,0.0,0.0,0.0,0.0,0.0,0.0,0.0,0.0,0.0,0.0,0.0,0.0,0.0,0.0,0.0,0.0,0.0,0.0,0.0,0.0,0.0,0.0,0.0,0.0,0.0,0.0,0.0,0.0,0.0,0.0,0.0,0.0,0.0,0.0,0.0,0.0,0.0,0.0,0.0,0.0,0.0,0.0,0.0,0.0,0.0,0.0,0.0,0.0,0.0,0.0,0.0,0.0,0.0,0.0,0.0,0.0,0.0,0.0,0.0,0.0,0.0,0.0,0.0,0.0,0.0,0.0,0.0,0.0,0.0,0.0,0.0,0.0,0.0,0.0,0.0,0.0,0.0,0.0,0.0,0.0,0.0,0.0,0.0,0.0,0.0,0.0,0.0,0.0,0.0,0.0,0.0,0.0,0.0,0.0,0.0,0.0,0.0,0.0,0.0,0.0,0.0,0.0,0.0,0.0,0.0,0.0,0.0,0.0,0.0,0.0,0.0,0.0,0.0,0.0,0.0,0.0,0.0,0.0,0.0,0.0,0.0,0.0,0.0,0.0,0.0,0.0,0.0,0.0,0.0,0.0,0.0,0.0,0.0,0.0,0.0,0.0,0.0,0.0,0.0,0.0,0.0,0.0,0.0,0.0,0.0,0.0,0.0,0.0,0.0,0.0,0.0,0.0,0.0,0.0,0.0,0.0,0.0,0.0,0.0,0.0,0.0,0.0,0.0,0.0,0.0,0.0,0.0,0.0,0.0,0.0,0.0,0.0,0.0,0.0,0.0,0.0,0.0,0.0,0.0,0.0,0.0,0.0,0.0,0.0,0.0,0.0,0.0,0.0,0.0,0.0,0.0,0.0,0.0,0.0,0.0,0.0,0.0,0.0,0.0,0.0,0.0,0.0,0.0,0.0,0.0,0.0,0.0,0.0,0.0,0.0,0.0,0.0,0.0,0.0,0.0,0.0,0.0,0.0,0.0,0.0,0.0,0.0,0.0,0.0,0.0,0.0,0.0,0.0,0.0,0.0,0.0,0.0,0.0,0.0,0.0,0.0,0.0,0.0,0.0,0.0,0.0,0.0,0.0,0.0,0.0,0.0,0.0,0.0,0.0,0.0,0.0,0.0,0.0,0.0,0.0,0.0,0.0,0.0,0.0,0.0,0.0,0.0,0.0,0.0,0.0,0.0,0.0,0.0,0.0,0.0,0.0,0.0,0.0,0.0,0.0,0.0,0.0,0.0,0.0,0.0,0.0,0.0,0.0,0.0,0.0,0.0,0.0,0.0,0.0,0.0,0.0,0.0,0.0,0.0,0.0,0.0,0.0,0.0,0.0,0.0,0.0,0.0,0.0,0.0,0.0,0.0,0.0,0.0,0.0,0.0,0.0,0.0,0.0,0.0,0.0,0.0,0.0,0.0,0.0,0.0,0.0,0.0,0.0,0.0,0.0,0.0,0.0,0.0,0.0,0.0,0.0,0.0,0.0,0.0,0.0,0.0,0.0,0.0,0.0,0.0,0.0,0.0,0.0,0.0,0.0,0.0,0.0,0.0,0.0,0.0,0.0,0.0,0.0,0.0,0.0,0.0,0.0,0.0,0.0,0.0,0.0,0.0,0.0,0.0,0.0,0.0,0.0,0.0,0.0,0.0,0.0,0.0,0.0,0.0,0.0,0.0,0.0,0.0,0.0,0.0,0.0,0.0,0.0,0.0,0.0,0.0,0.0,0.0,0.0,0.0,0.0,0.0,0.0,0.0,0.0,0.0,0.0,0.0,0.0,0.0,0.0,0.0,0.0,0.0,0.0,0.0,0.0,0.0,0.0,0.0,0.0,0.0,0.0,0.0,0.0,0.0,0.0,0.0,0.0,0.0,0.0,0.0,0.0,0.0,0.0,0.0,0.0,0.0,0.0,0.0,0.0,0.0,0.0,0.0,0.0,0.0,0.0,0.0,0.0,0.0,0.0,0.0,0.0,0.0,0.0,0.0,0.0,0.0,0.0,0.0,0.0,0.0,0.0,0.0,0.0,0.0,0.0,0.0,0.0,0.0,0.0,0.0,0.0,0.0,0.0,0.0,0.0,0.0,0.0,0.0,0.0,0.0,0.0,0.0,0.0,0.0,0.0,0.0,0.0,0.0,0.0,0.0,0.0,0.0,0.0,0.0,0.0,0.0,0.0,0.0,0.0,0.0,0.0,0.0,0.0,0.0,0.0,0.0,0.0,0.0,0.0,0.0,0.0,0.0,0.0,0.0,0.0,0.0,0.0,0.0,0.0,0.0,0.0,0.0,0.0,0.0,0.0,0.0,0.0,0.0,0.0,0.0,0.0,0.0,0.0,0.0,0.0,0.0,0.0,0.0,0.0,0.0,0.0,0.0,0.0,0.0,0.0,0.0,0.0,0.0,0.0,0.0,0.0,0.0,0.0,0.0,0.0,0.0,0.0,0.0,0.0,0.0,0.0,0.0,0.0,0.0,0.0,0.0,0.0,0.0,0.0,0.0,0.0,0.0,0.0,0.0,0.0,0.0,0.0,0.0,0.0,0.0,0.0,0.0,0.0,0.0,0.0,0.0,0.0,0.0,0.0,0.0,0.0,0.0,0.0,0.0,0.0,0.0,0.0,0.0,0.0,0.0,0.0,0.0,0.0,0.0,0.0,0.0,0.0,0.0,0.0,0.0,0.0,0.0,0.0,0.0,0.0,0.0,0.0,0.0,0.0,0.0,0.0,0.0,0.0,0.0,0.0,0.0,0.0,0.0,0.0,0.0,0.0,0.0,0.0,0.0,0.0,0.0,0.0,0.0,0.0,0.0,0.0,0.0,0.0,0.0,0.0,0.0,0.0,0.0,0.0,0.0,0.0,0.0,0.0,0.0,0.0,0.0,0.0,0.0,0.0,0.0,0.0,0.0,0.0,0.0,0.0,0.0,0.0,0.0,0.0,0.0,0.0,0.0,0.0,0.0,0.0,0.0,0.0,0.0,0.0,0.0,0.0,0.0,0.0,0.0,0.0,0.0,0.0,0.1417,0.1417,0.1417,0.1417,0.1417,0.0925,0.0,0.0,0.0,0.0,0.0,0.0,0.0,0.0,0.0,0.0,0.0,0.0,0.0,0.0,0.0,0.0,0.0,0.0,0.0,0.0,0.0,0.0,0.0,0.0,0.0,0.0,0.0,0.0,0.0,0.0,0.0,0.0,0.0,0.0,0.0,0.0,0.0,0.0,0.0,0.0,0.0,0.0,0.0,0.0,0.0,0.0,0.0,0.0,0.0,0.0,0.0,0.0,0.0,0.0,0.0,0.0,0.0,0.0,0.0,0.0,0.0,0.0,0.0,0.0,0.0,0.0,0.0,0.0,0.0,0.0,0.0,0.0,0.0,0.0,0.0,0.0,0.0,0.0,0.0,0.0,0.0,0.0,0.0,0.0,0.0,0.0,0.0,0.0,0.0,0.0,0.0,0.0,0.0,0.0,0.0,0.0,0.0,0.0,0.0,0.0,0.0,0.0,0.0,0.0,0.0432,0.1233,0.2462,0.2893,0.3139,0.3076,0.2708,0.1848,0.0617,0.0185,0.0,0.0,0.0,0.0,0.0,0.0,0.0,0.0,0.0,0.0,0.0,0.0,0.0,0.0,0.0,0.0,0.0,0.0,0.0,0.0,0.0,0.0,0.0,0.0,0.0,0.0,0.0,0.0,0.0,0.0,0.0,0.0,0.0,0.0,0.0,0.0,0.0,0.0,0.0,0.0,0.0,0.0,0.0,0.0,0.0,0.0,0.0,0.0,0.0,0.0,0.0,0.0,0.0,0.0,0.0,0.0,0.0,0.0,0.0,0.0,0.0,0.0,0.0,0.0,0.0,0.0,0.0,0.0,0.0,0.0,0.0,0.0,0.0,0.0,0.0,0.0,0.0,0.0,0.0,0.0,0.0,0.0,0.0,0.0,0.0,0.0,0.0,0.0,0.0,0.0,0.0,0.0,0.0,0.0,0.0,0.0,0.0,0.0,0.0,0.0,0.0,0.0,0.1541,0.2401,0.2524,0.3996,0.4794,0.4732,0.3199,0.2462,0.234,0.074,0.0,0.0,0.0,0.0,0.0,0.0,0.0,0.0,0.0,0.0,0.0,0.0,0.0,0.0,0.0,0.0,0.0,0.0,0.0,0.0,0.0,0.0,0.0,0.0,0.0,0.0,0.0,0.0,0.0,0.0,0.0,0.0,0.0,0.0,0.0,0.0,0.0,0.0,0.0,0.0,0.0,0.0,0.0,0.0,0.0,0.0,0.0,0.0,0.0,0.0,0.0,0.0,0.0,0.0,0.0,0.0,0.0,0.0,0.0,0.0,0.0,0.0,0.0,0.0,0.0,0.0,0.0,0.0,0.0,0.0,0.0,0.0,0.0,0.0,0.0,0.0,0.0,0.0,0.0,0.0,0.0,0.0,0.0,0.0,0.0,0.0,0.0,0.0,0.0,0.0,0.0,0.0,0.0,0.0,0.0,0.0,0.0,0.0,0.0,0.1048,0.1602,0.1602,0.3199,0.4547,0.5647,0.7243,0.7548,0.6505,0.5892,0.4545,0.2462,0.1848,0.1048,0.0,0.0,0.0,0.0,0.0,0.0,0.0,0.0,0.0,0.0,0.0,0.0,0.0,0.0,0.0,0.0,0.0,0.0,0.0,0.0,0.0,0.0,0.0,0.0,0.0,0.0,0.0,0.0,0.0,0.0,0.0,0.0,0.0,0.0,0.0,0.0,0.0,0.0,0.0,0.0,0.0,0.0,0.0,0.0,0.0,0.0,0.0,0.0,0.0,0.0,0.0,0.0,0.0,0.0,0.0,0.0,0.0,0.0,0.0,0.0,0.0,0.0,0.0,0.0,0.0,0.0,0.0,0.0905,0.0895,0.0888,0.0,0.0,0.0842,0.0,0.0,0.0,0.0,0.0,0.0,0.0,0.0,0.0,0.0,0.0,0.0,0.0,0.0,0.0,0.0,0.0,0.0,0.0,0.0,0.0,0.0,0.0,0.0,0.0729,0.2315,0.3487,0.4117,0.5159,0.6505,0.8218,0.9265,0.9265,0.8218,0.7667,0.6259,0.4117,0.3015,0.191,0.0802,0.0247,0.0,0.0,0.0,0.0,0.0,0.0,0.0,0.0,0.0,0.0,0.0,0.0,0.0,0.0,0.0,0.0,0.0,0.0,0.0,0.0,0.0,0.0,0.0,0.0,0.0,0.0,0.0,0.0,0.0,0.0,0.0,0.0,0.0,0.0,0.0,0.0,0.0,0.0,0.0,0.0,0.0,0.0,0.0,0.0,0.0,0.0,0.0,0.0,0.0,0.0,0.0,0.0,0.0,0.0,0.0,0.0,0.0,0.0,0.0,0.0,0.0,0.0,0.0,0.0,0.0,0.0,0.0,0.0,0.0,0.0,0.0,0.0,0.0,0.0,0.0,0.0,0.0,0.0,0.0,0.0,0.0,0.0,0.0,0.0,0.0,0.0,0.0,0.0,0.0,0.0,0.0,0.0,0.0,0.0,0.2289,0.2289,0.3869,0.5614,0.7408,0.7477,0.8216,0.9754,0.9819,0.9822,0.9758,0.8218,0.7421,0.7299,0.4056,0.2524,0.2401,0.074,0.0,0.0,0.0,0.0,0.0,0.0,0.0,0.0,0.0,0.0,0.0,0.0,0.0,0.0,0.0,0.0,0.0,0.0,0.0,0.0,0.0,0.0,0.0,0.0,0.0,0.0,0.0,0.0,0.0,0.0,0.0,0.0,0.0,0.0,0.0,0.0,0.0,0.0,0.0,0.0,0.0,0.0,0.0,0.0,0.0,0.0,0.0,0.0,0.0,0.0,0.0,0.0,0.0,0.0,0.0,0.0,0.0,0.0,0.0,0.0,0.0,0.0,0.0,0.0,0.0,0.2711,0.0,0.0,0.0,0.0,0.0,0.0,0.0,0.0,0.0,0.0,0.0,0.0,0.0,0.0,0.0,0.0,0.0,0.0,0.0,0.0,0.0,0.0,0.0,0.0,0.0,0.0,0.0,0.0,0.3871,0.3871,0.5412,0.709,0.8784,0.8947,0.9184,0.9666,0.9771,0.9822,0.9822,0.9329,0.8529,0.7299,0.5221,0.3629,0.2401,0.074,0.0,0.0,0.0,0.0,0.0,0.0,0.0,0.0,0.0,0.0,0.0,0.0,0.0,0.0,0.0,0.0,0.0,0.0,0.0,0.0,0.0,0.0,0.0,0.0,0.0,0.0,0.0,0.0,0.0,0.0,0.0,0.0,0.0,0.0,0.0,0.0,0.0,0.0,0.0,0.0,0.0,0.0,0.0,0.0,0.0,0.0,0.0,0.0,0.0,0.0,0.0,0.0,0.0,0.0,0.0,0.0,0.0,0.0,0.0,0.0,0.0,0.0,0.0,0.0,0.0,0.3816,0.3816,0.3816,0.0,0.0,0.0,0.0,0.2776,0.0,0.0,0.0,0.0,0.0,0.0,0.0,0.0,0.0,0.0,0.0,0.0,0.0,0.0,0.0,0.0,0.0,0.0,0.0,0.0,0.5085,0.5703,0.6433,0.7363,0.832,0.9378,0.9466,0.9513,0.9513,0.9595,0.9669,0.9734,0.9734,0.9274,0.8343,0.6691,0.5037,0.3383,0.1787,0.0617,0.0,0.0,0.0,0.0,0.0,0.0,0.0,0.0,0.0,0.0,0.0,0.0,0.0,0.0,0.0,0.0,0.0,0.0,0.0,0.0,0.0,0.0,0.0,0.0,0.0,0.0,0.0,0.0,0.0,0.0,0.0,0.0,0.0,0.0,0.0,0.0,0.0,0.0,0.0,0.0,0.0,0.0,0.0,0.0,0.0,0.0,0.0,0.0,0.0,0.0,0.0,0.0,0.0,0.0,0.0,0.0,0.0,0.0,0.0,0.0,0.0,0.0,0.0,0.0,0.5399,0.5395,0.5395,0.0,0.0,0.0,0.3418,0.3656,0.0,0.0,0.0,0.0,0.0,0.0,0.0,0.0,0.0,0.0,0.0,0.0,0.0,0.0,0.0,0.0,0.0,0.0,0.0,0.5085,0.62,0.7586,0.9063,0.9187,0.9248,0.9327,0.9347,0.9357,0.9357,0.9371,0.9449,0.9585,0.9585,0.9649,0.9711,0.8071,0.6551,0.5026,0.3442,0.191,0.0555,0.0555,0.0308,0.0,0.0,0.0,0.0,0.0,0.0,0.0,0.0,0.0,0.0,0.0,0.0,0.0,0.0,0.0,0.0,0.0,0.0,0.0,0.0,0.0,0.0,0.0,0.0,0.0,0.0,0.0,0.0,0.0,0.0,0.0,0.0,0.0,0.0,0.0,0.0,0.0,0.0,0.0,0.0,0.0,0.0,0.0,0.0,0.0,0.0,0.0,0.0,0.0,0.0,0.0,0.0,0.0,0.0,0.0,0.0,0.0,0.0,0.0,0.0,0.0,0.0,0.0,0.0,0.0,0.0,0.0,0.5374,0.4687,0.0,0.0,0.0,0.0,0.0,0.0,0.0,0.0,0.0,0.0,0.0,0.0,0.0,0.0,0.0,0.0,0.0,0.0,0.8377,0.8045,0.8322,0.8615,0.8922,0.8981,0.8994,0.9025,0.9137,0.9255,0.9255,0.932,0.9398,0.9425,0.9425,0.9442,0.9411,0.7849,0.6993,0.6575,0.5073,0.4242,0.3936,0.3936,0.2401,0.0,0.0,0.0,0.0,0.0,0.0,0.0,0.0,0.0,0.0,0.0,0.0,0.0,0.0,0.0,0.0,0.0,0.0,0.0,0.0,0.0,0.0,0.0,0.0,0.0,0.0,0.0,0.0,0.0,0.0,0.0,0.0,0.0,0.0,0.0,0.0,0.0,0.0,0.0,0.0,0.0,0.0,0.0,0.0,0.0,0.0,0.0,0.0,0.0,0.0,0.0,0.0,0.0,0.0,0.0,0.0,0.0,0.0,0.0,0.0,0.0,0.0,0.0,0.0,0.5395,0.0,0.0,0.0,0.4891,0.4795,0.0,0.0,0.0,0.0,0.0,0.0,0.0,0.0,0.0,0.0,0.0,0.0,0.0,0.0,0.0,0.0,0.0,0.8885,0.8885,0.8885,0.8885,0.8885,0.8885,0.8885,0.8885,0.9008,0.9045,0.9045,0.912,0.9195,0.9323,0.9323,0.9306,0.9384,0.8626,0.7769,0.6943,0.627,0.5526,0.4742,0.3984,0.3199,0.234,0.154,0.074,0.0,0.0,0.0,0.0,0.0,0.0,0.0,0.0,0.0,0.0,0.0,0.0,0.0,0.0,0.0,0.0,0.0,0.0,0.0,0.0,0.0,0.0,0.0,0.0,0.0,0.0,0.0,0.0,0.0,0.0,0.0,0.0,0.0,0.0,0.0,0.0,0.0,0.0,0.0,0.0,0.0,0.0,0.0,0.0,0.0,0.0,0.0,0.0,0.0,0.0,0.0,0.0,0.0,0.0,0.0,0.0,0.0,0.0,0.0,0.0,0.0,0.0,0.0,0.5225,0.0,0.0,0.0,0.4952,0.0,0.0,0.0,0.0,0.0,0.0,0.0,0.0,0.0,0.0,0.0,0.0,0.0,0.0,0.0,0.0,0.8885,0.8885,0.8885,0.8885,0.8885,0.8885,0.8885,0.8885,0.8885,0.8885,0.8885,0.8885,0.8998,0.9169,0.9169,0.9178,0.9296,0.9323,0.8634,0.7354,0.7474,0.6822,0.5528,0.4384,0.4474,0.5159,0.2892,0.1417,0.0432,0.0123,0.0,0.0,0.0,0.0,0.0,0.0,0.0,0.0,0.0,0.0,0.0,0.0,0.0,0.0,0.0,0.0,0.0,0.0,0.0,0.0,0.0,0.0,0.0,0.0,0.0,0.0,0.0,0.0,0.0,0.0,0.0,0.0,0.0,0.0,0.0,0.0,0.0,0.0,0.0,0.0,0.0,0.0,0.0,0.0,0.0,0.0,0.0,0.0,0.0,0.0,0.0,0.0,0.0,0.0,0.0,0.0,0.0,0.0,0.0,0.0,0.5498,0.0,0.0,0.0,0.5399,0.5349,0.0,0.0,0.0,0.0,0.0,0.0,0.0,0.0,0.0,0.0,0.0,0.0,0.0,0.0,0.0,0.0,0.0,0.8885,0.8885,0.8885,0.8885,0.8885,0.8885,0.8885,0.8885,0.8885,0.8885,0.8885,0.8892,0.8908,0.8908,0.8915,0.8939,0.912,0.9121,0.8957,0.9106,0.9127,0.9007,0.8844,0.8127,0.6686,0.2093,0.1048,0.2033,0.0555,0.0,0.0,0.0,0.0,0.0,0.0,0.0,0.0,0.0,0.0,0.0,0.0,0.0,0.0,0.0,0.0,0.0,0.0,0.0,0.0,0.0,0.0,0.0,0.0,0.0,0.0,0.0,0.0,0.0,0.0,0.0,0.0,0.0,0.0,0.0,0.0,0.0,0.0,0.0,0.0,0.0,0.0,0.0,0.0,0.0,0.0,0.0,0.0,0.0,0.0,0.0,0.0,0.0,0.0,0.0,0.0,0.0,0.0,0.0,0.0,0.0,0.0,0.0,0.0,0.5395,0.0,0.0,0.0,0.0,0.0,0.0,0.0,0.0,0.0,0.0,0.0,0.0,0.0,0.0,0.0,0.0,0.0,0.0,0.0,0.0,0.8672,0.8672,0.8842,0.8885,0.8885,0.8885,0.8885,0.8885,0.8885,0.8885,0.8885,0.8885,0.8885,0.8885,0.9001,0.9028,0.9035,0.9184,0.9337,0.9424,0.8491,0.8417,0.8404,0.4424,0.326,0.3813,0.3076,0.2831,0.2831,0.2831,0.2831,0.2708,0.1725,0.1479,0.1479,0.1479,0.0802,0.037,0.2278,0.2155,0.1664,0.2585,0.2831,0.2831,0.2831,0.2831,0.2831,0.2831,0.2831,0.2585,0.1602,0.1479,0.1171,0.0185,0.0,0.0,0.0,0.0,0.0,0.0,0.0,0.0,0.0,0.0,0.0,0.0,0.0,0.0,0.0,0.0,0.0,0.0,0.0,0.0,0.0,0.0,0.0,0.0,0.0,0.0,0.0,0.0,0.0,0.6165,0.0,0.0,0.0,0.0,0.0,0.0,0.0,0.0,0.0,0.0,0.0,0.0,0.0,0.0,0.5337,0.0,0.0,0.0,0.0,0.0,0.0,0.0,0.0,0.0,0.0,0.0,0.0,0.0,0.0,0.8476,0.8693,0.8797,0.8881,0.8885,0.8885,0.8885,0.8885,0.8885,0.8885,0.8885,0.8885,0.8885,0.8885,0.8885,0.8888,0.9049,0.9181,0.9272,0.8175,0.8543,0.9523,0.7169,0.6263,0.6141,0.5223,0.4916,0.4916,0.4916,0.4916,0.4734,0.3568,0.3139,0.3139,0.3139,0.2278,0.1848,0.4242,0.4059,0.3445,0.4611,0.4916,0.4916,0.4916,0.4916,0.4916,0.4916,0.4916,0.4548,0.3383,0.3139,0.277,0.154,0.0617,0.0,0.0,0.0,0.0,0.0,0.0,0.0,0.0,0.0,0.0,0.0,0.0,0.0,0.0,0.0,0.0,0.0,0.0,0.0,0.0,0.0,0.0,0.0,0.0,0.0,0.0,0.0,0.0,0.0,0.0,0.0,0.6641,0.0,0.0,0.0,0.0,0.5542,0.0,0.0,0.0,0.0,0.0,0.5344,0.513,0.5393,0.0,0.0,0.0,0.0,0.0,0.0,0.0,0.0,0.0,0.0,0.0,0.0,0.0,0.8459,0.8489,0.8632,0.8875,0.8885,0.8885,0.8885,0.8885,0.8885,0.8885,0.8885,0.8885,0.8885,0.8885,0.8885,0.8885,0.8888,0.9028,0.9228,0.9266,0.9421,0.9629,0.9647,0.9636,0.9268,0.608,0.4916,0.4916,0.4916,0.4916,0.4916,0.4856,0.4795,0.4795,0.4795,0.4794,0.4794,0.4855,0.4855,0.4856,0.4916,0.4916,0.4916,0.4916,0.4916,0.4916,0.4916,0.4916,0.4855,0.4856,0.4795,0.4794,0.4732,0.2094,0.0,0.0,0.0,0.0,0.0,0.0,0.0,0.0,0.0,0.0,0.0,0.0,0.0,0.0,0.0,0.0,0.0,0.0,0.0,0.0,0.0,0.0,0.0,0.0,0.0,0.0,0.0,0.0,0.0,0.0,0.7346,0.7305,0.0,0.0,0.0,0.0,0.0,0.0,0.0,0.0,0.0,0.5395,0.5378,0.5324,0.5405,0.5436,0.0,0.0,0.0,0.0,0.0,0.0,0.0,0.0,0.0,0.0,0.0,0.0,0.0,0.8377,0.8621,0.8871,0.8885,0.8885,0.8885,0.8885,0.8885,0.8885,0.8885,0.8885,0.8885,0.8885,0.8885,0.8885,0.8885,0.9022,0.9221,0.9317,0.9469,0.9625,0.9768,0.9822,0.9636,0.8532,0.8163,0.8163,0.8163,0.8163,0.7978,0.6872,0.6566,0.6566,0.6566,0.5772,0.5345,0.7548,0.7362,0.6811,0.7856,0.8163,0.8163,0.8163,0.8163,0.8163,0.8163,0.8163,0.7856,0.675,0.6566,0.62,0.51,0.3997,0.326,0.326,0.326,0.326,0.326,0.326,0.326,0.326,0.326,0.2831,0.1725,0.0617,0.0,0.0,0.0,0.0,0.0,0.0,0.0,0.0,0.0,0.0,0.0,0.0,0.0,0.0,0.0,0.0,0.8011,0.7974,0.0,0.0,0.7495,0.0,0.6687,0.0,0.0,0.0,0.0,0.0,0.0,0.0,0.5477,0.5477,0.5429,0.5395,0.0,0.5395,0.0,0.0,0.0,0.0,0.0,0.0,0.0,0.0,0.0,0.0,0.0,0.0,0.8513,0.8871,0.8885,0.8885,0.8885,0.8885,0.8885,0.8885,0.8885,0.8885,0.8885,0.8885,0.8885,0.8885,0.8885,0.8991,0.9093,0.9296,0.9439,0.9547,0.9744,0.9822,0.9822,0.9822,0.9822,0.9822,0.9822,0.9822,0.9636,0.859,0.8282,0.8282,0.8282,0.7487,0.7052,0.9147,0.9045,0.8456,0.9452,0.9785,0.9822,0.9822,0.9822,0.9822,0.9822,0.9822,0.9511,0.8465,0.8282,0.7914,0.6813,0.663,0.6263,0.51,0.4916,0.4916,0.4916,0.4916,0.4916,0.4916,0.4916,0.4487,0.3445,0.1848,0.0863,0.0863,0.0308,0.0,0.0,0.0,0.0,0.0,0.0,0.0,0.0,0.0,0.0,0.0,0.0,0.0]}]]